[[{"header":{"parameterUnit":"m.s-1","parameterCategory":1,"la1":30.6,"la2":28.766,"lo1":-90.7593,"lo2":-88.6598,"dx":0.0162,"dy":0.0183,"nx":116,"ny":114,"refTime":"2022-12-28T18:00:00:Z","depth":0,"parameterNumber":2,"parameterNumberName":"U-component_of_WINDS"},"data":[0.0,0.0,0.0,0.0,0.0,0.0,0.0,0.0,0.0,0.0,0.0,0.0,0.0,0.0,0.0,0.0,0.0,0.0,0.0,0.0,0.0,0.0,0.0,0.0,0.0,0.0,0.0,0.0,0.0,0.0,0.0,0.0,0.0,0.0,0.0,0.0,0.0,0.0,0.0,0.0,0.0,0.0,0.0,0.0,0.0,0.0,0.0,0.0,0.0,0.0,0.0,0.0,0.0,0.0,0.0,0.0,0.0,0.0,0.0,0.0,0.0,0.0,0.0,0.0,0.0,0.0,0.0,0.0,0.0,0.0,0.0,0.0,0.0,0.0,0.0,0.0,0.0,0.0,0.0,0.0,0.0,0.0,0.0,0.0,0.0,0.0,0.0,0.0,0.0,0.0,0.0,0.0,0.0,0.0,0.0,0.0,0.0,0.0,0.0,0.0,0.0,0.0,0.0,0.0,0.0,0.0,0.0,0.0,0.0,0.0,0.0,0.0,0.0,0.0,0.0,0.0,0.0,0.0,0.0,0.0,0.0,0.0,0.0,0.0,0.0,0.0,0.0,0.0,0.0,0.0,0.0,0.0,0.0,0.0,0.0,0.0,0.0,0.0,0.0,0.0,0.0,0.0,0.0,0.0,0.0,0.0,0.0,0.0,0.0,0.0,0.0,0.0,0.0,0.0,0.0,0.0,0.0,0.0,0.0,0.0,0.0,0.0,0.0,0.0,0.0,0.0,0.0,0.0,0.0,0.0,0.0,0.0,0.0,0.0,0.0,0.0,0.0,0.0,0.0,0.0,0.0,0.0,0.0,0.0,0.0,0.0,0.0,0.0,0.0,0.0,0.0,0.0,0.0,0.0,0.0,0.0,0.0,0.0,0.0,0.0,0.0,0.0,0.0,0.0,0.0,0.0,0.0,0.0,0.0,0.0,0.0,0.0,0.0,0.0,0.0,0.0,0.0,0.0,0.0,0.0,0.0,0.0,0.0,0.0,0.0,0.0,0.0,0.0,0.0,0.0,0.0,0.0,0.0,0.0,0.0,0.0,0.0,0.0,0.0,0.0,0.0,0.0,0.0,0.0,0.0,0.0,0.0,0.0,0.0,0.0,0.0,0.0,0.0,0.0,0.0,0.0,0.0,0.0,0.0,0.0,0.0,0.0,0.0,0.0,0.0,0.0,0.0,0.0,0.0,0.0,0.0,0.0,0.0,0.0,0.0,0.0,0.0,0.0,0.0,0.0,0.0,0.0,0.0,0.0,0.0,0.0,0.0,0.0,0.0,0.0,0.0,0.0,0.0,0.0,0.0,0.0,0.0,0.0,0.0,0.0,0.0,0.0,0.0,0.0,0.0,0.0,0.0,0.0,0.0,0.0,0.0,0.0,0.0,0.0,0.0,0.0,0.0,0.0,0.0,0.0,0.0,0.0,0.0,0.0,0.0,0.0,0.0,0.0,0.0,0.0,0.0,0.0,0.0,0.0,0.0,0.0,0.0,0.0,0.0,0.0,0.0,0.0,0.0,0.0,0.0,0.0,0.0,0.0,0.0,0.0,0.0,0.0,0.0,0.0,0.0,0.0,0.0,0.0,0.0,0.0,0.0,0.0,0.0,0.0,0.0,0.0,0.0,0.0,0.0,0.0,0.0,0.0,0.0,0.0,0.0,0.0,0.0,0.0,0.0,0.0,0.0,0.0,0.0,0.0,0.0,0.0,0.0,0.0,0.0,0.0,0.0,0.0,0.0,0.0,0.0,0.0,0.0,0.0,0.0,0.0,0.0,0.0,0.0,0.0,0.0,0.0,0.0,0.0,0.0,0.0,0.0,0.0,0.0,0.0,0.0,0.0,0.0,0.0,0.0,0.0,0.0,0.0,0.0,0.0,0.0,0.0,0.0,0.0,0.0,0.0,0.0,0.0,0.0,0.0,0.0,0.0,0.0,0.0,0.0,0.0,0.0,0.0,0.0,0.0,0.0,0.0,0.0,0.0,0.0,0.0,0.0,0.0,0.0,0.0,0.0,0.0,0.0,0.0,0.0,0.0,0.0,0.0,0.0,0.0,0.0,0.0,0.0,0.0,0.0,0.0,0.0,0.0,0.0,0.0,0.0,0.0,0.0,0.0,0.0,0.0,0.0,0.0,0.0,0.0,0.0,0.0,0.0,0.0,0.0,0.0,0.0,0.0,0.0,0.0,0.0,0.0,0.0,0.0,0.0,0.0,0.0,0.0,0.0,0.0,0.0,0.0,0.0,0.0,0.0,0.0,0.0,0.0,0.0,0.0,0.0,0.0,0.0,0.0,0.0,0.0,0.0,0.0,0.0,0.0,0.0,0.0,0.0,0.0,0.0,0.0,0.0,0.0,0.0,0.0,0.0,0.0,0.0,0.0,0.0,0.0,0.0,0.0,0.0,0.0,0.0,0.0,0.0,0.0,0.0,0.0,0.0,0.0,0.0,0.0,0.0,0.0,0.0,0.0,0.0,0.0,0.0,0.0,0.0,0.0,0.0,0.0,0.0,0.0,0.0,0.0,0.0,0.0,0.0,0.0,0.0,0.0,0.0,0.0,0.0,0.0,0.0,0.0,0.0,0.0,0.0,0.0,0.0,0.0,0.0,0.0,0.0,0.0,0.0,0.0,0.0,0.0,0.0,0.0,0.0,0.0,0.0,0.0,0.0,0.0,0.0,0.0,0.0,0.0,0.0,0.0,0.0,0.0,0.0,0.0,0.0,0.0,0.0,0.0,0.0,0.0,0.0,0.0,0.0,0.0,0.0,0.0,0.0,0.0,0.0,0.0,0.0,0.0,0.0,0.0,0.0,0.0,0.0,0.0,0.0,0.0,0.0,0.0,0.0,0.0,0.0,0.0,0.0,0.0,0.0,0.0,0.0,0.0,0.0,0.0,0.0,0.0,0.0,0.0,0.0,0.0,0.0,0.0,0.0,0.0,0.0,0.0,0.0,0.0,0.0,0.0,0.0,0.0,0.0,0.0,0.0,0.0,0.0,0.0,0.0,0.0,0.0,0.0,0.0,0.0,0.0,0.0,0.0,0.0,0.0,0.0,0.0,0.0,0.0,0.0,0.0,0.0,0.0,0.0,0.0,0.0,0.0,0.0,0.0,0.0,0.0,0.0,0.0,0.0,0.0,0.0,0.0,0.0,0.0,0.0,0.0,0.0,0.0,0.0,0.0,0.0,0.0,0.0,0.0,0.0,0.0,0.0,0.0,0.0,0.0,0.0,0.0,0.0,0.0,0.0,0.0,0.0,0.0,0.0,0.0,0.0,0.0,0.0,0.0,0.0,0.0,0.0,0.0,0.0,0.0,0.0,0.0,0.0,0.0,0.0,0.0,0.0,0.0,0.0,0.0,0.0,0.0,0.0,0.0,0.0,0.0,0.0,0.0,0.0,0.0,0.0,0.0,0.0,0.0,0.0,0.0,0.0,0.0,0.0,0.0,0.0,0.0,0.0,0.0,0.0,0.0,0.0,0.0,0.0,0.0,0.0,0.0,0.0,0.0,0.0,0.0,0.0,0.0,0.0,0.0,0.0,0.0,0.0,0.0,0.0,0.0,0.0,0.0,0.0,0.0,0.0,0.0,0.0,0.0,0.0,0.0,0.0,0.0,0.0,0.0,0.0,0.0,0.0,0.0,0.0,0.0,0.0,0.0,0.0,0.0,0.0,0.0,0.0,0.0,0.0,0.0,0.0,0.0,0.0,0.0,0.0,0.0,0.0,0.0,0.0,0.0,0.0,0.0,0.0,0.0,0.0,0.0,0.0,0.0,0.0,0.0,0.0,0.0,0.0,0.0,0.0,0.0,0.0,0.0,0.0,0.0,0.0,0.0,0.0,0.0,0.0,0.0,0.0,0.0,0.0,0.0,0.0,0.0,0.0,0.0,0.0,0.0,0.0,0.0,0.0,0.0,0.0,0.0,0.0,0.0,0.0,0.0,0.0,0.0,0.0,0.0,0.0,0.0,0.0,0.0,0.0,0.0,0.0,0.0,0.0,0.0,0.0,0.0,0.0,0.0,0.0,0.0,0.0,0.0,0.0,0.0,0.0,0.0,0.0,0.0,0.0,0.0,0.0,0.0,0.0,0.0,0.0,0.0,0.0,0.0,0.0,0.0,0.0,0.0,0.0,0.0,0.0,0.0,0.0,0.0,0.0,0.0,0.0,0.0,0.0,0.0,0.0,0.0,0.0,0.0,0.0,0.0,0.0,0.0,0.0,0.0,0.0,0.0,0.0,0.0,0.0,0.0,0.0,0.0,0.0,0.0,0.0,0.0,0.0,0.0,0.0,0.0,0.0,0.0,0.0,0.0,0.0,0.0,0.0,0.0,0.0,0.0,0.0,0.0,0.0,0.0,0.0,0.0,0.0,0.0,0.0,0.0,0.0,0.0,0.0,0.0,0.0,0.0,0.0,0.0,0.0,0.0,0.0,0.0,0.0,0.0,0.0,0.0,0.0,0.0,0.0,0.0,0.0,0.0,0.0,0.0,0.0,0.0,0.0,0.0,0.0,0.0,0.0,0.0,0.0,0.0,0.0,0.0,0.0,0.0,0.0,0.0,0.0,0.0,0.0,0.0,0.0,0.0,0.0,0.0,0.0,0.0,0.0,0.0,0.0,0.0,0.0,0.0,0.0,0.0,0.0,0.0,0.0,0.0,0.0,0.0,0.0,0.0,0.0,0.0,0.0,0.0,0.0,0.0,0.0,0.0,0.0,0.0,0.0,0.0,0.0,0.0,0.0,0.0,0.0,0.0,0.0,0.0,0.0,0.0,0.0,0.0,0.0,0.0,0.0,0.0,0.0,0.0,0.0,0.0,0.0,0.0,0.0,0.0,0.0,0.0,0.0,0.0,0.0,0.0,0.0,0.0,0.0,0.0,0.0,0.0,0.0,0.0,0.0,0.0,0.0,0.0,0.0,0.0,0.0,0.0,0.0,0.0,0.0,0.0,0.0,0.0,0.0,0.0,0.0,0.0,0.0,0.0,0.0,0.0,0.0,0.0,0.0,0.0,0.0,0.0,0.0,0.0,0.0,0.0,0.0,0.0,0.0,0.0,0.0,0.0,0.0,0.0,0.0,0.0,0.0,0.0,0.0,0.0,0.0,0.0,0.0,0.0,0.0,0.0,0.0,0.0,0.0,0.0,0.0,0.0,0.0,0.0,0.0,0.0,0.0,0.0,0.0,0.0,0.0,0.0,0.0,0.0,0.0,0.0,0.0,0.0,0.0,0.0,0.0,0.0,0.0,0.0,0.0,0.0,0.0,0.0,0.0,0.0,0.0,0.0,0.0,0.0,0.0,0.0,0.0,0.0,0.0,0.0,0.0,0.0,0.0,0.0,0.0,0.0,0.0,0.0,0.0,0.0,0.0,0.0,0.0,0.0,0.0,0.0,0.0,0.0,0.0,0.0,0.0,0.0,0.0,0.0,0.0,0.0,0.0,0.0,0.0,0.0,0.0,0.0,0.0,0.0,0.0,0.0,0.0,0.0,0.0,0.0,0.0,0.0,0.0,0.0,0.0,0.0,0.0,0.0,0.0,0.0,0.0,0.0,0.0,0.0,0.0,0.0,0.0,0.0,0.0,0.0,0.0,0.0,0.0,0.0,0.0,0.0,0.0,0.0,0.0,0.0,0.0,0.0,0.0,0.0,0.0,0.0,0.0,0.0,0.0,0.0,0.0,0.0,0.0,0.0,0.0,0.0,0.0,0.0,0.0,0.0,0.0,0.0,0.0,0.0,0.0,0.0,0.0,0.0,0.0,0.0,0.0,0.0,0.0,0.0,0.0,0.0,0.0,0.0,0.0,0.0,0.0,0.0,0.0,0.0,0.0,0.0,0.0,0.0,0.0,0.0,0.0,0.0,0.0,0.0,0.0,0.0,0.0,0.0,0.0,0.0,0.0,0.0,0.0,0.0,0.0,0.0,0.0,0.0,0.0,0.0,0.0,0.0,0.0,0.0,0.0,0.0,0.0,0.0,0.0,0.0,0.0,0.0,0.0,0.0,0.0,0.0,0.0,0.0,0.0,0.0,0.0,0.0,0.0,0.0,0.0,0.0,0.0,0.0,0.0,0.0,0.0,0.0,0.0,0.0,0.0,0.0,0.0,-2.6398,0.0,0.0,0.0,0.0,0.0,0.0,0.0,0.0,0.0,0.0,0.0,0.0,0.0,0.0,0.0,0.0,0.0,0.0,0.0,0.0,0.0,0.0,0.0,0.0,0.0,0.0,0.0,0.0,0.0,0.0,0.0,0.0,0.0,0.0,0.0,0.0,0.0,-1.6278,-1.7192,-1.8164,-1.9151,-2.0079,-1.975,-1.9582,-1.9582,0.0,0.0,0.0,0.0,0.0,0.0,0.0,0.0,0.0,0.0,0.0,0.0,0.0,0.0,0.0,0.0,0.0,0.0,0.0,0.0,0.0,0.0,0.0,0.0,0.0,0.0,0.0,0.0,0.0,0.0,0.0,0.0,0.0,0.0,0.0,0.0,0.0,0.0,0.0,0.0,0.0,0.0,0.0,0.0,0.0,0.0,0.0,0.0,0.0,0.0,0.0,0.0,0.0,0.0,0.0,0.0,0.0,0.0,0.0,0.0,0.0,0.0,0.0,0.0,0.0,0.0,0.0,0.0,0.0,0.0,0.0,-2.7021,0.0,0.0,0.0,0.0,0.0,0.0,0.0,0.0,0.0,0.0,0.0,0.0,0.0,0.0,0.0,0.0,0.0,0.0,0.0,0.0,0.0,0.0,0.0,-1.7354,-1.7699,-1.7699,-1.7699,-1.7473,0.0,0.0,0.0,0.0,0.0,0.0,-1.6114,-1.6248,-1.7162,-1.8882,-1.9779,-2.1235,-2.3212,-2.3212,-2.3032,-2.2673,-2.0966,0.0,0.0,0.0,0.0,0.0,0.0,0.0,0.0,0.0,0.0,0.0,0.0,0.0,0.0,0.0,0.0,0.0,0.0,0.0,0.0,0.0,0.0,0.0,0.0,0.0,0.0,0.0,0.0,0.0,0.0,0.0,0.0,0.0,0.0,0.0,0.0,0.0,0.0,0.0,0.0,0.0,0.0,0.0,0.0,0.0,0.0,0.0,0.0,0.0,0.0,0.0,0.0,0.0,0.0,0.0,0.0,0.0,0.0,0.0,0.0,0.0,0.0,0.0,-3.2647,-3.3005,-3.3066,-3.3844,-3.4173,-3.4053,-3.1808,-3.055,-2.9953,0.0,0.0,0.0,0.0,0.0,0.0,0.0,0.0,0.0,0.0,0.0,0.0,0.0,0.0,0.0,0.0,0.0,0.0,0.0,0.0,0.0,0.0,-1.7652,-1.7699,-1.7699,-1.7699,-1.7652,-1.7563,0.0,0.0,0.0,0.0,-1.728,-1.7459,-1.8014,-1.8732,-1.9558,-2.1415,-2.3281,-2.5226,-2.5226,-2.5794,-2.6686,-2.3661,-2.2254,-2.2044,0.0,0.0,0.0,0.0,0.0,0.0,0.0,0.0,0.0,0.0,0.0,0.0,0.0,0.0,0.0,0.0,0.0,0.0,0.0,0.0,0.0,0.0,0.0,0.0,0.0,0.0,0.0,0.0,0.0,0.0,0.0,0.0,0.0,0.0,0.0,0.0,0.0,0.0,0.0,0.0,0.0,-2.2523,-2.3131,0.0,0.0,0.0,0.0,0.0,0.0,0.0,0.0,0.0,0.0,0.0,0.0,0.0,-3.1301,-3.1988,-3.2138,-3.2587,-3.3245,-3.4502,-3.51,-3.516,-3.6357,-3.6896,-3.6836,-3.5968,0.0,-3.2078,-3.1182,0.0,0.0,0.0,0.0,0.0,0.0,0.0,0.0,0.0,0.0,0.0,0.0,0.0,0.0,0.0,0.0,0.0,0.0,0.0,0.0,0.0,-1.8612,-1.8822,-1.8822,-1.8822,-1.8822,-1.8822,-1.8476,0.0,0.0,-1.7908,-1.8057,-1.8822,-1.9121,-2.0318,-2.2452,-2.3699,-2.5525,-2.7829,-2.7829,-2.8547,-2.9714,-2.7555,-2.5525,-2.367,-2.2074,0.0,0.0,0.0,0.0,0.0,0.0,0.0,0.0,0.0,0.0,0.0,0.0,0.0,0.0,0.0,0.0,0.0,0.0,0.0,0.0,0.0,0.0,0.0,0.0,0.0,0.0,0.0,0.0,0.0,0.0,0.0,0.0,0.0,0.0,0.0,0.0,0.0,0.0,0.0,-2.3251,-2.4418,-2.4687,-2.6303,-2.741,0.0,0.0,0.0,0.0,0.0,0.0,0.0,0.0,0.0,-3.1629,-3.3005,-3.3872,-3.4203,-3.4921,-3.54,-3.5699,-3.6297,-3.6776,-3.7135,-3.7704,-3.8182,-3.8512,-3.7853,-3.6896,-3.5669,-3.3903,-3.2976,-3.2587,0.0,0.0,0.0,0.0,-3.1539,-3.133,0.0,0.0,0.0,0.0,0.0,0.0,0.0,0.0,0.0,0.0,0.0,0.0,-1.9181,-1.966,-2.0019,-2.0217,-2.0217,-2.0217,-2.0217,-1.975,-1.948,-1.948,-1.8984,-1.9211,-2.0187,-2.0707,-2.2323,-2.5113,-2.6123,-2.7799,-3.0073,-3.0253,-3.0941,-3.1959,-3.0851,-2.8697,-2.577,-2.4118,-2.2772,-2.1615,0.0,0.0,0.0,0.0,0.0,0.0,0.0,0.0,0.0,0.0,0.0,0.0,0.0,0.0,0.0,0.0,0.0,0.0,0.0,0.0,0.0,0.0,0.0,0.0,0.0,0.0,0.0,0.0,0.0,0.0,0.0,0.0,0.0,0.0,0.0,0.0,0.0,-2.5375,-2.6692,-2.6841,-2.8906,-3.0342,0.0,0.0,0.0,0.0,0.0,0.0,-3.2497,-3.3006,-3.3425,-3.3754,-3.537,-3.6237,-3.6237,-3.7375,-3.7913,-3.7913,-3.8093,-3.8422,-3.8901,-3.908,-3.9439,-3.9888,-3.9379,-3.905,-3.8721,-3.6237,-3.4951,-3.4502,-3.4502,-3.4203,-3.3814,-3.4322,-3.4173,-3.3844,0.0,0.0,0.0,0.0,0.0,0.0,0.0,0.0,0.0,0.0,0.0,-1.9181,-2.0449,-2.0628,-2.0917,-2.1545,-2.1605,-2.1605,-2.1605,-2.1575,-2.1545,-2.1545,-2.1515,-2.1515,-2.1605,-2.3409,-2.5053,-2.6482,-2.8453,-3.0073,-3.1421,-3.2049,-3.2736,-3.3365,-3.2677,-3.124,-2.9202,-2.6572,-2.5053,-2.4283,-2.2914,0.0,0.0,0.0,0.0,0.0,0.0,0.0,0.0,0.0,0.0,0.0,0.0,0.0,0.0,0.0,0.0,0.0,0.0,0.0,0.0,0.0,0.0,0.0,0.0,0.0,0.0,0.0,0.0,0.0,0.0,0.0,0.0,0.0,0.0,0.0,0.0,0.0,0.0,-3.0193,-3.1509,0.0,0.0,0.0,0.0,-3.3395,-3.3395,-3.3963,-3.525,-3.534,-3.5908,-3.7135,-3.7853,-3.8242,-3.8242,-3.896,-3.932,-3.932,-3.9948,-4.0277,-4.0307,-4.0935,-4.1302,-4.1294,-4.1235,-4.0876,-4.0127,-3.8093,-3.7255,-3.7195,-3.7195,-3.7195,-3.7165,-3.7195,-3.7195,-3.7165,0.0,0.0,0.0,-1.5799,-1.6129,-1.6592,-1.7234,-1.7712,-1.8296,-1.9211,-1.972,-2.0329,-2.1246,-2.1724,-2.2233,-2.2862,-2.2921,-2.2921,-2.2921,-2.2921,-2.2921,-2.2921,-2.2921,-2.334,-2.4208,-2.5734,-2.738,-2.9116,-3.0283,-3.1719,-3.3425,-3.3664,-3.4143,-3.4771,-3.4083,-3.3395,-3.2557,-2.9475,-2.7215,-2.5604,-2.4766,-2.3241,0.0,0.0,0.0,0.0,0.0,0.0,0.0,0.0,0.0,0.0,0.0,0.0,0.0,0.0,0.0,0.0,0.0,0.0,0.0,0.0,0.0,0.0,0.0,0.0,0.0,0.0,0.0,0.0,0.0,0.0,0.0,0.0,0.0,0.0,0.0,0.0,0.0,-3.1779,-3.2976,0.0,-3.4382,-3.504,-3.5579,-3.5998,-3.5998,-3.6417,-3.7315,-3.7375,-3.7764,-3.8661,-3.9349,-3.9679,-3.9679,-4.0337,-4.0696,-4.0696,-4.0905,-4.1265,-4.1722,-4.1931,-4.2252,-4.2611,-4.2192,-4.1931,-4.1602,-4.0427,-3.9469,-3.8691,-3.8691,-3.8691,-3.8691,-3.8691,-3.8691,-3.8691,0.0,0.0,0.0,-1.5799,-1.6293,-1.6936,-1.7593,-1.8267,-1.9031,-1.9929,-2.0617,-2.1365,-2.2233,-2.3131,-2.3909,-2.4567,-2.4807,-2.4949,-2.4949,-2.4717,-2.4717,-2.4926,-2.4949,-2.5585,-2.6931,-2.8008,-2.9415,-3.118,-3.2049,-3.3185,-3.4503,-3.4711,-3.507,-3.5489,-3.504,-3.4799,-3.4588,-3.2258,-2.9869,-2.765,-2.708,-2.5503,-2.3531,0.0,0.0,0.0,0.0,0.0,0.0,0.0,0.0,0.0,0.0,0.0,0.0,0.0,0.0,0.0,0.0,0.0,0.0,0.0,0.0,0.0,0.0,0.0,0.0,0.0,0.0,0.0,0.0,0.0,0.0,0.0,0.0,0.0,0.0,0.0,-3.3275,-3.3484,-3.4502,-3.5429,-3.6088,-3.6537,-3.7045,-3.7704,-3.7734,-3.8123,-3.902,-3.905,-3.9379,-4.0068,-4.0726,-4.1055,-4.1055,-4.1923,-4.2372,-4.2372,-4.2611,-4.294,-4.3399,-4.3399,-4.3599,-4.3917,-4.3539,-4.3399,-4.3369,-4.288,-4.2192,-4.1324,-4.0427,-4.0068,-4.0068,-4.0068,-4.0068,-4.0068,0.0,0.0,-1.5799,-1.5799,-1.6323,-1.6965,-1.7593,-1.8296,-1.9211,-2.0509,-2.1306,-2.2203,-2.349,-2.4866,-2.5944,-2.6602,-2.7285,-2.7645,-2.7645,-2.7076,-2.6986,-2.7615,-2.7675,-2.8304,-2.9651,-3.0253,-3.124,-3.2587,-3.3844,-3.4503,-3.4563,-3.519,-3.5519,-3.5519,-3.5519,-3.5392,-3.5169,-3.4707,-3.3006,-3.0582,-2.9784,-2.7965,-2.5711,0.0,0.0,0.0,0.0,0.0,0.0,0.0,0.0,0.0,0.0,0.0,0.0,0.0,0.0,0.0,0.0,0.0,0.0,0.0,0.0,0.0,0.0,0.0,0.0,0.0,0.0,0.0,0.0,0.0,0.0,0.0,0.0,0.0,-3.2706,-3.3724,-3.4801,-3.5489,-3.6148,-3.6776,-3.7404,-3.7494,-3.7764,-3.8422,-3.8482,-3.905,-4.0397,-4.0487,-4.0786,-4.1444,-4.2141,-4.25,-4.25,-4.3718,-4.4347,-4.4347,-4.4975,-4.5304,-4.5304,-4.5304,-4.5304,-4.5304,-4.5304,-4.5304,-4.5304,-4.5304,-4.5304,-4.5035,-4.2491,-4.1542,-4.1542,-4.1542,-4.1542,-4.1542,-1.7699,-1.6667,-1.5799,-1.5799,-1.6697,-1.7473,-1.7652,-1.8702,-1.972,-2.0569,-2.1695,-2.2892,-2.4186,-2.5944,-2.732,-2.7979,-2.8663,-2.9052,-2.9052,-2.8873,-2.8873,-2.9052,-2.9475,-3.0103,-3.0943,-3.1629,-3.2617,-3.3933,-3.4324,-3.4773,-3.522,-3.54,-3.5519,-3.5519,-3.5519,-3.5457,-3.5424,-3.5277,-3.4502,-3.3245,-3.1571,-2.9956,-2.8427,0.0,0.0,0.0,0.0,0.0,0.0,0.0,0.0,0.0,0.0,0.0,0.0,0.0,0.0,0.0,0.0,0.0,0.0,0.0,0.0,0.0,0.0,0.0,0.0,0.0,0.0,0.0,0.0,0.0,0.0,0.0,0.0,-3.4891,-3.4711,-3.54,-3.6178,-3.6806,-3.7464,-3.8123,-3.8811,-3.929,-3.9858,-4.0516,-4.0583,-4.0973,-4.1811,-4.2252,-4.2821,-4.3479,-4.4137,-4.4496,-4.4496,-4.4855,-4.5035,-4.5035,-4.5214,-4.5304,-4.5304,-4.5304,-4.5304,-4.5304,-4.5304,-4.5304,-4.5304,-4.5304,-4.5304,-4.5214,-4.4496,-4.4227,-4.4227,-4.4227,-4.4227,-4.4227,-1.7758,-1.6891,-1.6189,-1.6189,-1.7011,-1.7772,-1.8087,-1.9031,-2.0019,-2.1006,-2.2044,-2.3302,-2.4844,-2.6811,-2.8304,-2.8936,-2.9864,-3.0402,-3.0402,-3.0642,-3.0702,-3.0402,-3.127,-3.2078,-3.2736,-3.3155,-3.3844,-3.4921,-3.4921,-3.513,-3.5519,-3.5519,-3.5519,-3.5519,-3.5519,-3.5519,-3.5519,-3.5519,-3.528,-3.4771,-3.3335,-3.1988,-3.0761,-3.0372,-2.8996,-2.726,-2.726,-2.6393,-2.5279,-2.5279,0.0,0.0,0.0,0.0,0.0,0.0,0.0,0.0,0.0,0.0,0.0,0.0,0.0,0.0,0.0,0.0,0.0,0.0,0.0,0.0,0.0,0.0,0.0,0.0,-3.522,-3.6207,-3.7015,-3.7225,-3.7524,-3.8182,-3.8841,-3.9499,-4.0157,-4.0576,-4.1085,-4.1782,-4.2043,-4.2491,-4.315,-4.3808,-4.4317,-4.4706,-4.5095,-4.5304,-4.5304,-4.5574,-4.5723,-4.5723,-4.5992,-4.6142,-4.6142,-4.6142,-4.6142,0.0,-4.6142,-4.6142,-4.6142,-4.6142,-4.6142,0.0,0.0,0.0,0.0,0.0,-4.5304,-4.5304,-1.7938,-1.7264,-1.6801,-1.6801,-1.7354,-1.7997,-1.8612,-1.9271,-2.0187,-2.1515,-2.2283,-2.3452,-2.5405,-2.732,-2.8786,-2.9532,-3.0702,-3.1421,-3.1511,-3.2108,-3.2228,-3.163,-3.2916,-3.3873,-3.4503,-3.4593,-3.4891,-3.5519,-3.5519,-3.5519,-3.5519,-3.5519,-3.5519,-3.5519,-3.5519,-3.5519,-3.5519,-3.5519,-3.5519,-3.5459,-3.4831,-3.3844,-3.2736,-3.2647,-3.148,-2.9951,-2.9951,-2.9112,-2.8034,-2.8034,0.0,0.0,0.0,0.0,0.0,0.0,0.0,0.0,0.0,0.0,0.0,0.0,0.0,0.0,0.0,0.0,0.0,0.0,0.0,0.0,0.0,0.0,0.0,0.0,-3.6297,-3.7434,-3.917,-3.908,-3.905,-3.9559,-4.0217,-4.0846,-4.1482,-4.1624,-4.1953,-4.259,-4.318,-4.3768,-4.4377,0.0,0.0,0.0,0.0,-4.5514,-4.5514,-4.6142,-4.6399,-4.6399,-4.704,-4.7309,-4.7309,-4.7309,-4.7309,-4.7309,-4.7309,-4.7309,-4.7309,-4.7309,-4.7309,-4.7189,-4.5992,-4.5514,-4.5514,-4.5514,-4.5514,-4.5514,-1.8642,-1.7968,-1.7503,-1.7503,-1.8057,-1.8553,-1.8672,-1.9271,-2.0187,-2.1515,-2.2283,-2.3452,-2.5405,-2.6901,-2.8274,-2.9502,-3.0283,-3.0913,-3.1481,-3.2108,-3.2467,-3.2288,-3.3574,-3.4384,-3.4503,-3.5011,-3.537,-3.5519,-3.5519,-3.5519,-3.5519,-3.5519,-3.5519,-3.5519,-3.5519,-3.5519,-3.5519,-3.5519,-3.5519,-3.5489,-3.537,-3.4831,-3.4023,-3.3514,-3.2736,-3.1958,-3.1958,-3.1421,-3.0733,-3.0733,-2.9894,-2.8843,-2.8843,-2.7914,0.0,0.0,0.0,0.0,0.0,0.0,0.0,0.0,0.0,0.0,0.0,0.0,0.0,0.0,0.0,0.0,0.0,0.0,0.0,-3.6178,-3.7734,-3.899,-3.9379,-4.0666,-4.1482,-4.1055,-4.1632,-4.2081,-4.2201,-4.312,-4.3808,-4.3928,-4.4556,-4.4975,-4.5095,-4.5753,-4.6142,-4.6142,-4.6651,-4.692,-4.692,-4.704,-4.713,-4.713,0.0,0.0,-4.7309,-4.7309,-4.7309,-4.7309,-4.7309,-4.7309,-4.7309,-4.7309,-4.7309,-4.7279,-4.701,-4.692,-4.692,-4.692,-4.692,-4.692,-1.9288,-1.8672,-1.8207,-1.8207,-1.8493,-1.8822,-1.9151,-1.948,-2.0067,-2.1066,-2.1784,-2.2802,-2.4418,-2.6093,-2.7495,-2.8513,-2.9744,-3.0642,-3.0972,-3.2258,-3.3006,-3.3006,-3.4292,-3.4981,-3.4981,-3.534,-3.5519,-3.5519,-3.5519,-3.5519,-3.5519,-3.5519,-3.5519,-3.5519,-3.5519,-3.5519,-3.5519,-3.5519,-3.5519,-3.5519,-3.5519,-3.531,-3.4951,-3.4622,-3.4083,-3.3484,-3.3484,-3.3066,-3.2527,-3.2527,-3.1869,-3.1061,-3.1061,-3.0133,-2.8846,0.0,0.0,0.0,0.0,0.0,0.0,0.0,0.0,0.0,0.0,0.0,0.0,0.0,0.0,-3.4113,0.0,0.0,-3.6776,-3.7793,-3.8781,-3.9768,-4.0756,-4.2013,-4.2611,-4.1991,-4.277,-4.3329,-4.3329,-4.4227,-4.4796,-4.4796,-4.5424,-4.5813,-4.5813,-4.6441,-4.68,-4.68,-4.713,-4.7309,-4.7309,-4.7309,-4.7309,-4.7309,-4.7309,-4.7309,-4.7309,-4.7309,-4.7309,-4.7309,-4.7309,-4.7309,-4.7309,-4.7309,-4.7309,-4.7309,-4.7309,-4.7309,-4.7309,-4.7309,-4.7309,-4.7309,-1.9708,-1.9288,-1.8882,-1.8882,-1.8882,-1.9061,-1.9618,-1.9708,-1.9929,-2.0598,-2.1186,-2.2024,-2.346,-2.5046,-2.6447,-2.7495,-2.9265,-3.0372,-3.0492,-3.2258,-3.3365,-3.3484,-3.4771,-3.5519,-3.5519,-3.5519,-3.5519,-3.5519,-3.5519,-3.5519,-3.5519,-3.5519,-3.5519,-3.5519,-3.5519,-3.5519,-3.5519,-3.5519,-3.5519,-3.5519,-3.5519,-3.5519,-3.5519,-3.5519,-3.516,-3.4713,-3.4713,-3.4352,-3.3873,-3.3873,-3.3455,-3.2886,-3.2886,-3.2078,-3.0941,-3.0193,-2.9594,0.0,0.0,0.0,0.0,0.0,0.0,0.0,0.0,-3.2138,-3.3065,-3.3065,-3.4592,-3.5908,-3.6058,-3.7015,-3.8182,-3.9409,-3.9828,-4.0576,-4.2312,-4.312,-4.3359,-4.301,-4.3868,-4.4496,-4.4496,-4.5095,-4.5484,-4.5484,-4.6142,-4.6459,-4.6459,-4.701,-4.7309,-4.7309,-4.7309,-4.7309,-4.7309,-4.7309,-4.7309,-4.7309,-4.7309,-4.7309,-4.7309,-4.7309,-4.7309,-4.7309,-4.7309,-4.7309,-4.7309,-4.7309,-4.7309,-4.7309,-4.7309,-4.7309,-4.7309,-4.7309,-4.7309,-4.7309,-1.9708,-1.9648,-1.9588,-1.9588,-1.9588,-1.9618,-1.9678,-1.9708,-1.9929,-2.0598,-2.0748,-2.1525,-2.34,-2.3789,-2.4926,-2.7375,-2.8903,-2.9924,-3.0462,-3.1839,-3.2886,-3.3455,-3.4771,-3.5519,-3.5519,-3.5519,-3.5519,-3.5519,-3.5519,-3.5519,-3.5519,-3.5519,-3.5519,-3.5519,-3.5519,-3.5519,-3.5519,-3.5519,-3.5519,-3.5519,-3.5519,-3.5519,-3.5519,-3.5519,-3.5459,-3.54,-3.54,-3.534,-3.528,-3.528,-3.4831,-3.4294,-3.4294,-3.3754,-3.2916,-3.166,-3.1241,-3.1032,-3.0372,-3.0612,-3.1212,-3.1898,-3.2138,-3.2347,0.0,0.0,-3.516,-3.516,-3.6237,-3.7375,-3.7973,-3.8691,-3.9439,-4.0157,-4.1265,-4.2312,-4.308,-4.3738,-4.4377,-4.4915,-4.5095,-4.5185,-4.5185,-4.5813,-4.6202,-4.6202,-4.683,-4.7189,-4.7189,-4.7279,-4.7309,-4.7309,-4.7309,-4.7309,-4.7309,-4.7309,-4.7309,-4.7309,-4.7309,-4.7309,-4.7309,-4.7309,-4.7309,-4.7309,-4.7309,-4.7309,-4.7309,-4.7309,-4.7309,-4.7309,-4.7309,-4.7309,-4.7309,-4.7309,-4.7309,-4.7309,-1.9708,-1.9708,-1.9708,-1.9708,-1.9708,-1.9708,-1.9708,-1.9708,-1.9798,-2.0079,-2.0468,-2.1017,-2.1824,-2.2921,-2.4358,-2.6273,-2.7675,-2.8723,-2.9355,-3.136,-3.2796,-3.3455,-3.4771,-3.5519,-3.5519,-3.5519,-3.5519,-3.5519,-3.5519,-3.5519,-3.5519,-3.5519,-3.5519,-3.5519,-3.5519,-3.5519,-3.5519,-3.5519,-3.5519,-3.5519,-3.5519,-3.5519,-3.5519,-3.5519,-3.5519,-3.5519,-3.5519,-3.5519,0.0,-3.5519,-3.531,-3.507,-3.507,-3.4622,-3.3963,-3.3395,-3.2976,-3.2617,-3.2317,-3.2467,-3.2736,-3.3006,-3.3664,-3.4322,-3.4592,-3.5669,-3.6716,-3.7105,-3.7913,-3.8781,-3.9439,-4.0098,-4.0786,0.0,-4.2381,-4.318,-4.3808,-4.4825,-4.5574,-4.5873,-4.6232,-4.6322,-4.5933,-4.6501,-4.689,-4.689,-4.716,-4.7309,-4.7309,-4.7309,-4.7309,-4.7309,-4.7309,-4.7309,-4.7309,-4.7309,-4.7309,-4.7309,-4.7309,-4.7309,-4.7309,-4.7309,-4.7309,-4.7309,-4.7309,-4.7309,-4.7309,-4.7309,-4.7309,-4.7309,-4.7309,-4.7309,-4.7309,-4.7309,-4.7309,-4.7309,-1.9708,-1.9708,-1.9708,-1.9708,-1.9708,-1.9708,-1.9708,-1.9708,-1.9708,-1.9708,-2.0109,-2.0479,-2.0688,-2.2293,-2.3819,-2.4956,-2.6093,-2.729,-2.8517,-3.0552,-3.2258,-3.3455,-3.4592,-3.531,-3.5519,-3.5519,-3.5519,-3.5519,-3.5519,-3.5519,-3.5519,-3.5519,-3.5519,-3.5519,-3.5519,-3.5519,-3.5519,-3.5519,-3.5519,-3.5519,-3.5519,-3.5519,-3.5489,-3.528,-3.522,-3.525,-3.5429,-3.5519,-3.5459,-3.528,-3.534,-3.5459,-3.528,-3.5011,-3.4711,-3.4563,-3.4174,-3.3754,-3.3754,-3.4053,-3.4322,-3.4322,-3.519,-3.6028,-3.6028,-3.6896,-3.7883,-3.8542,-3.92,-3.9948,-4.0786,-4.1324,-4.1901,-4.2521,-4.321,-4.3868,-4.4496,-4.5574,-4.6381,-4.6561,-4.701,-4.713,-4.6651,-4.704,-4.7309,-4.7309,-4.7309,-4.7309,-4.7309,-4.7309,-4.7309,-4.7309,-4.7309,-4.7309,-4.7309,-4.7309,-4.7309,-4.7309,-4.7309,-4.7309,-4.7309,-4.7309,-4.7309,-4.7309,-4.7309,-4.7309,-4.7309,-4.7309,-4.7309,-4.7309,-4.7309,-4.7309,-4.7309,-4.7309,-4.7309,-4.7309,-1.9708,-1.9708,-1.9708,-1.9708,-1.9708,-1.9708,-1.9708,-1.9708,-1.9708,-1.9708,-1.9738,-1.9959,-2.0628,-2.1904,-2.2972,-2.361,-2.4276,-2.58,-2.8427,-2.9265,-3.0849,-3.3395,-3.4174,-3.4831,-3.5489,-3.5519,-3.5519,-3.5519,-3.5519,-3.5519,-3.5519,-3.5519,-3.5519,-3.5519,-3.5519,-3.5519,-3.5519,-3.5519,-3.5519,-3.5519,-3.5519,-3.5519,-3.5429,-3.4803,-3.4533,-3.4623,-3.528,-3.5519,-3.54,-3.4773,-3.4951,-3.54,-3.4743,-3.4951,-3.534,-3.4713,-3.4503,-3.4474,-3.4474,-3.5432,-3.6387,-3.6387,-3.6866,-3.7345,-3.7345,-3.7883,-3.8571,-3.926,-3.9918,-4.0756,-4.2111,-4.2351,-4.259,-4.314,-4.3868,-4.4526,-4.5185,-4.5873,-4.6561,-4.7189,-4.7309,-4.7309,0.0,-4.7309,-4.7309,-4.7309,-4.7309,-4.7309,-4.7309,-4.7309,-4.7309,-4.7309,-4.7309,-4.7309,-4.7309,-4.7309,-4.7309,-4.7309,-4.7309,-4.7309,-4.7309,-4.7309,-4.7309,-4.7309,-4.7309,-4.7309,-4.7309,-4.7309,-4.7309,-4.7309,-4.7309,-4.7309,-4.7309,-4.7309,-4.7309,-4.7309,-1.9708,-1.9708,-1.9708,-1.9708,-1.9708,-1.9708,-1.9708,-1.9708,-1.9708,-1.9708,-1.9708,0.0,0.0,0.0,0.0,0.0,-2.3977,-2.5173,-2.6542,-2.8876,-3.0402,-3.0909,-3.2766,-3.3724,-3.3514,-3.4382,-3.4863,-3.4863,-3.528,-3.5519,-3.5519,-3.5519,-3.5519,-3.5519,-3.5519,-3.5519,-3.5459,-3.5011,-3.4863,-3.4863,-3.4863,-3.4562,-3.4203,-3.4444,-3.4234,-3.3873,0.0,-3.4173,-3.4143,-3.3903,-3.4262,-3.4771,-3.4563,-3.4951,-3.5459,-3.522,-3.516,-3.525,-3.5731,-3.6148,-3.6596,-3.6985,-3.7584,-3.8063,-3.8063,-3.8571,-3.926,-3.9948,-4.0606,-4.1324,-4.2231,-4.2731,-4.306,-4.326,-4.4257,-4.5035,-4.5274,-4.6262,-4.707,-4.7279,-4.7309,0.0,0.0,0.0,0.0,-4.7309,-4.7309,-4.7309,-4.7309,-4.7309,-4.7309,-4.7309,-4.7309,-4.7309,-4.7309,-4.7309,-4.7309,-4.7309,-4.7309,-4.7309,-4.7309,-4.7309,-4.7309,-4.7309,-4.7309,-4.7309,-4.7309,-4.7309,-4.7309,-4.7309,-4.7309,-4.7309,-4.7309,-4.7309,-4.7309,-4.7309,0.0,-1.9708,-1.9708,-1.9708,-1.9708,0.0,0.0,0.0,0.0,0.0,0.0,0.0,0.0,0.0,0.0,0.0,0.0,-2.4126,-2.5501,-2.759,-2.9116,-2.9894,-3.1539,-3.2467,-3.2527,-3.3574,-3.4054,-3.3784,-3.4472,-3.4651,-3.4442,-3.4681,-3.4801,-3.4801,-3.4801,-3.4801,-3.4771,-3.4322,-3.4412,-3.4801,-3.4354,-3.4173,-3.4173,-3.3634,-3.3155,0.0,-3.2497,-3.2437,-3.2497,-3.2976,-3.3754,-3.4474,-3.4234,-3.4771,-3.5519,-3.5519,-3.5669,-3.5938,-3.6357,-3.6806,-3.7255,-3.7674,-3.8272,-3.8751,-3.8751,-3.911,-3.9619,-4.0277,-4.0726,-4.1235,-4.1931,-4.2551,-4.3,-4.3,-4.4287,-4.5304,-4.5304,-4.6441,-4.7309,-4.7309,-4.7309,-4.7309,0.0,0.0,0.0,-4.7309,-4.7309,-4.7309,-4.7309,-4.7309,-4.7309,-4.7309,-4.7309,-4.7309,-4.7309,-4.7309,-4.7309,-4.7309,-4.7309,-4.7309,-4.7309,-4.7309,-4.7309,-4.7309,-4.7309,-4.7309,-4.7309,-4.7309,-4.7309,-4.7309,-4.7309,-4.7309,-4.7309,-4.7309,-4.7309,-4.7309,0.0,0.0,-1.9708,0.0,0.0,0.0,0.0,0.0,0.0,0.0,0.0,0.0,0.0,0.0,0.0,0.0,0.0,0.0,-2.5285,-2.5555,-2.6991,-3.0073,-3.034,-3.0969,-3.2257,-3.3006,-3.3066,-3.2466,-3.3156,-3.3156,-3.2557,-3.3246,-3.3515,-3.3484,-3.3515,-3.3515,-3.3484,-3.3455,-3.4173,-3.525,-3.3933,-3.4143,-3.4981,-3.2407,-3.1421,-3.1331,-3.0702,-3.0462,-3.0702,-3.2018,-3.3335,-3.4354,-3.3784,-3.4472,-3.5519,-3.5549,-3.5998,-3.6507,-3.6567,-3.7464,-3.8392,-3.8422,-3.8931,-3.9373,-3.9373,-3.9343,-3.9559,-4.0157,-4.0337,-4.0546,0.0,0.0,-4.2351,-4.2381,-4.3988,-4.5244,-4.5304,-4.6441,-4.7309,0.0,0.0,0.0,0.0,0.0,0.0,-4.7309,0.0,-4.7309,-4.7309,-4.7309,-4.7309,-4.7309,-4.7309,-4.7309,-4.7309,-4.7309,-4.7309,-4.7309,-4.7309,-4.7309,-4.7309,-4.7309,-4.7309,-4.7309,-4.7309,-4.7309,-4.7309,-4.7339,-4.7369,-4.7369,-4.7399,-4.7399,-4.7399,-4.7399,-4.7399,-4.7399,0.0,0.0,0.0,0.0,0.0,0.0,0.0,0.0,0.0,0.0,0.0,0.0,0.0,0.0,0.0,0.0,0.0,0.0,-2.3362,-2.4807,-2.5764,-2.6099,-2.7854,-2.8971,-2.9353,-3.0803,-3.1761,-3.2129,-3.2949,-3.3267,-3.3115,-3.3783,-3.3879,-3.3515,-3.3909,-3.3879,-3.3455,-3.2976,-3.2946,-3.3215,-3.2348,-3.1928,-3.1719,-3.1031,-3.0492,-3.0043,-2.9894,-3.0103,-3.0642,-3.1451,-3.2647,-3.3903,-3.4741,-3.522,-3.5609,-3.6088,-3.6357,-3.6686,-3.7644,-3.8153,-3.8512,-3.902,-3.9254,-3.9373,-3.9373,-3.902,-3.8691,-3.8871,-3.932,-3.9738,-3.9888,0.0,0.0,-4.2321,-4.3599,0.0,-4.5214,-4.6441,0.0,-4.7309,-4.7309,-4.7309,-4.7309,-4.7309,0.0,0.0,-4.7309,-4.7309,-4.7309,-4.7309,-4.7309,-4.7309,-4.7309,-4.7309,-4.7309,-4.7309,-4.7309,-4.7309,-4.7309,-4.7309,-4.7309,-4.7309,-4.7309,-4.7309,-4.7309,-4.7309,-4.7339,-4.7848,-4.8027,-4.8087,-4.8566,-4.882,-4.882,-4.882,-4.882,-4.882,0.0,0.0,0.0,0.0,0.0,0.0,0.0,0.0,0.0,0.0,0.0,0.0,0.0,0.0,0.0,0.0,0.0,0.0,0.0,-2.3429,-2.4351,-2.4887,-2.6335,-2.7457,-2.8116,-2.9366,-3.0082,-3.02,-3.0969,-3.1243,-3.0964,-3.192,-3.2191,-3.1949,-3.2554,-3.257,-3.2065,-3.1702,-3.1741,0.0,0.0,-3.0342,-3.0372,-2.9235,-2.8577,-2.8334,-2.8633,-2.9475,-3.0642,-3.16,-3.2647,-3.3724,-3.507,-3.5699,-3.5998,-3.6387,-3.6896,-3.7554,-3.8571,-3.8841,-3.899,-3.9679,-3.9619,-3.9313,-3.905,-3.8661,-3.8302,-3.8033,-3.8272,-3.8542,-3.8542,-3.9619,-4.0726,0.0,0.0,0.0,-4.5155,-4.6202,-4.698,0.0,-4.7309,0.0,-4.7309,-4.7309,-4.7309,0.0,-4.7309,-4.7309,-4.7309,-4.7309,-4.7309,-4.7309,-4.7309,-4.7309,-4.7309,-4.7309,-4.7309,-4.7309,-4.7608,-4.7728,-4.7758,-4.8027,-4.8177,-4.8177,0.0,-4.8177,-4.8207,-4.8566,-4.876,-4.879,-4.9179,-4.9299,-4.9299,-4.9299,-4.9299,-4.9299,0.0,0.0,0.0,0.0,0.0,0.0,0.0,0.0,0.0,0.0,-2.0067,-1.9977,0.0,0.0,0.0,0.0,0.0,0.0,0.0,0.0,-2.2983,-2.4852,-2.53,-2.6104,-2.7397,-2.8167,-2.8306,-2.7822,-2.8523,-2.8541,-2.8027,-2.9288,-2.9864,-2.9823,-3.0518,-3.0579,-3.0099,-3.0099,-3.0491,-3.0908,-2.9135,-2.9049,-2.9714,0.0,-2.6452,-2.6596,-2.7315,-2.8873,-3.0702,-3.2078,-3.2946,-3.3724,-3.507,-3.5968,-3.6507,-3.6596,-3.7464,-3.8571,-3.9349,-3.9499,-3.9589,-4.0247,-3.9828,-3.911,-3.8512,-3.8272,-3.7973,-3.7404,-3.7285,-3.7285,-3.7285,-3.8302,-3.9409,-4.0157,-4.1833,-4.3529,-4.4975,-4.5843,-4.6561,-4.7219,-4.7309,-4.7309,-4.7309,-4.7309,-4.7309,-4.7309,-4.7309,-4.7309,-4.7309,-4.7309,-4.7309,-4.7309,-4.7309,-4.7309,-4.7309,-4.7399,-4.7429,-4.7429,-4.8087,-4.8416,-4.8446,-4.906,-4.9299,-4.9299,0.0,0.0,-4.9329,-4.9419,-4.9449,-4.9449,-4.9539,-4.9569,-4.9569,-4.9569,-4.9569,-4.9569,0.0,0.0,0.0,0.0,0.0,0.0,0.0,0.0,0.0,0.0,-2.1994,-2.1335,0.0,0.0,0.0,0.0,0.0,0.0,0.0,0.0,0.0,-2.3117,-2.357,-2.4223,-2.5064,-2.6143,-2.6902,-2.7399,-2.8262,-2.8575,-2.8501,-2.9325,-2.9485,-2.91,-2.9658,-2.963,-2.9147,-2.9147,-2.8983,-2.8692,-2.7795,-2.7364,-2.7171,-2.6153,0.0,0.0,-2.7165,-2.8873,-3.0702,-3.2078,-3.2946,-3.3724,-3.507,-3.5968,-3.6596,-3.7105,-3.7793,-3.8661,-3.9888,-3.9828,-3.9589,-4.0247,-3.9469,-3.8542,-3.8422,-3.7584,-3.6776,-3.6656,-3.6656,-3.6656,-3.6656,-3.7255,-3.8153,-3.9379,-4.0786,-4.2372,-4.4227,-4.5544,-4.6561,0.0,-4.7309,-4.7309,-4.7309,-4.7309,0.0,0.0,0.0,-4.7309,-4.7309,-4.7309,-4.7309,-4.7309,-4.7309,-4.7309,-4.7309,-4.7848,-4.8117,-4.8117,-4.882,-4.9149,-4.9149,-4.9269,-4.9299,-4.9299,-4.9299,0.0,-4.9359,-4.9853,-5.0016,-5.0076,-5.0661,-5.087,-5.087,-5.087,-5.087,-5.087,0.0,0.0,0.0,0.0,0.0,0.0,0.0,-2.5363,-2.6481,-2.6563,-2.6013,-2.4893,-2.2915,-2.2617,-2.215,0.0,0.0,0.0,0.0,0.0,0.0,-2.2509,-2.293,-2.3489,-2.421,-2.4793,0.0,0.0,0.0,-2.6787,-2.682,0.0,0.0,-2.8112,-2.8718,-2.8735,-2.821,-2.821,-2.7812,-2.7118,-2.6466,-2.594,-2.5495,0.0,0.0,0.0,-2.6333,-2.8038,-3.0223,-3.154,-3.2677,-3.3784,-3.5489,-3.6447,-3.7075,-3.7734,-3.8631,-3.9649,-4.0636,-4.0427,-4.0098,-4.0756,-3.9649,-3.8302,-3.7973,-3.7165,-3.6387,-3.6058,-3.5968,-3.5968,-3.5968,-3.6507,-3.7375,-3.8661,-4.0008,-4.1564,-4.3499,-4.4945,-4.6052,-4.6711,-4.71,-4.7309,-4.7309,-4.7309,-4.7309,0.0,0.0,-4.7309,-4.7309,-4.7309,-4.7309,-4.7309,-4.7638,-4.7818,-4.7818,-4.8476,-4.8805,-4.885,-4.9464,-4.9763,-4.9793,-5.0122,-5.0272,-5.0272,-5.0272,0.0,-5.0301,-5.0631,-5.0704,-5.0734,-5.1079,-5.1229,-5.1229,-5.1229,-5.1229,-5.1229,0.0,0.0,0.0,0.0,0.0,0.0,0.0,-2.7721,-2.8978,-2.9439,-2.9699,-2.86,-2.536,-2.482,-2.4038,0.0,0.0,0.0,0.0,0.0,0.0,0.0,0.0,0.0,0.0,0.0,0.0,0.0,0.0,0.0,0.0,0.0,0.0,0.0,0.0,0.0,-2.7302,-2.717,-2.6681,0.0,0.0,-2.4785,0.0,0.0,0.0,0.0,0.0,-2.741,-2.9953,-3.1092,-3.2497,-3.4023,-3.5908,-3.6896,-3.7494,-3.8033,-3.914,-4.0337,-4.0995,-4.0696,-4.0307,-4.0816,-3.9559,-3.8003,-3.7375,-3.6716,-3.6088,-3.5429,-3.528,-3.528,-3.528,-3.5699,-3.6537,-3.7943,-3.92,-4.0696,-4.2821,-4.4257,-4.5394,-4.619,-4.689,0.0,-4.7309,-4.7309,0.0,0.0,0.0,0.0,-4.7309,-4.7429,-4.7519,-4.7519,-4.8147,-4.8506,-4.8506,-4.9134,-4.9464,-4.9494,-5.0122,-5.0405,-5.0435,-5.0943,-5.1229,-5.1229,-5.1229,0.0,0.0,-5.1229,-5.1229,-5.1229,-5.1229,-5.1229,-5.1229,-5.1229,-5.1229,-5.1229,0.0,0.0,0.0,0.0,0.0,0.0,0.0,-2.9112,-3.0577,-3.0164,-3.1021,-3.1124,-2.9738,-2.7411,-2.5857,0.0,0.0,0.0,0.0,0.0,0.0,0.0,0.0,0.0,0.0,0.0,0.0,0.0,0.0,0.0,0.0,0.0,0.0,0.0,0.0,0.0,0.0,-2.5863,0.0,0.0,0.0,0.0,0.0,0.0,0.0,0.0,0.0,-2.7679,-3.0522,-3.1241,-3.2796,-3.4653,-3.6058,-3.6896,-3.7434,-3.7494,-3.8452,-3.9649,-4.0307,-4.0008,-3.9493,-3.9589,-3.8542,-3.7345,-3.6716,-3.6058,-3.54,-3.4711,-3.4593,-3.4593,-3.4593,-3.4653,-3.528,-3.7195,-3.8093,-3.9469,-4.2141,-4.3569,-4.4885,-4.613,0.0,0.0,-4.7309,-4.7309,0.0,0.0,0.0,0.0,-4.7339,-4.7878,-4.8207,-4.8207,-4.888,-4.9209,-4.9209,-4.9823,-5.0106,-5.0106,-5.0764,-5.1139,-5.1139,-5.1199,-5.1229,-5.1229,-5.1229,0.0,0.0,-5.1229,-5.1229,-5.1229,-5.1229,-5.1229,-5.1229,-5.1229,-5.1229,-5.1229,0.0,0.0,0.0,0.0,0.0,0.0,-2.9044,-3.1177,-3.2764,-3.2979,-3.3032,-3.3046,-3.3045,-3.0468,-2.8103,-2.6527,0.0,0.0,0.0,0.0,0.0,0.0,0.0,0.0,0.0,0.0,0.0,0.0,0.0,0.0,0.0,0.0,0.0,0.0,0.0,0.0,0.0,0.0,0.0,0.0,0.0,0.0,0.0,0.0,0.0,0.0,0.0,0.0,-2.9505,-3.0552,-3.1988,-3.3514,-3.4861,-3.6031,-3.6926,-3.7315,-3.8362,-3.9433,-3.9738,-3.9619,-3.9373,-3.9373,-3.8123,-3.6776,-3.6537,-3.5669,-3.4801,-3.4563,-3.4204,-3.3993,-3.4444,-3.4503,-3.5043,-3.6596,-3.7734,-3.905,-4.0905,-4.3,-4.4676,-4.5603,-4.6651,-4.7309,0.0,0.0,0.0,0.0,0.0,0.0,-4.8476,-4.8745,-4.891,-4.891,-4.9494,-4.9853,-4.9853,-5.0511,-5.0794,-5.084,-5.1079,-5.1229,-5.1229,-5.1229,-5.1229,-5.1229,-5.1229,0.0,0.0,-5.1229,-5.1229,-5.1229,-5.1229,-5.1229,-5.1229,-5.1229,-5.1229,-5.1229,0.0,0.0,0.0,0.0,0.0,-2.9893,-3.0423,-3.2199,-3.3723,-3.4485,-3.3723,-3.3547,-3.4532,-3.2155,-2.9778,-2.799,-2.6356,0.0,0.0,0.0,0.0,0.0,0.0,0.0,0.0,0.0,-2.4746,-2.4995,-2.5905,0.0,0.0,0.0,0.0,0.0,0.0,0.0,0.0,0.0,0.0,0.0,0.0,0.0,0.0,0.0,0.0,0.0,0.0,0.0,0.0,0.0,0.0,-3.2378,-3.3544,-3.4831,-3.6058,-3.6896,-3.7943,-3.8841,-3.8841,-3.8841,-3.8781,-3.8601,-3.7494,-3.6387,-3.6001,-3.5192,-3.4384,-3.3963,-3.3514,-3.3335,-3.3814,-3.4053,-3.4622,-3.5968,-3.7255,-3.8631,-4.0187,-4.2491,-4.4347,-4.5185,0.0,-4.7309,0.0,-4.7309,0.0,0.0,0.0,0.0,0.0,-4.9733,-4.9763,-4.9553,-5.0182,-5.0495,-5.0495,-5.0943,-5.1229,-5.1229,-5.1229,-5.1229,-5.1229,-5.1229,-5.1229,-5.1229,0.0,0.0,0.0,-5.1229,-5.1229,-5.1229,-5.1229,-5.1229,-5.1229,-5.1229,-5.1229,-5.1229,0.0,0.0,0.0,0.0,0.0,0.0,-3.0489,-3.1769,-3.2984,-3.369,-3.2531,-3.2221,-3.3839,-3.19,-3.0531,-3.0654,-2.7916,0.0,0.0,0.0,0.0,0.0,0.0,0.0,0.0,0.0,-2.6535,-2.7249,-2.8655,-2.9728,-3.0423,-3.0456,0.0,0.0,0.0,0.0,0.0,0.0,0.0,0.0,0.0,0.0,0.0,0.0,0.0,0.0,0.0,0.0,0.0,0.0,0.0,0.0,0.0,-3.3425,-3.4803,-3.6118,-3.6926,-3.7434,-3.7434,-3.7434,-3.7285,-3.6656,-3.6507,-3.6148,-3.4833,-3.4503,-3.4113,-3.2796,-3.2527,-3.2497,-3.2497,-3.3066,-3.3933,-3.528,-3.6596,-3.8123,-4.0127,-4.2064,-4.3838,0.0,-4.6471,-4.7309,-4.7309,0.0,0.0,0.0,0.0,0.0,0.0,-5.084,-5.09,-5.0196,-5.0823,-5.1199,-5.1199,-5.1229,-5.1229,-5.1229,-5.1229,-5.1229,-5.1229,-5.1229,-5.1229,0.0,0.0,0.0,0.0,-5.1229,-5.1229,-5.1229,-5.1229,-5.1229,-5.1229,-5.1229,-5.1229,-5.1229,0.0,0.0,0.0,0.0,0.0,0.0,0.0,-3.1868,-3.3547,-3.3756,-3.2961,-3.2752,-3.3759,-3.1857,-3.0311,-2.9855,-2.8063,0.0,0.0,0.0,0.0,0.0,0.0,0.0,0.0,0.0,-2.7315,-2.8044,-2.8508,-2.882,-2.9052,-2.9052,-2.8939,-2.8688,0.0,0.0,0.0,0.0,0.0,0.0,0.0,0.0,0.0,0.0,0.0,0.0,0.0,0.0,0.0,0.0,0.0,0.0,0.0,0.0,0.0,-3.4322,-3.5549,-3.6776,-3.6776,-3.6776,-3.6716,-3.6537,-3.6148,-3.5579,-3.4713,-3.4174,-3.3574,-3.2706,-3.2138,-3.1959,-3.2437,-3.3066,-3.3784,-3.4651,-3.6267,-3.7943,-3.9499,-4.1833,-4.3838,-4.5155,-4.6471,-4.7309,0.0,0.0,0.0,0.0,0.0,0.0,0.0,-5.1063,-5.1109,-5.0853,-5.1109,-5.1229,-5.1229,-5.1229,-5.1229,-5.1229,-5.1229,-5.1229,-5.1229,-5.1229,0.0,0.0,0.0,0.0,0.0,-5.1229,-5.1229,-5.1229,-5.1229,-5.1229,-5.1229,-5.1229,-5.1229,-5.1229,0.0,0.0,0.0,0.0,0.0,0.0,0.0,-3.1205,-3.2762,-3.3292,-3.2729,-3.2586,-3.336,-3.1956,-3.0543,-2.9576,-2.8395,0.0,0.0,0.0,0.0,0.0,0.0,0.0,-2.6601,-2.7348,-2.8475,-3.0033,-3.0299,-3.0862,-3.1669,-3.1669,-3.1392,-3.0829,-3.0265,-2.9296,0.0,0.0,0.0,0.0,0.0,0.0,-2.5291,0.0,0.0,0.0,0.0,0.0,0.0,0.0,0.0,0.0,0.0,0.0,0.0,0.0,-3.4173,-3.54,-3.5701,-3.5908,-3.6118,-3.6118,-3.5609,-3.4951,-3.4294,-3.3604,-3.2946,-3.2258,-3.178,-3.169,-3.2407,-3.3066,-3.3784,-3.4711,-3.6297,-3.7973,-3.9559,-4.1863,-4.4047,-4.5843,0.0,0.0,0.0,0.0,0.0,0.0,0.0,0.0,0.0,-5.1229,-5.1229,-5.1229,-5.1229,-5.1229,-5.1229,-5.1229,-5.1229,-5.1229,-5.1229,-5.1229,-5.1229,-5.1229,0.0,0.0,0.0,0.0,0.0,-5.1229,-5.1229,-5.1229,-5.1229,-5.1229,-5.1229,-5.1229,-5.1229,-5.1229,0.0,0.0,0.0,0.0,0.0,0.0,0.0,-2.9926,-3.0886,-3.2287,-3.1868,-3.1724,-3.2573,-3.19,-3.0829,-2.9543,0.0,0.0,0.0,0.0,0.0,0.0,0.0,0.0,-2.7415,-2.821,-3.0,-3.2785,-3.3547,-3.4916,-3.6936,-3.6936,-3.6208,-3.4849,-3.3415,-3.1934,-3.0357,0.0,0.0,0.0,-2.5556,-2.531,0.0,0.0,0.0,0.0,0.0,0.0,0.0,0.0,0.0,0.0,0.0,0.0,0.0,0.0,0.0,0.0,0.0,-3.4861,-3.5459,-3.5489,-3.5011,-3.4414,-3.3724,-3.3095,0.0,-3.178,-3.163,-3.1839,-3.2437,-3.3125,-3.3993,-3.528,-3.6626,-3.8182,-4.0187,-4.2252,-4.4456,-4.701,-4.7309,0.0,0.0,0.0,0.0,0.0,0.0,0.0,0.0,-5.1229,-5.1229,-5.1229,-5.1229,-5.1229,-5.1229,-5.1229,-5.1229,-5.1229,-5.1229,-5.1229,-5.1229,-5.1229,0.0,0.0,0.0,0.0,0.0,-5.1229,-5.1229,-5.1229,-5.1229,-5.1229,-5.1229,-5.1229,-5.1229,-5.1229,0.0,0.0,0.0,0.0,0.0,0.0,0.0,0.0,0.0,0.0,-3.0026,-3.0013,-3.022,-2.9569,-2.8807,0.0,0.0,0.0,0.0,0.0,0.0,0.0,0.0,0.0,-2.8887,-3.0179,-3.1735,-3.3524,-3.4286,-3.4916,-3.5413,-3.5413,-3.5214,-3.4849,-3.3955,-3.2398,-3.0357,-2.821,0.0,0.0,-2.6257,-2.5756,0.0,0.0,0.0,0.0,-2.7026,-2.7448,0.0,0.0,0.0,0.0,0.0,0.0,0.0,0.0,-3.1421,-3.2108,-3.2796,0.0,-3.4831,-3.537,-3.537,-3.507,0.0,-3.4144,-3.3814,-3.3155,-3.3036,-3.3095,-3.3245,-3.3814,-3.4563,-3.537,-3.6985,-3.8871,-4.0876,-4.3718,-4.601,-4.716,-4.7309,-4.7309,0.0,0.0,0.0,0.0,0.0,0.0,0.0,-5.1229,-5.1229,-5.1229,-5.1229,-5.1229,-5.1229,-5.1229,-5.1229,-5.1229,-5.1229,-5.1229,-5.1229,-5.1229,0.0,0.0,0.0,0.0,-5.1229,-5.1229,-5.1229,-5.1229,-5.1229,-5.1229,-5.1229,-5.1229,-5.1229,-5.1229,0.0,0.0,0.0,0.0,0.0,0.0,0.0,0.0,0.0,0.0,0.0,0.0,0.0,0.0,0.0,0.0,0.0,0.0,0.0,0.0,0.0,0.0,0.0,-2.8787,-2.9893,-3.1371,-3.316,-3.5313,-3.6042,-3.6771,-3.74,-3.74,-3.7069,-3.634,-3.4584,-3.2564,-3.039,-2.8575,-2.7613,-2.7197,-2.6253,0.0,0.0,0.0,0.0,0.0,-2.7349,-2.7674,0.0,-2.7585,-2.7854,-2.8188,0.0,0.0,0.0,0.0,-3.0761,-3.1241,-3.2228,-3.3484,-3.4593,-3.4951,-3.504,-3.4951,-3.4593,-3.4264,-3.3933,-3.3574,-3.3484,-3.3574,-3.3873,-3.4502,-3.537,-3.6626,-3.8212,-4.0217,-4.2821,-4.4975,-4.6561,-4.7219,-4.7578,0.0,0.0,0.0,0.0,0.0,0.0,0.0,0.0,-5.1229,-5.1229,-5.1229,-5.1229,-5.1229,-5.1229,-5.1229,-5.1229,-5.1229,-5.1229,-5.1229,-5.1229,-5.1229,-5.1229,0.0,0.0,0.0,-5.1229,-5.1229,-5.1229,-5.1229,-5.1229,-5.1229,-5.1229,-5.1229,-5.1229,-5.1229,0.0,0.0,0.0,0.0,0.0,0.0,0.0,0.0,0.0,0.0,0.0,0.0,0.0,0.0,0.0,0.0,0.0,0.0,0.0,0.0,0.0,0.0,0.0,-3.0059,-3.082,-3.2597,-3.4816,-3.7433,-3.8295,-3.9322,-4.0547,-4.0442,-3.9553,-3.7904,-3.5181,-3.2796,-3.0742,-2.9185,-2.8139,-2.7415,-2.6287,0.0,0.0,0.0,0.0,0.0,0.0,0.0,0.0,-2.771,-2.766,-2.773,-2.8351,0.0,0.0,0.0,0.0,0.0,-3.2018,-3.3335,-3.4384,-3.4474,-3.4503,-3.4533,-3.4653,-3.4203,-3.3814,-3.3814,-3.3814,-3.3993,-3.4683,-3.534,-3.6417,-3.8242,-3.9918,-4.2043,-4.5035,-4.6052,-4.6681,-4.7249,-4.7878,0.0,0.0,0.0,0.0,0.0,0.0,0.0,0.0,-5.1229,-5.1229,-5.1229,-5.1229,-5.1229,-5.1229,-5.1229,-5.1229,-5.1229,-5.1229,-5.1229,-5.1229,-5.1229,-5.1229,0.0,0.0,0.0,-5.1229,-5.1229,-5.1229,-5.1229,-5.1229,-5.1229,-5.1229,-5.1229,-5.1229,-5.1229,0.0,0.0,0.0,0.0,0.0,0.0,0.0,0.0,0.0,0.0,0.0,0.0,0.0,0.0,0.0,0.0,0.0,0.0,0.0,0.0,0.0,-2.998,-3.082,-3.1615,-3.2354,-3.5644,-3.7864,-3.895,-4.0282,-4.1044,-4.1243,-4.0647,-3.9255,-3.7201,-3.5479,-3.3856,-3.2232,-3.0145,-2.8964,-2.8419,-2.7591,0.0,0.0,0.0,0.0,0.0,0.0,0.0,0.0,-2.8167,-2.7929,-2.769,-2.8198,0.0,0.0,0.0,0.0,0.0,-3.1301,-3.2647,-3.3784,-3.4384,-3.4503,-3.4653,-3.522,-3.528,-3.519,-3.519,-3.519,-3.54,-3.6058,-3.6686,-3.7584,-3.902,-4.1773,-4.4287,0.0,0.0,-4.7189,-4.7309,0.0,0.0,0.0,0.0,0.0,0.0,0.0,0.0,0.0,-5.1229,-5.1229,-5.1229,-5.1229,-5.1229,-5.1229,-5.1229,-5.1229,-5.1229,-5.1229,-5.1229,-5.1229,-5.1229,-5.1229,0.0,0.0,-5.1229,-5.1229,-5.1229,-5.1229,-5.1229,-5.1229,-5.1229,-5.1229,-5.1229,-5.1229,-5.1229,0.0,0.0,0.0,0.0,0.0,0.0,0.0,0.0,0.0,0.0,0.0,0.0,0.0,0.0,0.0,0.0,0.0,0.0,0.0,0.0,0.0,-3.0456,-3.1967,-3.3127,-3.3856,-3.6738,-3.8758,-3.9912,-4.1309,-4.1976,-4.1943,-4.0878,-3.9421,-3.7606,-3.5744,-3.4087,-3.2553,-3.0344,-2.9296,-2.8972,0.0,0.0,0.0,0.0,0.0,0.0,0.0,0.0,0.0,0.0,-2.7953,-2.7978,-2.7929,0.0,0.0,0.0,0.0,0.0,-3.166,-3.2497,-3.3215,-3.4264,-3.4771,-3.513,-3.5429,-3.5789,-3.6028,-3.6028,-3.6297,-3.6746,-3.7404,-3.8063,-3.9254,-4.1683,-4.3928,-4.5723,-4.6711,-4.713,-4.7429,0.0,0.0,0.0,0.0,0.0,0.0,0.0,0.0,0.0,0.0,0.0,-5.1229,-5.1229,-5.1229,-5.1229,-5.1229,-5.1229,-5.1229,-5.1229,-5.1229,-5.1229,-5.1229,-5.1229,-5.1229,-5.1229,0.0,-5.1229,-5.1229,-5.1229,-5.1229,-5.1229,-5.1229,-5.1229,-5.1229,-5.1229,-5.1229,-5.1229,0.0,0.0,0.0,0.0,0.0,0.0,0.0,0.0,0.0,0.0,0.0,0.0,0.0,0.0,0.0,0.0,0.0,0.0,0.0,0.0,-2.9959,-3.1239,-3.2729,-3.4121,-3.5379,-3.7599,-3.9421,-4.0878,-4.2336,-4.2903,-4.2704,-4.1309,-3.9752,-3.8129,-3.6075,-3.4276,-3.2608,-3.0709,-2.9753,-2.9473,0.0,0.0,0.0,0.0,0.0,0.0,0.0,0.0,0.0,0.0,0.0,0.0,0.0,0.0,0.0,-2.9439,-3.0133,-3.1001,-3.2198,-3.2736,-3.3245,-3.4412,-3.513,-3.5549,-3.5699,-3.6237,-3.6746,-3.6896,-3.7315,-3.7943,-3.8901,-3.9888,-4.1466,-4.4317,-4.5663,-4.6518,-4.7219,-4.7429,0.0,0.0,0.0,0.0,0.0,0.0,0.0,0.0,0.0,0.0,0.0,0.0,-5.1229,-5.1229,-5.1229,-5.1229,-5.1229,-5.1229,-5.1229,-5.1229,-5.1229,-5.1229,-5.1229,-5.1229,-5.1229,-5.1229,-5.1229,-5.1229,-5.1229,-5.1229,-5.1229,-5.1229,-5.1229,-5.1229,-5.1229,-5.1229,-5.1229,-5.1229,0.0,0.0,0.0,0.0,0.0,0.0,0.0,0.0,0.0,0.0,0.0,0.0,0.0,0.0,0.0,0.0,0.0,0.0,0.0,0.0,-3.0642,-3.3425,-3.3083,-3.4087,-3.687,-3.909,-4.0912,-4.234,-4.3827,-4.4191,-4.3499,-4.2009,-4.0216,-3.8103,-3.6605,-3.4797,-3.2796,-3.1857,-3.0848,-2.9946,-2.9729,0.0,0.0,0.0,0.0,0.0,0.0,0.0,0.0,0.0,0.0,0.0,0.0,0.0,-2.9287,-2.9546,-3.0462,-3.157,-3.2288,-3.3395,-3.4533,-3.525,-3.5459,-3.5669,-3.6267,-3.6896,-3.7524,-3.8123,-3.8302,-3.8901,-4.0816,-4.2701,-4.4436,-4.5933,-4.6219,-4.6518,-4.7219,0.0,0.0,0.0,0.0,0.0,0.0,0.0,0.0,0.0,0.0,0.0,0.0,0.0,0.0,-5.1229,-5.1229,-5.1229,-5.1229,-5.1229,-5.1229,-5.1229,-5.1229,-5.1229,-5.1229,-5.1229,-5.1229,-5.1229,-5.1229,-5.1229,-5.1229,-5.1229,-5.1229,-5.1229,-5.1229,-5.1229,-5.1229,-5.1229,-5.1229,-5.1229,0.0,0.0,0.0,0.0,0.0,0.0,0.0,0.0,0.0,0.0,0.0,0.0,0.0,0.0,0.0,0.0,0.0,0.0,0.0,-3.0257,-3.1681,-3.369,-3.3524,-3.5006,-3.8361,-3.9282,-4.0613,-4.2506,-4.3529,-4.3863,-4.3565,-4.2075,-4.0746,-3.9454,-3.7069,-3.5304,-3.4024,-3.2332,-3.1384,-3.0947,-3.0422,-2.9987,0.0,0.0,0.0,0.0,0.0,0.0,0.0,0.0,-2.9325,-2.9157,-2.8717,-2.9237,-2.9889,-2.9636,-3.0791,-3.2258,-3.2946,-3.4113,-3.537,-3.6417,-3.7315,-3.7883,-3.7704,-3.8182,-3.896,-4.0038,-4.0613,-4.1362,-4.291,-4.4496,-4.5681,-4.619,-4.6681,-4.701,0.0,0.0,0.0,0.0,0.0,0.0,0.0,0.0,0.0,0.0,0.0,0.0,0.0,0.0,0.0,-5.1229,-5.1229,-5.1229,-5.1229,-5.1229,-5.1229,-5.1229,-5.1229,-5.1229,-5.1229,-5.1229,-5.1229,-5.1229,-5.1229,-5.1229,-5.1229,-5.1229,-5.1229,-5.1229,-5.1229,-5.1229,-5.1229,-5.1229,-5.1229,-5.1229,0.0,0.0,0.0,0.0,0.0,0.0,0.0,0.0,0.0,0.0,0.0,0.0,0.0,0.0,0.0,0.0,0.0,0.0,-2.9728,-3.0919,-3.2243,-3.3723,-3.3789,-3.5536,-3.9216,-3.9315,-4.0348,-4.2506,-4.3234,-4.3698,-4.3926,-4.2265,-4.1072,-4.0276,-3.7584,-3.5883,-3.4854,-3.3061,-3.2034,-3.1613,-3.1073,-3.0721,0.0,0.0,0.0,0.0,0.0,0.0,0.0,0.0,-2.9096,-2.9096,-2.8489,-2.9342,-3.0459,-3.0021,-3.1413,-3.3186,-3.3696,-3.4771,-3.6118,-3.7404,-3.8571,-3.9499,-3.9858,-4.0157,-4.0726,-4.2043,-4.3,-4.3898,-4.4796,-4.5873,-4.6621,0.0,-4.701,0.0,0.0,0.0,0.0,0.0,0.0,0.0,0.0,0.0,0.0,0.0,0.0,0.0,0.0,0.0,0.0,0.0,-5.1229,-5.1229,-5.1229,-5.1229,-5.1229,-5.1229,-5.1229,-5.1229,-5.1229,-5.1229,-5.1229,-5.1229,-5.1229,-5.1229,-5.1229,-5.1229,-5.1229,-5.1229,-5.1229,-5.1229,-5.1229,-5.1229,-5.1349,-5.1528,0.0,0.0,0.0,0.0,0.0,0.0,0.0,0.0,0.0,0.0,0.0,0.0,0.0,0.0,0.0,0.0,0.0,0.0,-3.0489,-3.1184,-3.2243,-3.3723,-3.3812,-3.5536,-3.9216,-3.9282,-4.0348,-4.2506,-4.3234,-4.3992,-4.4652,-4.2646,-4.125,-4.031,-3.8218,-3.6495,-3.5071,-3.419,-3.3028,-3.1786,-3.1658,-3.1151,-3.0489,0.0,0.0,0.0,0.0,0.0,0.0,0.0,-2.8404,-2.8046,-2.8239,-2.9581,-3.103,-3.0613,-3.2302,-3.4329,-3.448,-3.5492,-3.684,-3.8093,-3.8931,-4.0157,-4.2722,-4.2851,-4.277,-4.4077,-4.5394,-4.6279,-4.6279,-4.686,0.0,-4.7309,0.0,0.0,0.0,0.0,0.0,0.0,0.0,0.0,0.0,0.0,0.0,0.0,0.0,0.0,0.0,0.0,0.0,0.0,-5.1229,-5.1229,-5.1229,-5.1229,-5.1229,-5.1229,-5.1229,-5.1229,-5.1229,-5.1229,-5.1229,-5.1229,-5.1229,-5.1229,-5.1229,-5.1229,-5.1229,-5.1229,-5.1229,-5.1229,-5.1229,-5.1229,-5.1648,-5.2187,0.0,0.0,0.0,0.0,0.0,0.0,0.0,0.0,0.0,0.0,0.0,0.0,0.0,0.0,0.0,0.0,0.0,0.0,-3.0489,-3.1669,-3.2796,-3.3756,-3.4286,-3.5578,-3.7698,-3.8785,-4.0613,-4.3267,-4.3499,-4.3433,-4.3131,-4.2,-4.1072,-4.031,-3.8148,-3.692,-3.639,-3.4575,-3.3282,-3.2398,-3.1835,-3.1151,-3.0489,0.0,0.0,0.0,0.0,0.0,0.0,0.0,0.0,0.0,-2.8807,-2.9855,-3.0955,-3.0585,-3.233,-3.4481,-3.5052,-3.7235,-3.9387,-3.9727,-4.1412,-4.3313,-4.4438,-4.3838,-4.3539,-4.5364,-4.6411,-4.701,-4.701,-4.7189,0.0,0.0,0.0,0.0,0.0,0.0,0.0,0.0,0.0,0.0,0.0,0.0,0.0,0.0,0.0,0.0,0.0,0.0,0.0,0.0,-5.1229,-5.1229,-5.1229,-5.1229,-5.1229,-5.1229,-5.1229,-5.1229,-5.1229,-5.1229,-5.1229,-5.1229,-5.1229,-5.1229,-5.1229,-5.1229,-5.1229,-5.1229,-5.1229,-5.1229,-5.1289,-5.1738,-5.2037,-5.2276,0.0,0.0,0.0,0.0,0.0,0.0,0.0,0.0,-3.0489,-3.0489,-3.0489,-3.0489,0.0,0.0,0.0,-3.0489,-3.0489,-3.0489,-3.0489,-3.1603,-3.2597,-3.3348,-3.4054,-3.528,-3.7069,-3.8261,-3.9852,-4.1905,-4.244,-4.2535,-4.219,-4.1427,-4.0835,-4.031,-3.8114,-3.7153,-3.697,-3.5048,-3.3624,-3.2685,-3.2232,-3.1416,-3.0489,0.0,0.0,0.0,0.0,0.0,0.0,0.0,0.0,0.0,-2.832,-2.9754,-3.1318,-3.1,-3.2686,-3.49,-3.5688,-3.7945,-4.0304,-4.1102,-4.2884,-4.471,-4.55,-4.5304,-4.5203,-4.6471,-4.704,-4.7309,-4.7309,-4.7309,0.0,0.0,0.0,0.0,0.0,0.0,0.0,0.0,0.0,0.0,0.0,0.0,0.0,0.0,0.0,0.0,0.0,0.0,0.0,0.0,-5.1229,-5.1229,-5.1229,-5.1229,-5.1229,-5.1229,-5.1229,-5.1229,-5.1229,-5.1229,-5.1229,-5.1229,-5.1229,-5.1229,-5.1229,-5.1229,-5.1229,-5.1229,-5.1229,-5.1379,-5.1648,-5.2067,-5.2546,-5.3054,0.0,0.0,0.0,0.0,0.0,0.0,0.0,-3.0489,-3.0489,-3.0489,-3.0489,-3.0489,0.0,0.0,0.0,-3.0489,-3.0489,-3.0489,-3.0489,-3.1184,-3.1879,-3.2564,-3.3359,-3.475,-3.6771,-3.7599,-3.8328,-3.9043,-4.0547,-4.1365,-4.1472,-4.0873,-4.0452,-4.0111,-3.8151,-3.7195,-3.6903,-3.5512,-3.4078,-3.2718,-3.2718,-3.1802,-3.051,-3.0489,0.0,0.0,0.0,0.0,0.0,0.0,0.0,0.0,-2.7368,-2.9413,-3.1839,-3.1708,-3.3393,-3.5517,-3.6489,-3.8341,-4.0422,-4.2333,-4.3791,-4.5078,-4.613,-4.686,-4.7309,-4.7309,-4.7309,-4.7309,-4.7309,0.0,0.0,0.0,0.0,0.0,0.0,0.0,0.0,0.0,0.0,0.0,0.0,0.0,0.0,0.0,0.0,0.0,0.0,0.0,0.0,-5.1229,-5.1229,-5.1229,-5.1229,-5.1229,-5.1229,0.0,-5.1229,-5.1229,-5.1229,-5.1229,-5.1229,-5.1229,-5.1229,-5.1229,-5.1229,-5.1229,-5.1229,-5.1229,-5.1289,-5.1678,-5.2217,-5.2336,-5.3144,-5.4221,0.0,0.0,0.0,0.0,0.0,0.0,-3.0489,-3.0489,-3.0489,-3.0489,-3.0489,-3.0489,-3.0489,-3.0489,0.0,-3.0489,-3.0489,-3.0489,-3.0489,-3.1184,-3.1681,-3.1813,-3.3094,-3.4021,-3.4485,-3.581,-3.6589,-3.687,-3.9402,-4.0343,-3.9806,-4.0237,-3.9812,-3.8626,-3.7591,-3.6796,-3.6174,-3.528,-3.4101,-3.2862,-3.2741,-3.1867,-3.0667,-3.0531,-2.9715,0.0,0.0,0.0,0.0,0.0,0.0,0.0,-2.8051,-2.9595,-3.1291,-3.2458,-3.4324,-3.6369,-3.8246,-4.0702,-4.3002,-4.4,-4.559,-4.6956,-4.7074,-4.7219,-4.7309,-4.7309,-4.7309,-4.7309,0.0,0.0,0.0,0.0,0.0,0.0,0.0,0.0,0.0,0.0,0.0,0.0,0.0,0.0,0.0,0.0,0.0,0.0,0.0,0.0,0.0,-5.1229,-5.1229,-5.1229,-5.1229,-5.1229,-5.1229,0.0,-5.1229,-5.1229,-5.1229,-5.1229,-5.1229,-5.1229,-5.1229,-5.1229,-5.1229,-5.1229,-5.1229,-5.1259,-5.1798,-5.2067,-5.2336,-5.3384,-5.3952,-5.4281,0.0,0.0,0.0,0.0,0.0,0.0,0.0,0.0,-3.0489,-3.0489,-3.0489,-3.0489,-3.0489,-3.0489,0.0,0.0,-3.0489,-3.0489,-3.0489,-3.0853,-3.1217,-3.1581,-3.2663,-3.3282,-3.3282,-3.4352,-3.4996,-3.5034,-3.7219,-3.8314,-3.8358,-3.8678,-3.8394,-3.7665,-3.6903,-3.6373,-3.5943,-3.5286,-3.4346,-3.3316,-3.2918,-3.2121,-3.107,-3.0642,-2.9847,-2.8867,-2.8582,0.0,0.0,0.0,0.0,0.0,0.0,0.0,-3.09,-3.2285,-3.4136,-3.6249,-3.8358,-4.1042,-4.3709,-4.5635,-4.7377,-4.8397,-4.749,-4.7624,-4.7807,-4.7396,-4.7309,-4.7309,0.0,0.0,0.0,0.0,0.0,0.0,0.0,0.0,0.0,0.0,0.0,0.0,0.0,0.0,0.0,0.0,0.0,0.0,0.0,-5.1229,-5.1229,-5.1229,-5.1229,-5.1229,-5.1229,-5.1229,-5.1229,-5.1229,-5.1229,-5.1229,-5.1229,-5.1229,-5.1229,-5.1229,-5.1229,-5.1229,-5.1229,-5.1558,-5.1678,-5.1768,-5.2426,-5.2875,-5.3234,-5.3952,-5.4401,-5.473,0.0,0.0,0.0,0.0,0.0,0.0,0.0,0.0,0.0,-3.0489,-3.0489,-3.0489,-3.0489,-3.0489,-3.0489,0.0,0.0,0.0,-3.0489,-3.0489,-3.0754,-3.1383,-3.2133,-3.2497,-3.2497,-3.3226,-3.3657,-3.3789,-3.5148,-3.6224,-3.7103,-3.7086,-3.7036,-3.6903,-3.6406,-3.6042,-3.5826,-3.5433,-3.4768,-3.3991,-3.3461,-3.2741,-3.1934,-3.1305,-3.0522,-2.9761,-2.9628,-2.8754,-2.7613,-2.7381,0.0,0.0,0.0,0.0,-3.0563,-3.1885,-3.3751,-3.5857,-3.7897,-4.091,-4.4201,-4.7021,-4.8802,-4.9521,-4.8084,-4.8324,-4.8573,-4.7709,-4.7538,0.0,0.0,0.0,0.0,0.0,0.0,0.0,0.0,0.0,0.0,0.0,0.0,0.0,0.0,0.0,0.0,0.0,0.0,0.0,-5.1229,-5.1229,-5.1229,-5.1229,-5.1229,-5.1229,-5.1229,-5.1229,-5.1229,-5.1229,-5.1229,-5.1229,-5.1229,-5.1229,-5.1229,-5.1229,-5.1229,-5.1289,-5.1439,-5.1977,-5.2276,-5.2426,-5.3084,-5.383,-5.4439,-5.4391,-5.48,-5.5431,0.0,0.0,0.0,0.0,0.0,0.0,0.0,0.0,0.0,0.0,-3.0489,-3.0489,-3.0489,-3.0489,-3.0489,-3.0489,-3.0489,-3.0489,-3.0489,0.0,0.0,-3.0654,-3.135,-3.1747,-3.1747,-3.2464,-3.3183,-3.3789,-3.4618,-3.5413,-3.6199,-3.6804,-3.6771,-3.6174,-3.6704,-3.629,-3.5248,-3.5684,-3.5557,-3.4964,-3.4735,-3.4257,-3.3638,-3.3437,-3.2497,-3.1217,-3.0588,-2.9827,-2.892,-2.7713,-2.7282,0.0,0.0,0.0,-2.9988,-3.2214,-3.4309,-3.6298,-3.8106,-4.2137,-4.6238,-4.7792,-4.9238,-5.0139,-4.9804,-4.9686,-4.9407,0.0,0.0,0.0,0.0,0.0,0.0,0.0,0.0,0.0,0.0,0.0,0.0,0.0,0.0,0.0,0.0,0.0,0.0,0.0,0.0,0.0,-5.1229,-5.1229,-5.1229,-5.1229,-5.1229,-5.1229,-5.1229,-5.1229,-5.1229,-5.1229,-5.1229,-5.1229,-5.1229,-5.1229,-5.1229,-5.1229,-5.1229,-5.1528,-5.2067,-5.2157,-5.2546,-5.3114,-5.3803,-5.4661,-5.5429,-5.517,-5.5659,-5.6329,0.0,0.0,0.0,0.0,0.0,0.0,0.0,0.0,0.0,0.0,0.0,-3.0489,-3.0489,-3.0489,-3.0489,-3.0489,-3.0489,-3.0489,-3.0489,-3.0489,-3.0489,-3.0489,-3.082,-3.0986,-3.0986,-3.1714,-3.2431,-3.316,-3.3922,-3.4849,-3.6009,-3.634,-3.6589,-3.6729,-3.6564,-3.6182,-3.5728,-3.5557,-3.53,-3.5015,-3.4662,-3.4295,-3.3972,-3.3584,-3.3017,-3.2417,-3.2083,-3.142,-3.0572,-2.9235,-2.8489,-2.8134,-2.8461,0.0,0.0,0.0,-3.3601,-3.5632,-3.8548,-4.2177,-4.5332,-4.6313,-4.7884,-4.9286,-4.9432,-5.0103,-5.0306,-4.8872,0.0,0.0,0.0,0.0,0.0,0.0,0.0,0.0,0.0,0.0,0.0,0.0,0.0,0.0,0.0,0.0,0.0,0.0,0.0,-5.1229,-5.1229,-5.1229,-5.1229,-5.1229,-5.1229,-5.1229,-5.1229,-5.1229,-5.1229,-5.1229,-5.1229,-5.1229,-5.1229,-5.1588,-5.1768,-5.1768,-5.1768,-5.2127,-5.2785,-5.3174,-5.3503,-5.3882,-5.5073,-5.5804,-5.6238,-5.6659,-5.6735,-5.6541,0.0,0.0,0.0,0.0,0.0,0.0,0.0,0.0,0.0,0.0,0.0,-3.0489,-3.0489,0.0,0.0,0.0,-3.0489,-3.0489,-3.0489,-3.0323,-3.0224,-3.0224,-3.0059,-3.0046,-3.0224,-3.0754,-3.1482,-3.2431,-3.3211,-3.4334,-3.5744,-3.6175,-3.6812,-3.7561,-3.6879,-3.6414,-3.6161,-3.578,-3.5466,-3.5267,-3.5065,-3.4954,-3.4841,-3.4621,-3.4376,-3.4175,-3.403,-3.3528,-3.274,-3.1232,-3.0184,-2.9456,-2.9219,-2.9118,0.0,0.0,0.0,-3.5011,-3.8539,-4.1412,-4.369,-4.4952,-4.6768,-4.8453,-4.9305,0.0,-5.1029,0.0,0.0,0.0,0.0,0.0,0.0,0.0,0.0,0.0,0.0,0.0,0.0,0.0,0.0,0.0,0.0,0.0,0.0,0.0,0.0,-5.1229,-5.1229,-5.1229,-5.1229,-5.1229,-5.1229,-5.1229,-5.1229,-5.1229,-5.1229,-5.1229,-5.1379,-5.1468,-5.1498,-5.2157,-5.269,-5.3097,-5.2916,-5.3248,-5.3881,-5.4607,-5.5038,-5.5317,-5.6519,-5.7134,-5.7418,-5.79,-5.7792,-5.7323,0.0,0.0,0.0,0.0,0.0,0.0,0.0,0.0,0.0,0.0,0.0,-3.0489,-3.0489,-3.0489,-3.0489,-3.0489,-3.0489,-3.0489,-3.0489,-2.9827,-2.9463,-2.9463,-2.8853,0.0,-2.943,-2.9496,-3.0224,-3.1648,-3.2588,-3.3713,-3.4982,-3.6652,-3.7768,-3.8335,-3.8148,-3.7385,-3.6213,-3.6754,-3.6754,-3.6348,-3.691,-3.7202,-3.7401,-3.807,-3.7869,-3.719,-3.6487,-3.6185,-3.5827,-3.3517,-3.2274,-3.1465,-3.0675,-2.9939,-2.956,0.0,0.0,0.0,-3.7742,-3.9785,-4.1849,-4.4774,-4.6562,-4.8209,-5.0389,0.0,0.0,0.0,0.0,0.0,0.0,0.0,0.0,0.0,0.0,0.0,0.0,0.0,0.0,0.0,0.0,0.0,0.0,0.0,0.0,0.0,0.0,-5.1229,-5.1229,-5.1229,-5.1229,-5.1229,-5.1229,-5.1229,-5.1229,-5.1229,-5.1229,-5.1229,-5.1858,-5.2157,-5.2187,-5.2815,-5.4026,-5.5499,-5.4853,-5.4976,-5.5639,-5.6572,-5.7316,-5.7915,-5.7993,-5.8619,-5.9323,-5.8437,-5.8664,-5.9323,0.0,0.0,0.0,0.0,0.0,0.0,0.0,0.0,0.0,0.0,0.0,0.0,0.0,-3.1217,-3.1019,-3.0555,-3.0489,-3.0489,-3.0489,-2.9794,-2.9397,-2.9397,-2.8754,-2.8392,-2.831,-2.8727,-2.9318,-3.0048,-3.114,-3.2222,-3.3388,-3.5079,-3.6313,-3.7202,-3.7989,-3.7573,-3.6361,-3.6962,-3.6588,-3.5686,-3.7019,-3.7818,-3.8263,-3.8706,-3.8991,-3.9126,-3.8848,-3.8394,-3.7666,-3.6071,-3.4603,-3.3228,0.0,0.0,0.0,-3.1243,-3.2784,-3.4452,-3.544,-3.7557,-4.0056,-4.2214,-4.4537,-4.6993,-4.9616,-5.1061,-5.1622,0.0,0.0,0.0,0.0,0.0,0.0,0.0,0.0,0.0,0.0,0.0,0.0,0.0,0.0,0.0,0.0,0.0,0.0,0.0,0.0,0.0,-5.1229,-5.1229,-5.1229,-5.1229,-5.1229,-5.1229,-5.1229,-5.1648,-5.1858,-5.1858,-5.2516,-5.32,-5.3863,-5.4535,-5.5454,-5.6649,-5.7476,-5.7607,-5.7276,-5.76,-5.7864,-5.8177,-5.8799,-5.9278,-5.9631,-5.9925,-5.9838,-5.9543,0.0,0.0,0.0,0.0,0.0,0.0,0.0,0.0,-3.2718,-3.2718,0.0,0.0,0.0,0.0,-3.1648,-3.0919,-3.0654,-3.0489,-3.0489,-2.9615,-2.9052,-2.9052,-2.8158,-2.7613,-2.7591,-2.8009,-2.8603,-2.9329,-3.0105,-3.1121,-3.2311,-3.3669,-3.4955,-3.609,-3.7494,-3.7576,-3.673,-3.7359,-3.6795,-3.5694,-3.7603,-3.8799,-3.9453,-3.9923,-4.0751,0.0,0.0,0.0,0.0,0.0,0.0,0.0,0.0,0.0,0.0,-3.1853,-3.2971,-3.4196,-3.4197,-3.6247,-3.8751,-4.0337,-4.2841,-4.5554,-4.8166,0.0,0.0,0.0,0.0,0.0,0.0,0.0,0.0,0.0,0.0,0.0,0.0,0.0,0.0,0.0,0.0,0.0,0.0,0.0,0.0,0.0,0.0,0.0,-5.1229,-5.1323,-5.1339,-5.1339,-5.1339,-5.1413,-5.1558,-5.2279,-5.2799,-5.3041,-5.4057,-5.4851,-5.5533,-5.6218,-5.7009,-5.7994,-5.9129,-5.9234,-5.8619,-5.8979,-5.9145,-5.9189,-5.9838,-6.013,-6.0173,-6.0877,-6.0675,-6.013,0.0,0.0,0.0,0.0,0.0,0.0,0.0,0.0,-3.2785,-3.2785,0.0,0.0,0.0,0.0,0.0,-3.1648,-3.0952,-3.0522,-3.0489,-2.9185,-2.8409,-2.8409,-2.6998,-2.6568,-2.723,-2.7263,-2.7997,-2.9523,-2.9619,-3.0392,-3.1765,-3.2676,-3.3806,-3.5105,-3.6692,-3.7336,-3.7278,-3.7949,-3.756,-3.6649,-3.8874,-4.0318,-4.1237,-4.2119,0.0,0.0,-4.3872,-4.3551,0.0,-4.1714,0.0,0.0,0.0,0.0,0.0,0.0,-3.3048,-3.4186,0.0,0.0,0.0,-3.9514,-4.1606,-4.3916,-4.6244,0.0,0.0,0.0,0.0,0.0,0.0,0.0,0.0,0.0,0.0,0.0,0.0,0.0,0.0,0.0,0.0,0.0,0.0,0.0,0.0,0.0,0.0,-5.1229,-5.1229,-5.1479,-5.1665,-5.1711,-5.1695,-5.1904,-5.2282,-5.3315,-5.416,-5.4808,-5.635,-5.715,-5.7195,-5.7846,-5.8709,-5.9631,-5.9631,-5.9631,-5.9751,-6.0675,-6.1119,-6.1119,-6.1119,-6.1119,-6.1119,-6.1119,-6.1119,-6.1119,0.0,0.0,0.0,0.0,0.0,-3.4122,-3.4263,-3.4286,-3.4286,0.0,0.0,0.0,-3.3524,-3.3017,-3.2398,-3.1648,-3.1416,-3.1085,-3.0522,-2.9648,-2.892,-2.8409,-2.7514,-2.6689,-2.5999,-2.6463,-2.7041,-2.7719,-2.8554,-2.9351,-3.0085,-3.107,-3.2135,-3.33,-3.5112,-3.5877,-3.5923,-3.8271,-3.8771,-3.8196,-4.0501,-4.2494,0.0,0.0,0.0,0.0,0.0,-4.7113,-4.6486,0.0,-4.3799,-4.1352,0.0,0.0,0.0,0.0,-3.3356,-3.4096,-3.4164,0.0,0.0,0.0,0.0,0.0,0.0,0.0,0.0,0.0,0.0,0.0,0.0,0.0,0.0,0.0,0.0,0.0,0.0,0.0,0.0,0.0,0.0,0.0,0.0,0.0,0.0,0.0,-5.2139,-5.1711,-5.2185,-5.2426,-5.29,-5.3742,-5.4147,-5.4405,-5.4504,-5.5597,-5.6238,-5.6427,-5.7393,-5.8165,-5.89,-5.9093,-5.9751,-6.0675,-6.0675,-6.0675,-6.0717,-6.0961,-6.1119,-6.1119,-6.1119,-6.1119,-6.1119,-6.1119,-6.1119,-6.1119,0.0,0.0,-3.3616,-3.3866,-3.4274,-3.4643,-3.4859,-3.5148,-3.5346,0.0,0.0,0.0,-3.5214,-3.422,-3.3425,-3.3027,-3.2409,-3.1649,-3.0729,-3.0153,-2.9387,-2.8298,-2.7467,-2.6567,-2.5702,-2.5778,-2.6094,-2.6651,-2.7439,-2.8315,-2.9286,-3.0,-3.1045,-3.2376,-3.4409,-3.547,-3.5964,-3.8589,-3.9268,0.0,-4.1485,0.0,0.0,-4.6868,-4.8366,0.0,0.0,0.0,-4.8714,-4.797,-4.5747,0.0,0.0,0.0,0.0,0.0,-3.4582,-3.5048,-3.4477,-3.5373,-3.676,-3.8082,0.0,0.0,0.0,0.0,0.0,0.0,0.0,0.0,0.0,0.0,0.0,0.0,0.0,0.0,0.0,0.0,0.0,0.0,0.0,0.0,0.0,0.0,0.0,-5.4105,-5.2976,-5.2516,-5.2976,-5.3064,-5.3726,-5.5162,-5.5537,-5.5879,-5.6268,-5.7329,-5.7961,-5.8147,-5.8964,-5.9663,-6.0216,-6.0216,-6.0548,-6.1119,-6.1119,-6.1119,-6.1119,-6.1119,-6.1119,-6.1119,-6.1119,-6.1119,-6.1119,-6.1119,-6.1119,-6.1119,0.0,0.0,-3.3475,-3.4025,-3.4115,-3.4248,-3.4741,-3.5515,-3.6067,0.0,-3.682,-3.7334,-3.7334,-3.6108,-3.5214,-3.5148,-3.3789,-3.244,-3.129,-3.0838,-2.9901,-2.8335,-2.732,-2.6554,-2.6068,-2.537,-2.5468,-2.633,-2.6568,-2.7539,-2.9169,-2.9503,-3.0429,-3.1997,-3.4184,-3.5613,-3.6485,-3.874,0.0,-3.926,-4.2145,-4.4759,0.0,0.0,-4.9655,-5.1492,-5.0827,-5.0626,-5.0439,-4.956,-4.6887,0.0,0.0,0.0,0.0,0.0,-3.6399,-3.6603,-3.525,-3.5859,-3.7077,-3.7855,0.0,0.0,0.0,0.0,0.0,0.0,0.0,0.0,0.0,0.0,0.0,0.0,0.0,0.0,0.0,0.0,0.0,0.0,0.0,0.0,0.0,0.0,-5.4304,-5.4451,-5.3913,-5.3644,-5.3902,-5.375,-5.457,-5.639,-5.6552,-5.7022,-5.7877,-5.8722,-5.9369,-5.9838,-6.0675,-6.1119,-6.1119,-6.1119,-6.1119,-6.1119,-6.1119,-6.1119,-6.1119,-6.1119,-6.1119,-6.1119,-6.1119,-6.1119,-6.1119,-6.1119,-6.1119,-6.1119,-3.3572,-3.3744,-3.3942,-3.4075,-3.4142,-3.4202,-3.4308,-3.5391,-3.6354,-3.6907,-3.807,-3.8884,-3.8884,-3.8063,-3.7334,-3.6738,-3.5313,-3.413,-3.3278,-3.2067,-3.0967,-3.0039,-2.8761,-2.7726,-2.7038,-2.6297,-2.6352,-2.7156,-2.7212,-2.8068,-2.9596,-2.9753,-3.0306,-3.1267,-3.3494,-3.4603,-3.4981,-3.8335,0.0,-4.1567,-4.3351,0.0,-4.8531,-4.998,-5.1931,-5.3923,-5.3787,-5.372,-5.3416,-5.1454,-4.9089,-4.6634,0.0,0.0,0.0,-3.8757,0.0,-3.7499,-3.729,-3.7378,-3.7735,0.0,0.0,0.0,0.0,0.0,0.0,0.0,0.0,0.0,0.0,0.0,0.0,0.0,0.0,0.0,0.0,0.0,0.0,0.0,0.0,0.0,0.0,0.0,-5.4202,-5.549,-5.531,-5.5288,-5.5658,-5.6116,-5.7026,-5.8399,-5.9421,-6.0071,-6.0218,-6.0695,-6.097,-6.102,-6.1086,-6.1119,-6.1119,-6.1119,-6.1119,-6.1119,-6.1119,-6.1119,-6.1119,-6.1119,-6.1119,-6.1119,-6.1119,-6.1119,-6.1119,-6.1119,-6.1119,-6.1119,-3.3245,-3.3688,-3.4101,-3.4101,-3.4658,-3.524,-3.5596,-3.6858,-3.8005,-3.8701,-3.9721,-4.0481,-4.0845,-3.9951,-3.9288,-3.9255,-3.793,-3.653,-3.5161,-3.4244,-3.3087,-3.1491,-2.9935,-2.8866,-2.8281,-2.719,-2.6659,-2.6685,-2.691,-2.7627,-2.8853,-2.8915,-2.9877,-3.1631,-3.3214,-3.4504,-3.562,-3.8594,-4.0963,-4.2888,-4.4778,0.0,-4.9634,-5.1151,-5.2942,-5.46,-5.46,-5.46,-5.4363,-5.2875,-5.1083,0.0,0.0,-4.4908,-4.305,0.0,-3.9729,-3.8731,0.0,0.0,0.0,-3.8605,0.0,0.0,0.0,0.0,0.0,0.0,0.0,0.0,0.0,0.0,0.0,0.0,0.0,0.0,0.0,0.0,0.0,0.0,0.0,0.0,0.0,0.0,-5.4792,-5.5634,-5.5474,-5.5647,-5.6354,-5.6922,-5.7951,-5.9502,-6.0541,-6.1239,-6.1458,-6.1508,-6.1506,-6.1383,-6.121,-6.1119,-6.1119,-6.1119,-6.1119,-6.1119,-6.1119,-6.1119,-6.1119,-6.1119,-6.1119,-6.1119,-6.1119,-6.1119,-6.1119,-6.1119,-6.1119,-6.1119,-3.2355,-3.314,-3.3854,-3.4085,-3.5006,-3.6044,-3.7032,-3.8405,-3.9714,-4.088,-4.1621,-4.2369,-4.3234,-4.1967,-4.1399,-4.2228,-4.0763,-3.9102,-3.7458,-3.6653,-3.5235,-3.2921,-3.1186,-2.9951,-2.9312,-2.7929,-2.6883,-2.6129,-2.639,-2.7003,-2.7977,-2.8141,-2.9661,-3.2337,-3.3458,-3.5101,-3.7205,-3.9412,0.0,-4.422,0.0,-4.8511,-5.027,-5.1894,-5.3484,-5.4837,-5.4972,-5.5006,-5.4905,-5.416,0.0,-5.1319,-4.939,-4.7665,0.0,0.0,0.0,0.0,0.0,0.0,0.0,0.0,0.0,-3.9352,0.0,0.0,0.0,0.0,0.0,0.0,0.0,0.0,0.0,0.0,0.0,0.0,0.0,0.0,0.0,0.0,0.0,0.0,0.0,0.0,-5.5219,-5.5244,-5.5322,-5.5752,-5.6573,-5.7415,-5.8525,-6.0042,-6.1028,-6.1694,-6.2076,-6.187,-6.1669,-6.1465,-6.1252,-6.1161,-6.1119,-6.1119,-6.1119,-6.1119,-6.1119,-6.1119,-6.1119,-6.1119,-6.1119,-6.1119,-6.1119,-6.1119,-6.1119,-6.1119,-6.1119,-6.1119,-3.2272,-3.2492,-3.2952,-3.4089,-3.445,-3.5245,-3.7147,-3.8575,-4.0352,-4.2972,-4.3922,-4.4854,-4.6245,-4.4673,-4.4031,-4.5463,-4.3146,0.0,-4.1111,-3.8609,-3.6447,-3.4859,-3.2789,-3.1043,-2.9661,-2.8427,-2.7445,-2.6717,-2.629,-2.6703,-2.7943,-2.8665,-3.0402,-3.3036,-3.4526,-3.6497,-3.8888,-4.11,-4.3714,0.0,-4.8815,-4.9864,0.0,-5.2536,-5.4296,-5.5683,-5.6325,-5.6562,-5.6427,0.0,-5.4465,-5.3078,0.0,-5.0338,-4.8308,-4.6752,0.0,0.0,0.0,0.0,0.0,0.0,-4.0434,0.0,0.0,0.0,0.0,-4.0214,0.0,0.0,0.0,0.0,0.0,0.0,0.0,0.0,0.0,0.0,0.0,0.0,0.0,0.0,0.0,0.0,0.0,-5.4453,-5.5593,-5.6438,-5.6757,-5.8526,-5.9708,-6.008,-6.1501,-6.2313,-6.2341,-6.211,-6.1837,-6.1669,-6.1465,-6.1293,-6.1119,-6.1119,-6.1119,-6.1119,-6.1119,-6.1119,-6.1119,-6.1119,-6.1119,-6.1119,-6.1119,-6.1119,-6.1119,-6.1119,-6.1119,-6.1119,-3.1824,-3.2163,-3.2681,-3.364,-3.4722,-3.6084,-3.7766,-3.9503,-4.1627,-4.4494,-4.4789,-4.5634,-4.7935,-4.7038,-4.6734,-4.7926,0.0,-4.4286,0.0,0.0,-3.9395,-3.8315,-3.5736,-3.3839,-3.2856,-3.1436,-3.0152,-2.9072,-2.8837,-2.8812,-2.9019,-2.9938,-3.134,-3.3182,-3.534,-3.7502,-3.9691,-4.2467,-4.5105,0.0,0.0,0.0,0.0,-5.3619,-5.531,-5.707,-5.7814,-5.7814,-5.734,0.0,-5.5649,0.0,0.0,0.0,0.0,0.0,0.0,0.0,0.0,0.0,0.0,0.0,0.0,0.0,-4.0087,0.0,-4.0113,0.0,0.0,0.0,0.0,0.0,0.0,0.0,0.0,0.0,0.0,0.0,0.0,0.0,0.0,0.0,0.0,0.0,0.0,0.0,0.0,-5.5815,-5.6765,-5.8417,-5.9599,-6.008,-6.1603,-6.2381,-6.2381,-6.2116,-6.1877,-6.1709,-6.1506,-6.1342,-6.1293,-6.1127,-6.1169,-6.1293,-6.1127,-6.1119,-6.1119,-6.1119,-6.1119,-6.1119,-6.1119,-6.1119,-6.1119,-6.1119,-6.1119,-6.1119,-3.1511,-3.1853,-3.2463,-3.3493,-3.5009,-3.677,-3.8904,-4.1181,-4.3451,-4.569,-4.5791,-4.6646,-4.9391,-4.8962,0.0,0.0,-4.8254,-4.7147,0.0,0.0,-4.2394,-4.1095,-3.8421,0.0,-3.4939,-3.3594,-3.2171,-3.0816,-3.0476,-3.024,-3.0128,-3.0728,-3.2078,-3.4119,-3.6237,-3.8563,-4.1047,-4.3984,-4.6481,-4.8714,-5.0947,-5.301,-5.4769,-5.5277,-5.663,-5.8287,-5.9032,-5.8964,-5.8423,-5.7881,-5.707,0.0,-5.504,0.0,0.0,0.0,0.0,0.0,-4.775,0.0,0.0,0.0,0.0,0.0,0.0,0.0,0.0,0.0,0.0,0.0,0.0,0.0,0.0,0.0,0.0,0.0,0.0,0.0,0.0,0.0,0.0,0.0,0.0,0.0,0.0,0.0,0.0,0.0,-5.6427,-5.7915,-5.9133,-6.008,-6.14,-6.2178,-6.2381,-6.2189,-6.203,-6.179,-6.1628,-6.1547,-6.1465,-6.1334,-6.1334,-6.1383,-6.1252,-6.1127,-6.1119,-6.1119,-6.1119,-6.1119,-6.1119,-6.1119,-6.1119,-6.1119,-6.1119,-6.1119,-3.1511,-3.1511,-3.2132,-3.4048,-3.4966,-3.6785,-4.0698,-4.3676,-4.5787,0.0,0.0,0.0,0.0,0.0,0.0,0.0,0.0,-4.9936,-4.9777,0.0,-4.4927,-4.2265,-4.0377,-3.7838,0.0,-3.3657,-3.2558,-3.1082,-2.9855,-2.9836,-3.0945,-3.0392,-3.232,-3.6319,-3.7254,-3.9792,-4.3443,-4.5737,-4.8003,-5.0236,-5.2503,-5.5175,-5.7746,0.0,-5.8287,-5.9066,-5.981,0.0,0.0,-6.0013,-5.9032,0.0,0.0,0.0,0.0,0.0,0.0,0.0,0.0,0.0,0.0,-4.665,0.0,0.0,0.0,0.0,-4.117,0.0,0.0,0.0,0.0,0.0,0.0,0.0,0.0,0.0,0.0,0.0,0.0,0.0,0.0,0.0,0.0,0.0,0.0,0.0,0.0,0.0,-5.5716,-5.7137,-5.8592,-6.0047,-6.0892,-6.167,-6.2381,-6.2381,-6.2229,-6.1997,-6.1997,-6.1877,-6.1669,-6.1669,-6.1588,-6.1383,-6.1383,-6.1293,-6.1119,-6.1119,-6.1119,-6.1119,-6.1119,-6.1119,-6.1119,-6.1119,-6.1119,-6.1119,-3.16,-3.1869,-3.2496,-3.3608,-3.4726,-3.6982,-4.1465,-4.2622,0.0,0.0,0.0,0.0,0.0,-5.2733,-5.2972,0.0,0.0,-5.2135,-5.2101,-4.9949,0.0,0.0,0.0,-4.227,0.0,0.0,0.0,-3.3878,-3.3362,-3.2606,-3.1681,-3.2879,-3.4134,-3.5547,-3.8439,-4.1318,-4.413,0.0,0.0,0.0,0.0,-5.7002,-5.7949,0.0,0.0,-6.0554,-6.0791,-6.0892,0.0,-6.0283,-5.9776,-5.9201,-5.8186,-5.7374,-5.6528,-5.5344,-5.46,0.0,0.0,0.0,-5.0101,-4.8612,0.0,0.0,0.0,0.0,0.0,0.0,0.0,0.0,0.0,0.0,0.0,0.0,0.0,0.0,0.0,0.0,0.0,0.0,0.0,0.0,0.0,0.0,0.0,0.0,0.0,0.0,0.0,-5.6359,-5.7611,-5.8592,-6.0351,-6.1434,-6.167,-6.2144,-6.2302,-6.1997,-6.1997,-6.1957,-6.1877,-6.175,-6.175,-6.1756,-6.1506,-6.1342,-6.1293,-6.1127,-6.1119,-6.1119,-6.1252,-6.121,-6.1119,-6.1119,-6.1119,-6.1119,-3.2288,-3.2587,-3.3006,-3.3425,-3.5384,-3.8196,-4.1955,0.0,0.0,0.0,-5.0246,0.0,-5.3737,0.0,-5.4755,0.0,-5.4595,-5.409,-5.409,-5.2202,0.0,-4.9706,-4.7567,0.0,0.0,0.0,0.0,0.0,0.0,-3.4736,-3.3448,-3.4263,-3.5058,-3.598,-3.9317,-4.2265,-4.4933,-4.8078,-5.098,0.0,0.0,-5.8389,0.0,0.0,-6.0452,-6.1332,0.0,-6.167,-6.1603,-6.1095,-6.0757,-6.0351,-5.9404,-5.8727,-5.8118,-5.7171,-5.6528,-5.5886,-5.4938,-5.3721,0.0,-5.098,-4.9289,0.0,-4.7361,0.0,0.0,0.0,0.0,0.0,0.0,0.0,0.0,0.0,0.0,0.0,0.0,-3.6795,0.0,0.0,0.0,0.0,0.0,0.0,0.0,0.0,0.0,0.0,0.0,0.0,-5.6867,-5.7848,-5.9844,-6.1028,-6.1298,-6.2009,-6.2341,-6.215,-6.215,-6.215,-6.215,-6.1991,-6.1991,-6.1997,-6.1669,-6.1465,-6.1383,-6.1252,-6.1169,-6.1161,-6.1683,-6.1742,-6.145,-6.1268,-6.1335,-6.1516,-3.3514,-3.3574,-3.3664,-3.3694,-3.686,0.0,0.0,0.0,-4.775,0.0,-5.1893,-5.3218,-5.4107,-5.4992,-5.557,-5.5638,-5.5813,-5.5884,-5.585,-5.4326,0.0,0.0,-4.9747,-4.7554,-4.4922,0.0,0.0,0.0,0.0,-3.6174,-3.5984,-3.4584,-3.5191,-3.7635,-3.9804,-4.265,-4.5978,-4.8883,-5.1488,-5.3923,-5.6833,-5.9336,-6.1366,-6.14,-6.1434,-6.1535,-6.2212,-6.2448,-6.2448,-6.2482,-6.2042,-6.1467,-6.1434,-6.0385,-5.9167,-5.9133,-5.8084,-5.6968,-5.6934,-5.5344,-5.3721,-5.3687,0.0,0.0,0.0,0.0,-4.7868,0.0,0.0,0.0,0.0,0.0,0.0,0.0,0.0,0.0,0.0,0.0,0.0,0.0,0.0,0.0,0.0,0.0,0.0,0.0,0.0,0.0,0.0,0.0,-5.6359,-5.7746,-5.9268,-6.0452,-6.1231,-6.2009,-6.2381,-6.2381,-6.2381,-6.2381,-6.2381,-6.2381,-6.2268,-6.1997,-6.183,-6.1621,-6.1491,-6.145,-6.136,-6.1326,-6.2415,-6.2599,-6.223,-6.1667,-6.1825,-6.2354,-3.3604,-3.4681,-3.5848,-3.6327,-3.7286,-3.9774,0.0,0.0,0.0,0.0,-5.323,-5.4682,-5.6653,-5.7133,-5.7707,-5.8788,-5.8927,0.0,0.0,0.0,0.0,-5.5412,-5.3349,-5.1562,-5.0189,-4.7735,0.0,-4.2231,0.0,-3.8335,-3.6273,-3.5721,-3.6406,-3.8245,-4.0012,-4.311,-4.716,-4.9229,-5.2367,-5.6156,-5.8558,-6.0554,0.0,0.0,-6.3294,-6.37,-6.3362,-6.3226,-6.3294,-6.3869,-6.3903,-6.3666,-6.3125,-6.2279,-6.14,-6.0858,-6.0013,-5.9133,-5.8592,-5.7611,-5.663,-5.6089,-5.4702,-5.3281,0.0,0.0,0.0,0.0,0.0,0.0,0.0,0.0,0.0,0.0,0.0,0.0,0.0,0.0,0.0,0.0,0.0,0.0,0.0,0.0,0.0,0.0,0.0,0.0,0.0,0.0,0.0,-5.6258,-5.8761,-6.0216,-6.0419,-6.1738,-6.2381,-6.2381,-6.2381,-6.2381,-6.2381,-6.2381,-6.2341,-6.2268,-6.1997,-6.2132,-6.2423,-6.2299,-6.2507,-6.2997,-6.3425,-6.3534,-6.3408,-6.2988,-6.2927,-6.305,-3.4921,-3.6417,-3.8257,-3.9783,0.0,0.0,-4.6001,-4.7751,0.0,-5.3105,-5.4895,0.0,-5.7746,-5.8457,-5.9201,-6.0047,-6.0114,0.0,-5.9505,0.0,0.0,-5.778,-5.5953,-5.4397,-5.3213,-5.082,0.0,-4.4616,0.0,0.0,-3.7755,-3.6894,-3.7369,-3.9039,-4.0916,-4.3944,-4.7894,-5.1524,-5.4668,-5.7509,-6.008,0.0,0.0,-6.37,-6.4241,-6.458,-6.4512,-6.4241,-6.4038,-6.4478,-6.4613,-6.4546,-6.4106,-6.37,-6.326,-6.2854,-6.2212,-6.1434,-6.0689,-5.9674,-5.866,-5.7949,-5.69,-5.5852,-5.5108,-5.4262,-5.3281,0.0,0.0,0.0,0.0,0.0,0.0,0.0,0.0,0.0,0.0,0.0,0.0,0.0,0.0,0.0,0.0,0.0,0.0,0.0,0.0,0.0,0.0,0.0,0.0,-5.5647,-5.8254,-5.9776,-6.0114,-6.1637,-6.2381,-6.2381,-6.2381,-6.2381,-6.2381,-6.2381,-6.2584,-6.2888,-6.2655,-6.2858,-6.3441,-6.3358,-6.3467,-6.3818,-6.4245,-6.4589,-6.4814,-6.4504,-6.4165,-6.3802,-3.7139,-3.8512,-4.0624,0.0,0.0,0.0,0.0,-4.9714,0.0,-5.4487,0.0,-5.8017,-5.8287,-5.9471,-6.0283,-6.0385,0.0,-6.0385,-6.0385,-5.9708,-5.9302,-5.9302,-5.778,-5.6292,-5.4905,-5.318,0.0,0.0,0.0,-4.1988,-3.9734,-3.8015,-3.8159,-3.9912,-4.2149,0.0,0.0,-5.4499,-5.7273,-5.8287,-6.1197,-6.2888,-6.3734,-6.4478,-6.4816,-6.4986,-6.5595,-6.5358,-6.4749,-6.485,-6.4884,-6.4884,-6.4884,-6.4816,-6.4749,-6.4749,-6.4241,-6.3497,-6.2854,-6.1637,-6.0385,-5.9641,-5.8896,-5.8118,-5.7273,-5.7103,-5.6494,-5.4363,-5.3382,-5.2198,0.0,0.0,0.0,0.0,0.0,0.0,0.0,0.0,0.0,0.0,0.0,0.0,0.0,0.0,0.0,0.0,0.0,0.0,0.0,0.0,0.0,-5.5683,-5.778,0.0,-6.008,0.0,-6.2279,-6.2381,-6.2381,-6.2448,-6.2516,-6.2516,-6.2956,-6.3626,-6.3465,-6.3788,-6.4461,-6.4461,-6.4404,-6.4363,-6.4966,-6.556,-6.6095,-6.5867,-6.5282,-6.4597,-3.9884,-4.0876,-4.2409,-4.4134,0.0,-4.9646,-5.0663,-5.1518,-5.3243,-5.6612,-5.7535,-5.8626,-6.0486,-6.0926,-6.1332,-6.1941,-6.1975,0.0,0.0,0.0,0.0,-6.0892,-5.8863,-5.7306,-5.6427,-5.4329,-5.1898,0.0,0.0,-4.3609,-4.1178,-3.901,-3.8871,-4.0461,-4.2722,0.0,-5.2472,-5.5511,0.0,-5.9032,-6.1434,-6.3193,-6.4478,-6.5222,-6.5899,-6.644,-6.6576,-6.6136,-6.5595,-6.6203,-6.6406,-6.6406,-6.6406,-6.6,-6.5493,-6.5493,-6.4986,-6.4377,-6.4241,-6.3565,-6.2753,-6.1975,-6.1264,-6.0351,-5.893,-5.8626,-5.8186,-5.6562,-5.6122,-5.5344,-5.3112,0.0,0.0,0.0,0.0,0.0,0.0,0.0,0.0,0.0,0.0,0.0,0.0,0.0,0.0,0.0,0.0,0.0,0.0,0.0,0.0,0.0,0.0,0.0,0.0,0.0,-6.1806,-6.2381,-6.2381,-6.2719,-6.3328,-6.3328,-6.3734,-6.441,-6.437,-6.4686,-6.5194,-6.5194,-6.5564,-6.6051,-6.6186,-6.6201,-6.6095,-6.5867,-6.5581,-6.526,-4.2521,-4.3952,-4.5638,-4.723,0.0,0.0,0.0,-5.4704,0.0,-5.7535,-5.8893,-6.0216,-6.1704,-6.2212,-6.2753,-6.3463,-6.3531,-6.3531,-6.3531,-6.3193,-6.3024,-6.3024,-6.1231,0.0,-5.8524,-5.6359,-5.3822,-5.099,0.0,-4.5942,-4.3985,-4.1924,-4.1432,-4.2399,0.0,-4.9009,0.0,0.0,0.0,-5.981,-6.2482,-6.4208,-6.5256,-6.6,-6.6508,-6.6812,-6.6812,-6.6576,-6.6339,-6.6677,-6.6812,-6.6812,-6.6812,-6.6576,-6.6271,-6.6271,-6.6034,-6.5662,-6.5256,-6.4918,-6.4478,-6.3734,-6.326,-6.2719,-6.1603,-6.1332,-6.0825,-5.8896,-5.822,-5.7036,-5.4059,-5.2604,0.0,0.0,0.0,0.0,0.0,0.0,0.0,0.0,0.0,0.0,0.0,0.0,0.0,0.0,0.0,0.0,0.0,0.0,0.0,0.0,0.0,0.0,0.0,0.0,0.0,-6.2381,-6.2381,-6.2787,-6.3531,-6.3531,-6.4106,-6.5155,-6.5155,-6.5553,-6.6137,-6.6137,-6.634,-6.6677,-6.655,-6.6345,-6.6095,-6.5867,-6.5647,-6.5425,-4.5532,-4.7356,-4.9242,0.0,-5.3077,0.0,-5.6884,-5.8106,-5.8863,-5.8863,-6.0419,-6.1873,-6.2753,-6.3396,-6.3971,-6.4546,-6.4613,-6.4613,-6.4613,-6.4613,-6.4613,-6.4613,-6.3193,-6.1738,-6.0385,-5.8186,-5.5649,0.0,0.0,0.0,0.0,-4.4604,-4.4507,0.0,0.0,0.0,0.0,0.0,-5.9066,-6.0825,-6.3531,-6.5019,-6.5764,-6.6542,-6.6812,-6.6812,-6.6812,-6.6812,-6.6812,-6.6812,-6.6812,-6.6812,-6.6812,-6.6812,-6.6812,-6.6812,-6.6812,-6.6677,-6.6102,-6.5933,-6.5764,-6.5019,-6.4816,-6.4647,-6.3903,-6.3734,-6.3159,-6.1028,-5.9742,-5.8084,-5.5006,-5.4296,0.0,0.0,0.0,0.0,0.0,0.0,0.0,0.0,0.0,0.0,0.0,0.0,0.0,0.0,0.0,0.0,0.0,0.0,0.0,0.0,0.0,-5.8152,-5.9235,0.0,-6.2245,0.0,-6.255,-6.3024,-6.3768,-6.3903,-6.4681,-6.5933,-6.5933,-6.6271,-6.6812,-6.6812,-6.6812,-6.677,-6.6592,-6.6345,-6.6095,-6.5867,-6.5647,-6.5425,-4.9501,-5.0922,0.0,0.0,0.0,0.0,-5.9353,-6.0941,-6.1975,-6.1975,-6.2144,-6.2821,-6.4241,-6.4478,-6.4512,-6.458,-6.4613,-6.4613,-6.4613,-6.4613,-6.4613,-6.4613,-6.3193,-6.2009,-6.1197,-5.8964,-5.6592,0.0,0.0,0.0,0.0,-4.5027,-4.7022,0.0,0.0,0.0,0.0,-5.8146,-6.0182,-6.2313,-6.3937,-6.5019,-6.5764,-6.6542,-6.6812,-6.6812,-6.6812,-6.6812,-6.6812,-6.6812,-6.6812,-6.6812,-6.6812,-6.6812,-6.6812,-6.6812,-6.6812,-6.6779,-6.6745,-6.6711,-6.6542,-6.5764,-6.5595,-6.5392,-6.4681,-6.4512,-6.4072,-6.2482,-6.0486,-5.8693,-5.7679,-5.6934,-5.5953,0.0,0.0,0.0,0.0,0.0,0.0,0.0,0.0,0.0,0.0,0.0,0.0,0.0,0.0,0.0,0.0,0.0,0.0,-5.5513,0.0,-5.7915,-5.9979,-6.0926,0.0,-6.2415,-6.3091,-6.3802,-6.4512,-6.5189,-6.5933,-6.6711,-6.6711,-6.6745,-6.6812,-6.6812,-6.6812,-6.677,-6.6592,-6.6345,-6.6095,-6.5867,-6.5647,-6.5425,0.0,0.0,0.0,0.0,0.0,0.0,0.0,-6.2646,-6.3396,-6.4241,-6.4005,-6.4106,-6.5155,-6.5256,-6.5425,-6.5899,-6.5933,-6.5933,-6.5933,-6.5933,-6.5933,-6.5933,-6.4918,-6.3835,-6.2651,-6.0385,-5.8284,0.0,0.0,0.0,0.0,0.0,0.0,0.0,0.0,-5.446,-5.7468,-5.9535,-6.1434,-6.3193,-6.4681,-6.5696,-6.6406,-6.6711,-6.6812,-6.6812,-6.6812,-6.6812,-6.6812,-6.6812,-6.6812,-6.6812,-6.6812,-6.6812,-6.6812,-6.6812,-6.6812,-6.6812,-6.6812,-6.6812,-6.6745,-6.644,-6.6373,-6.6271,-6.6,-6.5933,-6.5628,-6.458,-6.2584,-6.052,-5.8863,-5.8321,-5.778,0.0,0.0,0.0,0.0,0.0,0.0,0.0,0.0,0.0,0.0,0.0,0.0,0.0,0.0,0.0,0.0,0.0,0.0,-5.4972,0.0,-5.8084,-5.9438,-6.1129,-6.2313,-6.3057,-6.3362,-6.414,-6.5256,-6.5561,-6.6102,-6.6812,-6.6812,-6.6812,-6.6812,-6.6812,-6.6812,-6.677,-6.6388,-6.6182,-6.6052,-6.5692,-6.5514,-6.5425,-5.6288,0.0,-5.9398,0.0,-6.1576,-6.2527,-6.393,-6.414,-6.4613,-6.5865,-6.5561,-6.5459,-6.5967,-6.6,-6.6237,-6.6779,-6.6812,-6.6812,-6.6812,-6.6812,-6.6812,-6.6812,-6.6102,0.0,-6.4174,-6.1941,-6.0148,-5.8896,-5.5945,0.0,0.0,-5.116,0.0,0.0,-5.4495,-5.6185,-5.8998,-6.0858,-6.2618,-6.4241,-6.5256,-6.6136,-6.6812,-6.6812,-6.6812,-6.6812,-6.6812,-6.6812,-6.6812,-6.6812,-6.6812,-6.6812,-6.6812,-6.6812,-6.6812,-6.6812,-6.6812,-6.6812,-6.6812,-6.6812,-6.6812,-6.6812,-6.6812,-6.6812,-6.6812,-6.6812,-6.6609,-6.5831,-6.4275,-6.2415,-6.0385,-6.0013,-5.9674,-5.8693,0.0,0.0,0.0,0.0,0.0,0.0,-5.3585,-5.2266,-5.0507,0.0,0.0,0.0,0.0,0.0,0.0,0.0,0.0,0.0,0.0,0.0,0.0,-6.1264,-6.2753,-6.3531,-6.3734,-6.4478,-6.5696,-6.5899,-6.6305,-6.6812,-6.6812,-6.6812,-6.6812,-6.6812,-6.6812,-6.677,-6.6388,-6.6182,-6.6052,-6.5692,-6.547,-6.5425,-5.9771,-6.1627,-6.3182,-6.3423,-6.4072,-6.4816,-6.5561,-6.5662,-6.5933,-6.6711,-6.6779,-6.6779,-6.6812,-6.6812,-6.6812,-6.6812,-6.6812,-6.6812,-6.6812,-6.6812,-6.6812,0.0,0.0,-6.5662,-6.5662,-6.3497,-6.2009,-6.1264,0.0,0.0,-5.1121,-5.0379,-5.2403,-5.6799,-5.7509,-5.9099,-6.1298,-6.2076,-6.3666,-6.5662,-6.5662,-6.6136,-6.6812,-6.6812,-6.6812,-6.6812,-6.6812,-6.6812,-6.6812,-6.6812,-6.6812,-6.6812,-6.6812,-6.6812,-6.6812,-6.6812,-6.6812,-6.6812,-6.6812,-6.6812,-6.6812,-6.6812,-6.6812,-6.6812,-6.6812,-6.6812,-6.6609,-6.5831,-6.5087,-6.4106,-6.2618,-6.2347,-6.1839,-6.0317,0.0,0.0,0.0,0.0,0.0,0.0,-5.548,-5.4262,-5.3518,0.0,0.0,0.0,0.0,0.0,0.0,0.0,0.0,-5.4566,-5.7476,0.0,-5.9032,-6.1264,-6.2753,-6.3531,-6.4241,-6.4986,-6.5696,-6.644,-6.6812,-6.6812,-6.6812,-6.6812,-6.6812,-6.6812,-6.6812,-6.677,-6.6592,-6.6345,-6.6095,-6.5867,-6.5647,-6.5425,-6.233,-6.3349,-6.4498,-6.5553,-6.5967,-6.6542,-6.7827,-6.803,-6.8098,-6.8335,-6.8368,-6.8368,-6.8368,-6.7455,-6.6812,0.0,-6.6812,-6.6812,0.0,-6.6812,-6.6812,-6.6812,-6.6576,-6.6203,-6.5696,-6.4512,-6.3531,-6.2821,0.0,0.0,0.0,-5.5512,-5.6696,-5.9066,-5.9877,-6.1197,-6.2888,-6.4106,-6.5053,-6.573,-6.6237,-6.6609,-6.6812,-6.6812,-6.6812,-6.6812,-6.6812,-6.6812,-6.6812,-6.6812,-6.6812,-6.6812,-6.6812,-6.6812,-6.6812,-6.6812,-6.6812,-6.6812,-6.6812,-6.6812,-6.6812,-6.6812,-6.6812,-6.6812,-6.6812,-6.6812,-6.6609,-6.5831,-6.5493,-6.5053,-6.4072,-6.3903,-6.3734,-6.326,-6.2144,0.0,0.0,0.0,0.0,0.0,-5.7442,-5.6562,0.0,-5.4871,0.0,0.0,0.0,0.0,0.0,0.0,0.0,0.0,-5.7509,0.0,-6.0554,-6.1772,-6.3024,-6.4241,-6.4478,-6.5256,-6.6474,-6.6711,-6.6812,-6.6812,-6.6812,-6.6812,-6.6812,-6.6812,-6.6812,-6.677,-6.6592,-6.6345,-6.6095,-6.5867,-6.5647,-6.5425,-6.5155,-6.5764,-6.6576,-6.7523,-6.7658,-6.7996,-6.8944,-6.9113,-6.9113,-6.9113,-6.9113,-6.9113,-6.9113,-6.8233,0.0,-6.7658,-6.7658,-6.7658,-6.7658,-6.7658,-6.7658,-6.7658,-6.7658,-6.732,-6.6542,0.0,0.0,-6.4343,-6.2347,-6.0757,-5.9573,-5.9573,-6.0216,-6.14,-6.2212,-6.3362,-6.485,-6.6,-6.6677,-6.7015,-6.7489,-6.7658,-6.7658,-6.7658,-6.7489,-6.7218,-6.7218,-6.7049,-6.6812,-6.6812,-6.6812,-6.6812,-6.6812,-6.6812,-6.6812,-6.6812,-6.6812,-6.6812,-6.6812,-6.6812,-6.6812,-6.6812,-6.6812,-6.6812,-6.6812,-6.6812,-6.6677,-6.6203,-6.6102,-6.5899,-6.5155,-6.5019,-6.4918,-6.4647,-6.3835,-6.3125,-6.2854,0.0,0.0,0.0,0.0,0.0,0.0,-5.6968,0.0,0.0,0.0,0.0,0.0,0.0,0.0,-5.6325,-5.7645,0.0,-6.1298,-6.2313,-6.3565,-6.5019,-6.529,-6.5933,-6.6812,-6.6812,-6.6812,-6.6812,-6.6812,-6.6812,-6.6812,-6.6812,-6.6812,-6.677,-6.6677,-6.6473,-6.6259,-6.6086,-6.5824,-6.5559,-6.7996,-6.8605,0.0,0.0,-6.918,0.0,-6.9248,-6.9248,-6.9248,-6.9248,-6.9248,-6.9248,-6.9248,-6.9248,-6.9248,-6.9248,0.0,0.0,0.0,-6.9113,-6.9113,-6.9113,-6.9113,-6.8741,-6.7996,-6.732,-6.6609,-6.5831,-6.4478,-6.3429,-6.2685,-6.2685,-6.3091,-6.3869,-6.4512,-6.5628,-6.7015,-6.7692,-6.8402,-6.9113,-6.9113,-6.9113,-6.9113,-6.9113,-6.8639,-6.7996,-6.7996,-6.7557,-6.6981,-6.6981,-6.6948,-6.688,-6.688,-6.6846,-6.6812,-6.6812,-6.6812,-6.6812,-6.6812,-6.6812,-6.6812,-6.6812,-6.6812,-6.6812,-6.6812,-6.6812,-6.6812,-6.6812,-6.6812,-6.6609,-6.5899,-6.5764,-6.5527,-6.485,-6.4715,-6.441,-6.37,0.0,0.0,0.0,0.0,0.0,0.0,-5.8524,-5.8051,0.0,0.0,0.0,0.0,0.0,-5.5175,-5.5987,-5.8084,-5.9911,-6.1434,-6.2888,-6.4309,-6.5696,-6.644,-6.6812,-6.6812,-6.6812,-6.6812,-6.6812,-6.6812,-6.6812,-6.6812,-6.6812,-6.6812,-6.6812,-6.6812,-6.6677,-6.6507,-6.6464,-6.6206,-6.578,0.0,0.0,-6.9282,-6.9823,-6.9925,-7.0128,-7.0703,-7.0804,-7.0804,-7.0804,-7.0804,-7.0804,-7.0804,-7.0804,-7.0804,-7.0804,-6.9755,-6.9113,-6.9113,-6.9113,-6.9113,-6.9113,-6.9113,-6.9011,-6.8808,-6.8639,-6.8166,-6.7387,-6.7015,-6.6474,-6.5764,-6.5764,-6.617,-6.688,-6.7049,-6.7658,-6.8571,-6.8741,-6.8944,-6.9113,-6.9113,-6.9113,-6.9113,-6.9113,-6.8977,-6.8808,-6.8808,-6.8707,-6.8571,-6.8571,-6.8166,-6.7658,-6.7658,-6.7252,-6.6812,-6.6812,-6.6812,-6.6812,-6.6812,-6.6812,-6.6812,-6.6812,-6.6812,-6.6812,-6.6812,-6.6812,-6.6812,-6.6812,-6.6812,-6.6779,-6.6576,-6.6542,-6.6474,-6.6305,-6.5797,-6.5189,-6.4444,-6.3869,0.0,0.0,-6.1839,-6.1163,-6.1569,-6.0351,-5.9573,0.0,0.0,0.0,0.0,-5.7712,-5.7712,-5.9032,-6.0182,-6.1467,-6.299,-6.3903,-6.4783,-6.5696,-6.644,-6.6812,-6.6812,-6.6812,-6.6812,-6.6812,-6.6812,-6.6812,-6.6812,-6.6812,-6.6812,-6.6812,-6.6812,-6.6677,-6.6464,-6.6259,-6.6042,-6.578,-7.0128,-7.0128,-7.0229,-7.0635,-7.0703,-7.0838,-7.1244,-7.1312,-7.1312,-7.1312,-7.1312,-7.1312,-7.1312,-7.1312,-7.1312,-7.1312,-7.0567,-7.0128,-7.0128,-7.0128,-7.0128,-7.0128,-7.0128,-6.9958,-6.962,-6.9586,-6.9214,-6.8436,-6.8436,-6.8233,-6.7861,-6.7861,-6.8064,-6.847,-6.8808,-6.918,-6.962,-6.9958,-7.0128,-7.0128,-7.0128,-7.0128,-7.0128,-7.0128,-6.9891,-6.9586,-6.9586,-6.9383,-6.9113,-6.9113,-6.8808,-6.8436,-6.8436,-6.8166,-6.7793,-6.7421,-6.7083,-6.6812,-6.6812,-6.6812,-6.6812,-6.6812,-6.6812,-6.6812,-6.6812,-6.6812,-6.6812,-6.6812,-6.6812,-6.6812,-6.6812,-6.6812,-6.6812,-6.6812,-6.6474,-6.5933,-6.5222,-6.4749,0.0,-6.4038,-6.3294,-6.2956,-6.3362,-6.2651,-6.2144,-6.2144,0.0,0.0,-6.1569,-6.1163,-6.0858,-6.0655,-6.1061,-6.2347,-6.4478,-6.5256,-6.5797,-6.6203,-6.6609,-6.6812,-6.6812,-6.6812,-6.6812,-6.6812,-6.6812,-6.6812,-6.6812,-6.6812,-6.6812,-6.6812,-6.6812,-6.6728,-6.6635,-6.6345,-6.6129,-6.5911,-7.1312,-7.1312,-7.1312,-7.1312,-7.1312,-7.1312,-7.1312,-7.1312,-7.1312,-7.1312,-7.1312,-7.1312,-7.1312,-7.1312,-7.1312,-7.1312,-7.1312,-7.1312,-7.1312,-7.1312,-7.1312,-7.1312,-7.1312,-7.1007,-7.0364,-7.0364,-7.006,-6.9451,-6.9451,-6.9451,-6.9451,-6.9451,-6.9451,-6.9451,-7.0094,-7.0364,-7.0398,-7.1041,-7.1312,-7.1312,-7.1312,-7.1312,-7.1312,-7.1312,-7.0906,-7.0364,-7.0364,-6.9958,-6.9451,-6.9451,-6.935,-6.9282,-6.9282,-6.918,-6.8977,-6.8267,-6.7658,-6.7117,-6.688,-6.6812,-6.6812,-6.6812,-6.6812,-6.6812,-6.6812,-6.6812,-6.6812,-6.6812,-6.6812,-6.6812,-6.6812,-6.6812,-6.6812,-6.6812,-6.6812,-6.6542,-6.5797,0.0,-6.5459,-6.485,-6.4681,-6.4647,-6.4749,-6.4681,-6.4613,-6.4613,-6.4613,-6.4613,0.0,-6.4613,-6.3802,-6.2009,-6.1975,-6.3226,-6.5831,-6.6508,-6.6812,-6.6812,-6.6812,-6.6812,-6.6812,-6.6812,-6.6812,-6.6812,-6.6812,-6.6812,-6.6812,-6.6812,-6.6812,-6.6812,-6.6812,-6.6812,-6.677,-6.6592,-6.6345,-6.6052,-7.1312,-7.1312,-7.1312,-7.1312,-7.1312,-7.1312,-7.1312,-7.1312,-7.1312,-7.1312,-7.1312,-7.1312,-7.1312,-7.1312,-7.1312,-7.1312,-7.1312,-7.1312,-7.1312,-7.1312,-7.1312,-7.1312,-7.1312,-7.1278,-7.1142,-7.1142,-7.1075,-7.0973,-7.0973,-7.0973,-7.0973,-7.0973,-7.0973,-7.0973,-7.1075,-7.1142,-7.1142,-7.1278,-7.1312,-7.1312,-7.1312,-7.1312,-7.1312,-7.1312,-7.1244,-7.1142,-7.1142,-7.1075,-7.0973,-7.0973,-7.0534,-7.0026,-7.0026,-6.9586,-6.9079,-6.8944,-6.8842,-6.847,-6.7151,-6.6812,-6.6812,-6.6812,-6.6812,-6.6812,-6.6812,-6.6812,-6.6812,-6.6812,-6.6812,-6.6812,-6.6812,-6.6812,-6.6812,-6.6812,-6.6812,-6.6542,-6.5797,0.0,-6.5662,-6.5527,-6.4986,-6.485,-6.5459,-6.4952,-6.4613,-6.4613,-6.4613,-6.4613,-6.4613,-6.4613,-6.4715,-6.4986,-6.5019,-6.5527,-6.6643,-6.6745,-6.6812,-6.6812,-6.6812,-6.6812,-6.6812,-6.6812,-6.6812,-6.6812,-6.6812,-6.6812,-6.6812,-6.6812,-6.6812,-6.6812,-6.6812,-6.6812,-6.677,-6.6592,-6.6345,-6.6052,-7.1312,-7.1312,-7.1312,-7.1312,-7.1312,-7.1312,-7.1312,-7.1312,-7.1312,-7.1312,-7.1312,-7.1312,-7.1312,-7.1312,-7.1312,-7.1312,-7.1312,-7.1312,-7.1312,-7.1312,-7.1312,-7.1312,-7.1312,-7.1312,-7.1312,-7.1312,-7.1312,-7.1312,-7.1312,-7.1312,-7.1312,-7.1312,-7.1312,-7.1312,-7.1312,-7.1312,-7.1312,-7.1312,-7.1312,-7.1312,-7.1312,-7.1312,-7.1312,-7.1312,-7.1312,-7.1312,-7.1312,-7.1312,-7.1312,-7.1312,-7.1075,-7.0804,-7.0804,-7.0567,-7.0229,-6.9823,-6.9113,-6.8301,-6.759,-6.7117,-6.6812,-6.6812,-6.6812,-6.6812,-6.6812,-6.6812,-6.6812,-6.6812,-6.6812,-6.6812,-6.6812,-6.6812,-6.6812,-6.6812,-6.6812,0.0,-6.6339,-6.6305,-6.6305,-6.6305,-6.6,-6.5933,-6.6271,-6.6,-6.5797,-6.5797,-6.5797,-6.5797,-6.5797,-6.5797,-6.5933,-6.6271,-6.6305,-6.6474,-6.6812,-6.6812,-6.6812,-6.6812,-6.6812,-6.6812,-6.6812,-6.6812,-6.6812,-6.6812,-6.6812,-6.6812,-6.6812,-6.6812,-6.6812,-6.6812,-6.6812,-6.6812,-6.677,-6.6592,-6.6345,-6.6052,-7.1312,-7.1312,-7.1312,-7.1312,-7.1312,-7.1312,-7.1312,-7.1312,-7.1312,-7.1312,-7.1312,-7.1312,-7.1312,-7.1312,-7.1312,-7.1312,-7.1312,-7.1312,-7.1312,-7.1312,-7.1312,-7.1312,-7.1312,-7.1312,-7.1312,-7.1312,-7.1312,-7.1312,-7.1312,-7.1312,-7.1312,-7.1312,-7.1312,-7.1312,-7.1312,-7.1312,-7.1312,-7.1312,-7.1312,-7.1312,-7.1312,-7.1312,-7.1312,-7.1312,-7.1312,-7.1312,-7.1312,-7.1312,-7.1312,-7.1312,-7.1312,-7.1312,-7.1312,-7.1312,-7.121,-7.0635,-6.9485,-6.8368,-6.7996,-6.7489,-6.7015,-6.6846,-6.6812,-6.6812,-6.6812,-6.6812,-6.6812,-6.6812,-6.6812,-6.6812,-6.6812,-6.6812,-6.6812,-6.6812,0.0,-6.6812,-6.6812,-6.6812,-6.6812,-6.6812,-6.6812,-6.6812,-6.6812,-6.6812,-6.6812,-6.6812,-6.6812,-6.6812,-6.6812,-6.6812,-6.6812,-6.6812,-6.6812,-6.6812,-6.6812,-6.6812,-6.6812,-6.6812,-6.6812,-6.6812,-6.6812,-6.6812,-6.6812,-6.6812,-6.6812,-6.6812,-6.6812,-6.6812,-6.6812,-6.6812,-6.6812,-6.6812,-6.677,-6.6592,-6.6345,-6.6052,-7.1312,-7.1312,-7.1312,-7.1312,-7.1312,-7.1312,-7.1312,-7.1312,-7.1312,-7.1312,-7.1312,-7.1312,-7.1312,-7.1312,-7.1312,-7.1312,-7.1312,-7.1312,-7.1312,-7.1312,-7.1312,-7.1312,-7.1312,-7.1312,-7.1312,-7.1312,-7.1312,-7.1312,-7.1312,-7.1312,-7.1312,-7.1312,-7.1312,-7.1312,-7.1312,-7.1312,-7.1312,-7.1312,-7.1312,-7.1312,-7.1312,-7.1312,-7.1312,-7.1312,-7.1312,-7.1312,-7.1312,-7.1312,-7.1312,-7.1312,-7.1312,-7.1312,-7.1312,-7.1312,-7.1312,-7.1244,-7.0669,-6.9722,-6.8301,-6.7861,-6.7658,-6.6981,-6.6812,-6.6812,-6.6812,-6.6812,-6.6812,-6.6812,-6.6812,-6.6812,-6.6812,-6.6812,-6.6812,-6.6812,0.0,0.0,-6.6812,-6.6812,-6.6812,-6.6812,-6.6812,-6.6812,-6.6812,-6.6812,-6.6812,-6.6812,-6.6812,-6.6812,-6.6812,-6.6812,-6.6812,-6.6812,-6.6812,-6.6812,-6.6812,-6.6812,-6.6812,-6.6812,-6.6812,-6.6812,-6.6812,-6.6812,-6.6812,-6.6812,-6.6812,-6.6812,-6.6812,-6.6812,-6.6812,-6.6812,-6.6812,-6.6812,-6.677,-6.6592,-6.6345,-6.6052,-7.1312,-7.1312,-7.1312,-7.1312,-7.1312,-7.1312,-7.1312,-7.1312,-7.1312,-7.1312,-7.1312,-7.1312,-7.1312,-7.1312,-7.1312,-7.1312,-7.1312,-7.1312,-7.1312,-7.1312,-7.1312,-7.1312,-7.1312,-7.1312,-7.1312,-7.1312,-7.1312,-7.1312,-7.1312,-7.1312,-7.1312,-7.1312,-7.1312,-7.1312,-7.1312,-7.1312,-7.1312,-7.1312,-7.1312,-7.1312,-7.1312,-7.1312,-7.1312,-7.1312,-7.1312,-7.1312,-7.1312,-7.1312,-7.1312,-7.1312,-7.1312,-7.1312,-7.1312,-7.1312,-7.1312,-7.1312,-7.1109,-7.0669,-6.962,-6.8639,-6.7827,-6.7557,-6.7151,-6.6812,-6.6812,-6.6812,-6.6812,-6.6812,-6.6812,-6.6812,-6.6812,-6.6812,-6.6812,-6.6812,0.0,-6.6812,-6.6812,-6.6812,-6.6812,-6.6812,-6.6812,-6.6812,-6.6812,-6.6812,-6.6812,-6.6812,-6.6812,-6.6812,-6.6812,-6.6812,-6.6812,-6.6812,-6.6812,-6.6812,-6.6812,-6.6812,-6.6812,-6.6812,-6.6812,-6.6812,-6.6812,-6.6812,-6.6812,-6.6812,-6.6812,-6.6812,-6.6812,-6.6812,-6.6812,-6.6812,-6.6812,-6.6812,-6.677,-6.6592,-6.6345,-6.6052,-7.1312,-7.1312,-7.1312,-7.1312,-7.1312,-7.1312,-7.1312,-7.1312,-7.1312,-7.1312,-7.1312,-7.1312,-7.1312,-7.1312,-7.1312,-7.1312,-7.1312,-7.1312,-7.1312,-7.1312,-7.1312,-7.1312,-7.1312,-7.1312,-7.1312,-7.1312,-7.1312,-7.1312,-7.1312,-7.1312,-7.1312,-7.1312,-7.1312,-7.1312,-7.1312,-7.1312,-7.1312,-7.1312,-7.1312,-7.1312,-7.1312,-7.1312,-7.1312,-7.1312,-7.1312,-7.1312,-7.1312,-7.1312,-7.1312,-7.1312,-7.1312,-7.1312,-7.1312,-7.1312,-7.1312,-7.1312,-7.1312,-7.121,-7.0669,-6.9586,-6.8504,-6.803,-6.7523,-6.7083,-6.688,-6.6812,-6.6812,-6.6812,-6.6812,-6.6812,-6.6812,-6.6812,-6.6812,-6.6812,-6.6812,-6.6812,-6.6812,-6.6812,-6.6812,-6.6812,-6.6812,-6.6812,-6.6812,-6.6812,-6.6812,-6.6812,-6.6812,-6.6812,-6.6812,-6.6812,-6.6812,-6.6812,-6.6812,-6.6812,-6.6812,-6.6812,-6.6812,-6.6812,-6.6812,-6.6812,-6.6812,-6.6812,-6.6812,-6.6812,-6.6812,-6.6812,-6.6812,-6.6812,-6.6812,-6.6812,-6.6812,-6.6812,-6.677,-6.6592,-6.6345,-6.6172,-7.1312,-7.1312,-7.1312,-7.1312,-7.1312,-7.1312,-7.1312,-7.1312,-7.1312,-7.1312,-7.1312,-7.1312,-7.1312,-7.1312,-7.1312,-7.1312,-7.1312,-7.1312,-7.1312,-7.1312,-7.1312,-7.1312,-7.1312,-7.1312,-7.1312,-7.1312,-7.1312,-7.1312,-7.1312,-7.1312,-7.1312,-7.1312,-7.1312,-7.1312,-7.1312,-7.1312,-7.1312,-7.1312,-7.1312,-7.1312,-7.1312,-7.1312,-7.1312,-7.1312,-7.1312,-7.1312,-7.1312,-7.1312,-7.1312,-7.1312,-7.1312,-7.1312,-7.1312,-7.1312,-7.1312,-7.1312,-7.1312,-7.1312,-7.1312,-7.077,-6.9823,-6.8301,-6.7895,-6.7726,-6.6981,-6.6812,-6.6812,-6.6812,-6.6812,-6.6812,-6.6812,-6.6812,-6.6812,-6.6812,-6.6812,-6.6812,-6.6812,-6.6812,-6.6812,-6.6812,-6.6812,-6.6812,-6.6812,-6.6812,-6.6812,-6.6812,-6.6812,-6.6812,-6.6812,-6.6812,-6.6812,-6.6812,-6.6812,-6.6812,-6.6812,-6.6812,-6.6812,-6.6812,-6.6812,-6.6812,-6.6812,-6.6812,-6.6812,-6.6812,-6.6812,-6.6812,-6.6812,-6.6812,-6.6812,-6.6812,-6.6812,-6.6812,-6.677,-6.6592,-6.6507,-6.6421,-7.1312,-7.1312,-7.1312,-7.1312,-7.1312,-7.1312,-7.1312,-7.1312,-7.1312,-7.1312,-7.1312,-7.1312,-7.1312,-7.1312,-7.1312,-7.1312,-7.1312,-7.1312,-7.1312,-7.1312,-7.1312,-7.1312,-7.1312,-7.1312,-7.1312,-7.1312,-7.1312,-7.1312,-7.1312,-7.1312,-7.1312,-7.1312,-7.1312,-7.1312,-7.1312,-7.1312,-7.1312,-7.1312,-7.1312,-7.1312,-7.1312,-7.1312,-7.1312,-7.1312,-7.1312,-7.1312,-7.1312,-7.1312,-7.1312,-7.1312,-7.1312,-7.1312,-7.1312,-7.1312,-7.1312,-7.1312,-7.1312,-7.1312,-7.1312,-7.1142,-7.0737,-6.9755,-6.8707,-6.7827,-6.7624,-6.7184,-6.6812,-6.6812,-6.6812,-6.6812,-6.6812,-6.6812,-6.6812,-6.6812,-6.6812,-6.6812,-6.6812,-6.6812,-6.6812,-6.6812,-6.6812,-6.6812,-6.6812,-6.6812,-6.6812,-6.6812,-6.6812,-6.6812,-6.6812,-6.6812,-6.6812,-6.6812,-6.6812,-6.6812,-6.6812,-6.6812,-6.6812,-6.6812,-6.6812,-6.6812,-6.6812,-6.6812,-6.6812,-6.6812,-6.6812,-6.6812,-6.6812,-6.6812,-6.6812,-6.6812,-6.6812,-6.6812,-6.677,-6.6592,-6.6345,-6.6172,-7.1312,-7.1312,-7.1312,-7.1312,-7.1312,-7.1312,-7.1312,-7.1312,-7.1312,-7.1312,-7.1312,-7.1312,-7.1312,-7.1312,-7.1312,-7.1312,-7.1312,-7.1312,-7.1312,-7.1312,-7.1312,-7.1312,-7.1312,-7.1312,-7.1312,-7.1312,-7.1312,-7.1312,-7.1312,-7.1312,-7.1312,-7.1312,-7.1312,-7.1312,-7.1312,-7.1312,-7.1312,-7.1312,-7.1312,-7.1312,-7.1312,-7.1312,-7.1312,-7.1312,-7.1312,-7.1312,-7.1312,-7.1312,-7.1312,-7.1312,-7.1312,-7.1312,-7.1312,-7.1312,-7.1312,-7.1312,-7.1312,-7.1312,-7.1312,-7.1312,-7.121,-7.0737,-6.9722,-6.8639,-6.803,-6.7557,-6.7151,-6.688,-6.6812,-6.6812,-6.6812,-6.6812,-6.6812,-6.6812,-6.6812,-6.6812,-6.6812,-6.6812,-6.6812,-6.6812,-6.6812,-6.6812,-6.6812,-6.6812,-6.6812,-6.6812,-6.6812,-6.6812,-6.6812,-6.6812,-6.6812,-6.6812,-6.6812,-6.6812,-6.6812,-6.6812,-6.6812,-6.6812,-6.6812,-6.6812,-6.6812,-6.6812,-6.6812,-6.6812,-6.6812,-6.6812,-6.6812,-6.6812,-6.6812,-6.6812,-6.6812,-6.6812,-6.677,-6.6643,-6.6516,-6.6311,-7.1312,-7.1312,-7.1312,-7.1312,-7.1312,-7.1312,-7.1312,-7.1312,-7.1312,-7.1312,-7.1312,-7.1312,-7.1312,-7.1312,-7.1312,-7.1312,-7.1312,-7.1312,-7.1312,-7.1312,-7.1312,-7.1312,-7.1312,-7.1312,-7.1312,-7.1312,-7.1312,-7.1312,-7.1312,-7.1312,-7.1312,-7.1312,-7.1312,-7.1312,-7.1312,-7.1312,-7.1312,-7.1312,-7.1312,-7.1312,-7.1312,-7.1312,-7.1312,-7.1312,-7.1312,-7.1312,-7.1312,-7.1312,-7.1312,-7.1312,-7.1312,-7.1312,-7.1312,-7.1312,-7.1312,-7.1312,-7.1312,-7.1312,-7.1312,-7.1312,-7.1312,-7.1312,-7.0804,-6.9891,-6.8436,-6.7996,-6.7726,-6.7049,-6.688,-6.6812,-6.6812,-6.6812,-6.6812,-6.6812,-6.6812,-6.6812,-6.6812,-6.6812,-6.6812,-6.6812,-6.6812,-6.6812,-6.6812,-6.6812,-6.6812,-6.6812,-6.6812,-6.6812,-6.6812,-6.6812,-6.6812,-6.6812,-6.6812,-6.6812,-6.6812,-6.6812,-6.6812,-6.6812,-6.6812,-6.6812,-6.6812,-6.6812,-6.6812,-6.6812,-6.6812,-6.6812,-6.6812,-6.6812,-6.6812,-6.6812,-6.6812,-6.6812,-6.6812,-6.6812,-6.677,-6.6728,-7.1312,-7.1312,-7.1312,-7.1312,-7.1312,-7.1312,-7.1312,-7.1312,-7.1312,-7.1312,-7.1312,-7.1312,-7.1312,-7.1312,-7.1312,-7.1312,-7.1312,-7.1312,-7.1312,-7.1312,-7.1312,-7.1312,-7.1312,-7.1312,-7.1312,-7.1312,-7.1312,-7.1312,-7.1312,-7.1312,-7.1312,-7.1312,-7.1312,-7.1312,-7.1312,-7.1312,-7.1312,-7.1312,-7.1312,-7.1312,-7.1312,-7.1312,-7.1312,-7.1312,-7.1312,-7.1312,-7.1312,-7.1312,-7.1312,-7.1312,-7.1312,-7.1312,-7.1312,-7.1312,-7.1312,-7.1312,-7.1312,-7.1312,-7.1312,-7.1312,-7.1312,-7.1312,-7.1176,-7.0838,-6.9891,-6.8774,-6.7861,-6.7692,-6.7218,-6.6812,-6.6812,-6.6812,-6.6812,-6.6812,-6.6812,-6.6812,-6.6812,-6.6812,-6.6812,-6.6812,-6.6812,-6.6812,-6.6812,-6.6812,-6.6812,-6.6812,-6.6812,-6.6812,-6.6812,-6.6812,-6.6812,-6.6812,-6.6812,-6.6812,-6.6812,-6.6812,-6.6812,-6.6812,-6.6812,-6.6812,-6.6812,-6.6812,-6.6812,-6.6812,-6.6812,-6.6812,-6.6812,-6.6812,-6.6812,-6.6812,-6.6812,-6.6812,-6.6812,-6.6812,-6.6686,-6.655,-7.1312,-7.1312,-7.1312,-7.1312,-7.1312,-7.1312,-7.1312,-7.1312,-7.1312,-7.1312,-7.1312,-7.1312,-7.1312,-7.1312,-7.1312,-7.1312,-7.1312,-7.1312,-7.1312,-7.1312,-7.1312,-7.1312,-7.1312,-7.1312,-7.1312,-7.1312,-7.1312,-7.1312,-7.1312,-7.1312,-7.1312,-7.1312,-7.1312,-7.1312,-7.1312,-7.1312,-7.1312,-7.1312,-7.1312,-7.1312,-7.1312,-7.1312,-7.1312,-7.1312,-7.1312,-7.1312,-7.1312,-7.1312,-7.1312,-7.1312,-7.1312,-7.1312,-7.1312,-7.1312,-7.1312,-7.1312,-7.1312,-7.1312,-7.1312,-7.1312,-7.1312,-7.1312,-7.1312,-7.1109,-7.0364,-6.9586,-6.891,-6.8538,-6.7861,-6.732,-6.732,-6.7049,-6.6812,-6.6812,-6.6812,-6.6812,-6.6812,-6.6812,-6.6812,-6.6812,-6.6812,-6.6812,-6.6812,-6.6812,-6.6812,-6.6812,-6.6812,-6.6812,-6.6812,-6.6812,-6.6812,-6.6812,-6.6812,-6.6812,-6.6812,-6.6812,-6.6812,-6.6812,-6.6812,-6.6812,-6.6812,-6.6812,-6.6812,-6.6812,-6.6812,-6.6812,-6.6812,-6.6812,-6.6812,-6.6812,-6.6812,-6.6812,-6.6812,-6.6812,-6.6643,-6.6464,-7.1312,-7.1312,-7.1312,-7.1312,-7.1312,-7.1312,-7.1312,-7.1312,-7.1312,-7.1312,-7.1312,-7.1312,-7.1312,-7.1312,-7.1312,-7.1312,-7.1312,-7.1312,-7.1312,-7.1312,-7.1312,-7.1312,-7.1312,-7.1312,-7.1312,-7.1312,-7.1312,-7.1312,-7.1312,-7.1312,-7.1312,-7.1312,-7.1312,-7.1312,-7.1312,-7.1312,-7.1312,-7.1312,-7.1312,-7.1312,-7.1312,-7.1312,-7.1312,-7.1312,-7.1312,-7.1312,-7.1312,-7.1312,-7.1312,-7.1312,-7.1312,-7.1312,-7.1312,-7.1312,-7.1312,-7.1312,-7.1312,-7.1312,-7.1312,-7.1312,-7.1312,-7.1312,-7.1312,-7.1142,-7.0534,-7.0297,-7.0026,-6.9417,-6.8673,-6.8098,-6.8098,-6.7624,-6.7218,-6.7218,-6.7218,-6.7218,-6.7218,-6.7218,-6.7218,-6.7218,-6.7218,-6.7151,-6.7015,-6.7015,-6.6948,-6.6812,-6.6812,-6.6812,-6.6812,-6.6812,-6.6812,-6.6812,-6.6812,-6.6812,-6.6812,-6.6812,-6.6812,-6.6812,-6.6812,-6.6812,-6.6812,-6.6812,-6.6812,-6.6812,-6.6812,-6.6812,-6.6812,-6.6812,-6.6812,-6.6812,-6.6812,-6.6812,-6.6812,-6.6812,-6.6686,-6.655,-7.1312,-7.1312,-7.1312,-7.1312,-7.1312,-7.1312,-7.1312,-7.1312,-7.1312,-7.1312,-7.1312,-7.1312,-7.1312,-7.1312,-7.1312,-7.1312,-7.1312,-7.1312,-7.1312,-7.1312,-7.1312,-7.1312,-7.1312,-7.1312,-7.1312,-7.1312,-7.1312,-7.1312,-7.1312,-7.1312,-7.1312,-7.1312,-7.1312,-7.1312,-7.1312,-7.1312,-7.1312,-7.1312,-7.1312,-7.1312,-7.1312,-7.1312,-7.1312,-7.1312,-7.1312,-7.1312,-7.1312,-7.1312,-7.1312,-7.1312,-7.1312,-7.1312,-7.1312,-7.1312,-7.1312,-7.1312,-7.1312,-7.1312,-7.1312,-7.1312,-7.1312,-7.1312,-7.1312,-7.1278,-7.1176,-7.0669,-7.0161,-7.006,-6.9451,-6.8944,-6.8944,-6.8876,-6.8808,-6.8808,-6.8808,-6.8808,-6.8808,-6.8808,-6.8808,-6.8808,-6.8808,-6.8504,-6.7827,-6.776,-6.7489,-6.688,-6.6812,-6.6812,-6.6812,-6.6812,-6.6812,-6.6812,-6.6812,-6.6812,-6.6812,-6.6812,-6.6812,-6.6812,-6.6812,-6.6812,-6.6812,-6.6812,-6.6812,-6.6812,-6.6812,-6.6812,-6.6812,-6.6812,-6.6812,-6.6812,-6.6812,-6.6812,-6.6812,-6.6812,-6.677,-6.677,-7.1312,-7.1312,-7.1312,-7.1312,-7.1312,-7.1312,-7.1312,-7.1312,-7.1312,-7.1312,-7.1312,-7.1312,-7.1312,-7.1312,-7.1312,-7.1312,-7.1312,-7.1312,-7.1312,-7.1312,-7.1312,-7.1312,-7.1312,-7.1312,-7.1312,-7.1312,-7.1312,-7.1312,-7.1312,-7.1312,-7.1312,-7.1312,-7.1312,-7.1312,-7.1312,-7.1312,-7.1312,-7.1312,-7.1312,-7.1312,-7.1312,-7.1312,-7.1312,-7.1312,-7.1312,-7.1312,-7.1312,-7.1312,-7.1312,-7.1312,-7.1312,-7.1312,-7.1312,-7.1312,-7.1312,-7.1312,-7.1312,-7.1312,-7.1312,-7.1312,-7.1312,-7.1312,-7.1312,-7.1312,-7.1312,-7.1075,-7.0804,-7.0804,-7.0229,-6.9722,-6.9722,-6.9383,-6.9113,-6.9113,-6.9113,-6.9113,-6.9113,-6.9113,-6.9113,-6.9113,-6.9113,-6.8977,-6.8605,-6.8571,-6.8436,-6.8132,-6.7658,-6.7421,-6.7421,-6.7015,-6.6812,-6.6812,-6.6812,-6.6812,-6.6812,-6.6812,-6.6812,-6.6812,-6.6812,-6.6812,-6.6812,-6.6812,-6.6812,-6.6812,-6.6812,-6.6812,-6.6812,-6.6812,-6.6812,-6.6812,-6.6812,-6.6812,-6.6812,-6.6812,-6.6812,-6.6812]},{"header":{"parameterUnit":"m.s-1","parameterCategory":1,"la1":30.6,"la2":28.766,"lo1":-90.7593,"lo2":-88.6598,"dx":0.0162,"dy":0.0183,"nx":116,"ny":114,"refTime":"2022-12-28T18:00:00:Z","depth":0,"parameterNumber":3,"parameterNumberName":"V-component_of_WINDS"},"data":[0.0,0.0,0.0,0.0,0.0,0.0,0.0,0.0,0.0,0.0,0.0,0.0,0.0,0.0,0.0,0.0,0.0,0.0,0.0,0.0,0.0,0.0,0.0,0.0,0.0,0.0,0.0,0.0,0.0,0.0,0.0,0.0,0.0,0.0,0.0,0.0,0.0,0.0,0.0,0.0,0.0,0.0,0.0,0.0,0.0,0.0,0.0,0.0,0.0,0.0,0.0,0.0,0.0,0.0,0.0,0.0,0.0,0.0,0.0,0.0,0.0,0.0,0.0,0.0,0.0,0.0,0.0,0.0,0.0,0.0,0.0,0.0,0.0,0.0,0.0,0.0,0.0,0.0,0.0,0.0,0.0,0.0,0.0,0.0,0.0,0.0,0.0,0.0,0.0,0.0,0.0,0.0,0.0,0.0,0.0,0.0,0.0,0.0,0.0,0.0,0.0,0.0,0.0,0.0,0.0,0.0,0.0,0.0,0.0,0.0,0.0,0.0,0.0,0.0,0.0,0.0,0.0,0.0,0.0,0.0,0.0,0.0,0.0,0.0,0.0,0.0,0.0,0.0,0.0,0.0,0.0,0.0,0.0,0.0,0.0,0.0,0.0,0.0,0.0,0.0,0.0,0.0,0.0,0.0,0.0,0.0,0.0,0.0,0.0,0.0,0.0,0.0,0.0,0.0,0.0,0.0,0.0,0.0,0.0,0.0,0.0,0.0,0.0,0.0,0.0,0.0,0.0,0.0,0.0,0.0,0.0,0.0,0.0,0.0,0.0,0.0,0.0,0.0,0.0,0.0,0.0,0.0,0.0,0.0,0.0,0.0,0.0,0.0,0.0,0.0,0.0,0.0,0.0,0.0,0.0,0.0,0.0,0.0,0.0,0.0,0.0,0.0,0.0,0.0,0.0,0.0,0.0,0.0,0.0,0.0,0.0,0.0,0.0,0.0,0.0,0.0,0.0,0.0,0.0,0.0,0.0,0.0,0.0,0.0,0.0,0.0,0.0,0.0,0.0,0.0,0.0,0.0,0.0,0.0,0.0,0.0,0.0,0.0,0.0,0.0,0.0,0.0,0.0,0.0,0.0,0.0,0.0,0.0,0.0,0.0,0.0,0.0,0.0,0.0,0.0,0.0,0.0,0.0,0.0,0.0,0.0,0.0,0.0,0.0,0.0,0.0,0.0,0.0,0.0,0.0,0.0,0.0,0.0,0.0,0.0,0.0,0.0,0.0,0.0,0.0,0.0,0.0,0.0,0.0,0.0,0.0,0.0,0.0,0.0,0.0,0.0,0.0,0.0,0.0,0.0,0.0,0.0,0.0,0.0,0.0,0.0,0.0,0.0,0.0,0.0,0.0,0.0,0.0,0.0,0.0,0.0,0.0,0.0,0.0,0.0,0.0,0.0,0.0,0.0,0.0,0.0,0.0,0.0,0.0,0.0,0.0,0.0,0.0,0.0,0.0,0.0,0.0,0.0,0.0,0.0,0.0,0.0,0.0,0.0,0.0,0.0,0.0,0.0,0.0,0.0,0.0,0.0,0.0,0.0,0.0,0.0,0.0,0.0,0.0,0.0,0.0,0.0,0.0,0.0,0.0,0.0,0.0,0.0,0.0,0.0,0.0,0.0,0.0,0.0,0.0,0.0,0.0,0.0,0.0,0.0,0.0,0.0,0.0,0.0,0.0,0.0,0.0,0.0,0.0,0.0,0.0,0.0,0.0,0.0,0.0,0.0,0.0,0.0,0.0,0.0,0.0,0.0,0.0,0.0,0.0,0.0,0.0,0.0,0.0,0.0,0.0,0.0,0.0,0.0,0.0,0.0,0.0,0.0,0.0,0.0,0.0,0.0,0.0,0.0,0.0,0.0,0.0,0.0,0.0,0.0,0.0,0.0,0.0,0.0,0.0,0.0,0.0,0.0,0.0,0.0,0.0,0.0,0.0,0.0,0.0,0.0,0.0,0.0,0.0,0.0,0.0,0.0,0.0,0.0,0.0,0.0,0.0,0.0,0.0,0.0,0.0,0.0,0.0,0.0,0.0,0.0,0.0,0.0,0.0,0.0,0.0,0.0,0.0,0.0,0.0,0.0,0.0,0.0,0.0,0.0,0.0,0.0,0.0,0.0,0.0,0.0,0.0,0.0,0.0,0.0,0.0,0.0,0.0,0.0,0.0,0.0,0.0,0.0,0.0,0.0,0.0,0.0,0.0,0.0,0.0,0.0,0.0,0.0,0.0,0.0,0.0,0.0,0.0,0.0,0.0,0.0,0.0,0.0,0.0,0.0,0.0,0.0,0.0,0.0,0.0,0.0,0.0,0.0,0.0,0.0,0.0,0.0,0.0,0.0,0.0,0.0,0.0,0.0,0.0,0.0,0.0,0.0,0.0,0.0,0.0,0.0,0.0,0.0,0.0,0.0,0.0,0.0,0.0,0.0,0.0,0.0,0.0,0.0,0.0,0.0,0.0,0.0,0.0,0.0,0.0,0.0,0.0,0.0,0.0,0.0,0.0,0.0,0.0,0.0,0.0,0.0,0.0,0.0,0.0,0.0,0.0,0.0,0.0,0.0,0.0,0.0,0.0,0.0,0.0,0.0,0.0,0.0,0.0,0.0,0.0,0.0,0.0,0.0,0.0,0.0,0.0,0.0,0.0,0.0,0.0,0.0,0.0,0.0,0.0,0.0,0.0,0.0,0.0,0.0,0.0,0.0,0.0,0.0,0.0,0.0,0.0,0.0,0.0,0.0,0.0,0.0,0.0,0.0,0.0,0.0,0.0,0.0,0.0,0.0,0.0,0.0,0.0,0.0,0.0,0.0,0.0,0.0,0.0,0.0,0.0,0.0,0.0,0.0,0.0,0.0,0.0,0.0,0.0,0.0,0.0,0.0,0.0,0.0,0.0,0.0,0.0,0.0,0.0,0.0,0.0,0.0,0.0,0.0,0.0,0.0,0.0,0.0,0.0,0.0,0.0,0.0,0.0,0.0,0.0,0.0,0.0,0.0,0.0,0.0,0.0,0.0,0.0,0.0,0.0,0.0,0.0,0.0,0.0,0.0,0.0,0.0,0.0,0.0,0.0,0.0,0.0,0.0,0.0,0.0,0.0,0.0,0.0,0.0,0.0,0.0,0.0,0.0,0.0,0.0,0.0,0.0,0.0,0.0,0.0,0.0,0.0,0.0,0.0,0.0,0.0,0.0,0.0,0.0,0.0,0.0,0.0,0.0,0.0,0.0,0.0,0.0,0.0,0.0,0.0,0.0,0.0,0.0,0.0,0.0,0.0,0.0,0.0,0.0,0.0,0.0,0.0,0.0,0.0,0.0,0.0,0.0,0.0,0.0,0.0,0.0,0.0,0.0,0.0,0.0,0.0,0.0,0.0,0.0,0.0,0.0,0.0,0.0,0.0,0.0,0.0,0.0,0.0,0.0,0.0,0.0,0.0,0.0,0.0,0.0,0.0,0.0,0.0,0.0,0.0,0.0,0.0,0.0,0.0,0.0,0.0,0.0,0.0,0.0,0.0,0.0,0.0,0.0,0.0,0.0,0.0,0.0,0.0,0.0,0.0,0.0,0.0,0.0,0.0,0.0,0.0,0.0,0.0,0.0,0.0,0.0,0.0,0.0,0.0,0.0,0.0,0.0,0.0,0.0,0.0,0.0,0.0,0.0,0.0,0.0,0.0,0.0,0.0,0.0,0.0,0.0,0.0,0.0,0.0,0.0,0.0,0.0,0.0,0.0,0.0,0.0,0.0,0.0,0.0,0.0,0.0,0.0,0.0,0.0,0.0,0.0,0.0,0.0,0.0,0.0,0.0,0.0,0.0,0.0,0.0,0.0,0.0,0.0,0.0,0.0,0.0,0.0,0.0,0.0,0.0,0.0,0.0,0.0,0.0,0.0,0.0,0.0,0.0,0.0,0.0,0.0,0.0,0.0,0.0,0.0,0.0,0.0,0.0,0.0,0.0,0.0,0.0,0.0,0.0,0.0,0.0,0.0,0.0,0.0,0.0,0.0,0.0,0.0,0.0,0.0,0.0,0.0,0.0,0.0,0.0,0.0,0.0,0.0,0.0,0.0,0.0,0.0,0.0,0.0,0.0,0.0,0.0,0.0,0.0,0.0,0.0,0.0,0.0,0.0,0.0,0.0,0.0,0.0,0.0,0.0,0.0,0.0,0.0,0.0,0.0,0.0,0.0,0.0,0.0,0.0,0.0,0.0,0.0,0.0,0.0,0.0,0.0,0.0,0.0,0.0,0.0,0.0,0.0,0.0,0.0,0.0,0.0,0.0,0.0,0.0,0.0,0.0,0.0,0.0,0.0,0.0,0.0,0.0,0.0,0.0,0.0,0.0,0.0,0.0,0.0,0.0,0.0,0.0,0.0,0.0,0.0,0.0,0.0,0.0,0.0,0.0,0.0,0.0,0.0,0.0,0.0,0.0,0.0,0.0,0.0,0.0,0.0,0.0,0.0,0.0,0.0,0.0,0.0,0.0,0.0,0.0,0.0,0.0,0.0,0.0,0.0,0.0,0.0,0.0,0.0,0.0,0.0,0.0,0.0,0.0,0.0,0.0,0.0,0.0,0.0,0.0,0.0,0.0,0.0,0.0,0.0,0.0,0.0,0.0,0.0,0.0,0.0,0.0,0.0,0.0,0.0,0.0,0.0,0.0,0.0,0.0,0.0,0.0,0.0,0.0,0.0,0.0,0.0,0.0,0.0,0.0,0.0,0.0,0.0,0.0,0.0,0.0,0.0,0.0,0.0,0.0,0.0,0.0,0.0,0.0,0.0,0.0,0.0,0.0,0.0,0.0,0.0,0.0,0.0,0.0,0.0,0.0,0.0,0.0,0.0,0.0,0.0,0.0,0.0,0.0,0.0,0.0,0.0,0.0,0.0,0.0,0.0,0.0,0.0,0.0,0.0,0.0,0.0,0.0,0.0,0.0,0.0,0.0,0.0,0.0,0.0,0.0,0.0,0.0,0.0,0.0,0.0,0.0,0.0,0.0,0.0,0.0,0.0,0.0,0.0,0.0,0.0,0.0,0.0,0.0,0.0,0.0,0.0,0.0,0.0,0.0,0.0,0.0,0.0,0.0,0.0,0.0,0.0,0.0,0.0,0.0,0.0,0.0,0.0,0.0,0.0,0.0,0.0,0.0,0.0,0.0,0.0,0.0,0.0,0.0,0.0,0.0,0.0,0.0,0.0,0.0,0.0,0.0,0.0,0.0,0.0,0.0,0.0,0.0,0.0,0.0,0.0,0.0,0.0,0.0,0.0,0.0,0.0,0.0,0.0,0.0,0.0,0.0,0.0,0.0,0.0,0.0,0.0,0.0,0.0,0.0,0.0,0.0,0.0,0.0,0.0,0.0,0.0,0.0,0.0,0.0,0.0,0.0,0.0,0.0,0.0,0.0,0.0,0.0,0.0,0.0,0.0,0.0,0.0,0.0,0.0,0.0,0.0,0.0,0.0,0.0,0.0,0.0,0.0,0.0,0.0,0.0,0.0,0.0,0.0,0.0,0.0,0.0,0.0,0.0,0.0,0.0,0.0,0.0,0.0,0.0,0.0,0.0,0.0,0.0,0.0,0.0,0.0,0.0,0.0,0.0,0.0,0.0,0.0,0.0,0.0,0.0,0.0,0.0,0.0,0.0,0.0,0.0,0.0,0.0,0.0,0.0,0.0,0.0,0.0,0.0,0.0,0.0,0.0,0.0,0.0,0.0,0.0,0.0,0.0,0.0,0.0,0.0,0.0,0.0,0.0,0.0,0.0,0.0,0.0,0.0,0.0,0.0,0.0,0.0,0.0,0.0,0.0,0.0,0.0,0.0,0.0,0.0,0.0,0.0,0.0,0.0,0.0,0.0,0.0,0.0,0.0,0.0,0.0,0.0,0.0,0.0,0.0,0.0,0.0,0.0,0.0,0.0,0.0,0.0,0.0,0.0,0.0,0.0,0.0,0.0,0.0,0.0,0.0,0.0,0.0,0.0,0.0,0.0,0.0,0.0,0.0,0.0,0.0,0.0,0.0,0.0,0.0,0.0,0.0,0.0,0.0,0.0,0.0,0.0,0.0,0.0,0.0,0.0,0.0,0.0,0.0,0.0,0.0,0.0,0.0,2.22,0.0,0.0,0.0,0.0,0.0,0.0,0.0,0.0,0.0,0.0,0.0,0.0,0.0,0.0,0.0,0.0,0.0,0.0,0.0,0.0,0.0,0.0,0.0,0.0,0.0,0.0,0.0,0.0,0.0,0.0,0.0,0.0,0.0,0.0,0.0,0.0,0.0,1.3599,1.4394,1.5241,1.607,1.6848,1.6572,1.6468,1.6468,0.0,0.0,0.0,0.0,0.0,0.0,0.0,0.0,0.0,0.0,0.0,0.0,0.0,0.0,0.0,0.0,0.0,0.0,0.0,0.0,0.0,0.0,0.0,0.0,0.0,0.0,0.0,0.0,0.0,0.0,0.0,0.0,0.0,0.0,0.0,0.0,0.0,0.0,0.0,0.0,0.0,0.0,0.0,0.0,0.0,0.0,0.0,0.0,0.0,0.0,0.0,0.0,0.0,0.0,0.0,0.0,0.0,0.0,0.0,0.0,0.0,0.0,0.0,0.0,0.0,0.0,0.0,0.0,0.0,0.0,0.0,2.2673,0.0,0.0,0.0,0.0,0.0,0.0,0.0,0.0,0.0,0.0,0.0,0.0,0.0,0.0,0.0,0.0,0.0,0.0,0.0,0.0,0.0,0.0,0.0,1.4626,1.4884,1.4884,1.4884,1.4727,0.0,0.0,0.0,0.0,0.0,0.0,1.3491,1.3574,1.4369,1.5844,1.6597,1.7779,1.9434,1.9434,1.9284,1.8983,1.7553,0.0,0.0,0.0,0.0,0.0,0.0,0.0,0.0,0.0,0.0,0.0,0.0,0.0,0.0,0.0,0.0,0.0,0.0,0.0,0.0,0.0,0.0,0.0,0.0,0.0,0.0,0.0,0.0,0.0,0.0,0.0,0.0,0.0,0.0,0.0,0.0,0.0,0.0,0.0,0.0,0.0,0.0,0.0,0.0,0.0,0.0,0.0,0.0,0.0,0.0,0.0,0.0,0.0,0.0,0.0,0.0,0.0,0.0,0.0,0.0,0.0,0.0,0.0,2.7454,2.7756,2.7745,2.8398,2.8674,2.8574,2.6631,2.5578,2.5134,0.0,0.0,0.0,0.0,0.0,0.0,0.0,0.0,0.0,0.0,0.0,0.0,0.0,0.0,0.0,0.0,0.0,0.0,0.0,0.0,0.0,0.0,1.4878,1.4884,1.4884,1.4884,1.4878,1.4802,0.0,0.0,0.0,0.0,1.4532,1.4683,1.5116,1.5718,1.6375,1.7929,1.9535,2.1167,2.1167,2.1644,2.2343,1.981,1.8632,1.8456,0.0,0.0,0.0,0.0,0.0,0.0,0.0,0.0,0.0,0.0,0.0,0.0,0.0,0.0,0.0,0.0,0.0,0.0,0.0,0.0,0.0,0.0,0.0,0.0,0.0,0.0,0.0,0.0,0.0,0.0,0.0,0.0,0.0,0.0,0.0,0.0,0.0,0.0,0.0,0.0,0.0,1.8857,1.9409,0.0,0.0,0.0,0.0,0.0,0.0,0.0,0.0,0.0,0.0,0.0,0.0,0.0,2.6323,2.6841,2.7027,2.7344,2.7896,2.895,2.9453,2.9503,3.0507,3.0959,3.0909,3.0181,0.0,2.6917,2.6223,0.0,0.0,0.0,0.0,0.0,0.0,0.0,0.0,0.0,0.0,0.0,0.0,0.0,0.0,0.0,0.0,0.0,0.0,0.0,0.0,0.0,1.5618,1.5793,1.5793,1.5793,1.5793,1.5793,1.5537,0.0,0.0,1.506,1.5185,1.5793,1.6045,1.7049,1.8881,1.9886,2.1418,2.3351,2.3351,2.3954,2.4933,2.307,2.1418,1.9861,1.8481,0.0,0.0,0.0,0.0,0.0,0.0,0.0,0.0,0.0,0.0,0.0,0.0,0.0,0.0,0.0,0.0,0.0,0.0,0.0,0.0,0.0,0.0,0.0,0.0,0.0,0.0,0.0,0.0,0.0,0.0,0.0,0.0,0.0,0.0,0.0,0.0,0.0,0.0,0.0,1.951,2.0489,2.0715,2.2071,2.3,0.0,0.0,0.0,0.0,0.0,0.0,0.0,0.0,0.0,2.654,2.7756,2.8485,2.8699,2.9302,2.9704,2.9955,3.0457,3.0859,3.116,3.1637,3.2039,3.2315,3.1763,3.0959,2.993,2.8448,2.767,2.7344,0.0,0.0,0.0,0.0,2.6465,2.6289,0.0,0.0,0.0,0.0,0.0,0.0,0.0,0.0,0.0,0.0,0.0,0.0,1.6095,1.6497,1.6798,1.6926,1.6926,1.6926,1.6926,1.6572,1.6346,1.6346,1.5965,1.612,1.6901,1.7375,1.8731,2.1119,2.192,2.3326,2.5234,2.5385,2.5963,2.6876,2.5887,2.4079,2.1672,2.0238,1.9108,1.8177,0.0,0.0,0.0,0.0,0.0,0.0,0.0,0.0,0.0,0.0,0.0,0.0,0.0,0.0,0.0,0.0,0.0,0.0,0.0,0.0,0.0,0.0,0.0,0.0,0.0,0.0,0.0,0.0,0.0,0.0,0.0,0.0,0.0,0.0,0.0,0.0,0.0,2.1292,2.2397,2.2523,2.4255,2.546,0.0,0.0,0.0,0.0,0.0,0.0,2.7329,2.7695,2.8047,2.8323,2.9679,3.0407,3.0407,3.1361,3.1813,3.1813,3.1964,3.224,3.2641,3.2792,3.3093,3.347,3.3043,3.2767,3.2491,3.0407,2.9327,2.895,2.895,2.8699,2.8373,2.88,2.8674,2.8398,0.0,0.0,0.0,0.0,0.0,0.0,0.0,0.0,0.0,0.0,0.0,1.6095,1.7197,1.7348,1.7551,1.8078,1.8129,1.8129,1.8129,1.8103,1.8078,1.8078,1.8053,1.8053,1.8129,1.9686,2.1069,2.2221,2.3822,2.5234,2.6424,2.6952,2.7469,2.7996,2.7419,2.6214,2.4449,2.2297,2.1069,2.0467,1.9484,0.0,0.0,0.0,0.0,0.0,0.0,0.0,0.0,0.0,0.0,0.0,0.0,0.0,0.0,0.0,0.0,0.0,0.0,0.0,0.0,0.0,0.0,0.0,0.0,0.0,0.0,0.0,0.0,0.0,0.0,0.0,0.0,0.0,0.0,0.0,0.0,0.0,0.0,2.5335,2.644,0.0,0.0,0.0,0.0,2.8021,2.8021,2.8499,2.9578,2.9654,3.0131,3.116,3.1763,3.2089,3.2089,3.2692,3.2993,3.2993,3.352,3.3796,3.3822,3.4349,3.458,3.465,3.46,3.4299,3.3671,3.1964,3.126,3.121,3.121,3.121,3.1185,3.121,3.121,3.1185,0.0,0.0,0.0,1.3198,1.3534,1.3954,1.4525,1.4928,1.5387,1.612,1.6547,1.7096,1.7827,1.8229,1.8656,1.9183,1.9233,1.9233,1.9233,1.9233,1.9233,1.9233,1.9233,1.9585,2.0313,2.1594,2.2975,2.4431,2.541,2.6615,2.8047,2.8247,2.8649,2.9176,2.8599,2.8021,2.7258,2.4732,2.2988,2.1868,2.1105,1.9763,0.0,0.0,0.0,0.0,0.0,0.0,0.0,0.0,0.0,0.0,0.0,0.0,0.0,0.0,0.0,0.0,0.0,0.0,0.0,0.0,0.0,0.0,0.0,0.0,0.0,0.0,0.0,0.0,0.0,0.0,0.0,0.0,0.0,0.0,0.0,0.0,0.0,2.6666,2.767,0.0,2.885,2.9402,2.9854,3.0206,3.0206,3.0557,3.1311,3.1361,3.1687,3.2441,3.3018,3.3294,3.3294,3.3847,3.4148,3.4148,3.4324,3.4625,3.4931,3.5107,3.5454,3.5755,3.5403,3.5107,3.4831,3.3922,3.3119,3.2466,3.2466,3.2466,3.2466,3.2466,3.2466,3.2466,0.0,0.0,0.0,1.3198,1.3702,1.4274,1.4828,1.5361,1.5969,1.6722,1.73,1.7928,1.8656,1.9409,2.0062,2.0614,2.0815,2.0888,2.0888,2.074,2.074,2.0916,2.0888,2.1468,2.2598,2.3502,2.4682,2.6163,2.6952,2.7846,2.8888,2.9126,2.9428,2.9779,2.9402,2.9265,2.9152,2.7067,2.5174,2.3563,2.3027,2.1686,1.9965,0.0,0.0,0.0,0.0,0.0,0.0,0.0,0.0,0.0,0.0,0.0,0.0,0.0,0.0,0.0,0.0,0.0,0.0,0.0,0.0,0.0,0.0,0.0,0.0,0.0,0.0,0.0,0.0,0.0,0.0,0.0,0.0,0.0,0.0,0.0,2.7921,2.8097,2.895,2.9729,3.0281,3.0658,3.1085,3.1637,3.1662,3.1989,3.2742,3.2767,3.3043,3.3621,3.4173,3.4449,3.4449,3.5177,3.5554,3.5554,3.5755,3.6031,3.6335,3.6335,3.6584,3.6933,3.6533,3.6335,3.631,3.5981,3.5403,3.4675,3.3922,3.3621,3.3621,3.3621,3.3621,3.3621,0.0,0.0,1.3198,1.3198,1.3727,1.4299,1.4828,1.5387,1.612,1.7247,1.7877,1.8631,1.971,2.0865,2.1769,2.2322,2.2844,2.3145,2.3145,2.2669,2.2594,2.312,2.317,2.3697,2.4825,2.5385,2.6214,2.7344,2.8398,2.8888,2.8938,2.9528,2.9804,2.9804,2.9804,2.9895,3.0037,2.9252,2.7695,2.5661,2.5214,2.3674,2.1622,0.0,0.0,0.0,0.0,0.0,0.0,0.0,0.0,0.0,0.0,0.0,0.0,0.0,0.0,0.0,0.0,0.0,0.0,0.0,0.0,0.0,0.0,0.0,0.0,0.0,0.0,0.0,0.0,0.0,0.0,0.0,0.0,0.0,2.7444,2.8298,2.9202,2.9779,3.0331,3.0859,3.1386,3.1461,3.1687,3.224,3.229,3.2767,3.3897,3.3972,3.4223,3.4776,3.5282,3.5583,3.5583,3.6684,3.7211,3.7211,3.7739,3.8015,3.8015,3.8015,3.8015,3.8015,3.8015,3.8015,3.8015,3.8015,3.8015,3.7789,3.5655,3.4781,3.4781,3.4781,3.4781,3.4781,1.4884,1.3986,1.3198,1.3198,1.4011,1.4727,1.4878,1.5693,1.6547,1.7297,1.8204,1.9208,2.0339,2.1769,2.2924,2.3477,2.3998,2.4324,2.4324,2.4173,2.4173,2.4324,2.4732,2.5259,2.6021,2.654,2.7369,2.8473,2.8737,2.9113,2.9553,2.9704,2.9804,2.9804,2.9804,2.9818,2.9856,2.9667,2.895,2.7896,2.6609,2.5192,2.3853,0.0,0.0,0.0,0.0,0.0,0.0,0.0,0.0,0.0,0.0,0.0,0.0,0.0,0.0,0.0,0.0,0.0,0.0,0.0,0.0,0.0,0.0,0.0,0.0,0.0,0.0,0.0,0.0,0.0,0.0,0.0,0.0,2.9277,2.9126,2.9704,3.0357,3.0884,3.1436,3.1989,3.2566,3.2968,3.3445,3.3997,3.3978,3.4304,3.5006,3.5454,3.5931,3.6483,3.7036,3.7337,3.7337,3.7638,3.7789,3.7789,3.7939,3.8015,3.8015,3.8015,3.8015,3.8015,3.8015,3.8015,3.8015,3.8015,3.8015,3.7939,3.7337,3.7111,3.7111,3.7111,3.7111,3.7111,1.4934,1.4205,1.3584,1.3584,1.4305,1.4979,1.5211,1.5969,1.6798,1.7626,1.8456,1.9509,2.0893,2.2498,2.3697,2.428,2.5059,2.5511,2.5511,2.5711,2.5762,2.5511,2.6239,2.6917,2.7469,2.7821,2.8398,2.9302,2.9302,2.9478,2.9804,2.9804,2.9804,2.9804,2.9804,2.9804,2.9804,2.9804,2.9603,2.9176,2.7971,2.6841,2.5812,2.5485,2.433,2.2874,2.2874,2.2146,2.1164,2.1164,0.0,0.0,0.0,0.0,0.0,0.0,0.0,0.0,0.0,0.0,0.0,0.0,0.0,0.0,0.0,0.0,0.0,0.0,0.0,0.0,0.0,0.0,0.0,0.0,2.9553,3.0382,3.106,3.1235,3.1486,3.2039,3.2591,3.3144,3.3696,3.4048,3.4474,3.4981,3.5278,3.5655,3.6207,3.6759,3.7186,3.7513,3.7839,3.8015,3.8015,3.8241,3.8366,3.8366,3.8592,3.8718,3.8718,3.8718,3.8718,0.0,3.8718,3.8718,3.8718,3.8718,3.8718,0.0,0.0,0.0,0.0,0.0,3.8015,3.8015,1.5085,1.4551,1.4191,1.4191,1.4626,1.5135,1.5618,1.617,1.6901,1.8053,1.8657,1.9635,2.1317,2.2924,2.4155,2.4725,2.5762,2.6424,2.6499,2.7002,2.7102,2.66,2.762,2.8423,2.8888,2.8963,2.9277,2.9804,2.9804,2.9804,2.9804,2.9804,2.9804,2.9804,2.9804,2.9804,2.9804,2.9804,2.9804,2.9754,2.9227,2.8398,2.7469,2.7394,2.6414,2.5076,2.5076,2.4374,2.3471,2.3471,0.0,0.0,0.0,0.0,0.0,0.0,0.0,0.0,0.0,0.0,0.0,0.0,0.0,0.0,0.0,0.0,0.0,0.0,0.0,0.0,0.0,0.0,0.0,0.0,3.0457,3.1411,3.2867,3.2792,3.2767,3.3194,3.3746,3.4274,3.4731,3.4926,3.5203,3.5658,3.6232,3.6807,3.7236,0.0,0.0,0.0,0.0,3.8191,3.8191,3.8718,3.902,3.902,3.9471,3.9697,3.9697,3.9697,3.9697,3.9697,3.9697,3.9697,3.9697,3.9697,3.9697,3.9597,3.8592,3.8191,3.8191,3.8191,3.8191,3.8191,1.5643,1.511,1.4752,1.4752,1.5185,1.5567,1.5668,1.617,1.6901,1.8053,1.8657,1.9635,2.1317,2.2573,2.3672,2.47,2.541,2.5996,2.6474,2.7002,2.7243,2.7153,2.8172,2.8787,2.8888,2.9377,2.9679,2.9804,2.9804,2.9804,2.9804,2.9804,2.9804,2.9804,2.9804,2.9804,2.9804,2.9804,2.9804,2.9779,2.9679,2.9227,2.8549,2.8122,2.7469,2.6816,2.6816,2.6424,2.5845,2.5845,2.5084,2.4148,2.4148,2.3371,0.0,0.0,0.0,0.0,0.0,0.0,0.0,0.0,0.0,0.0,0.0,0.0,0.0,0.0,0.0,0.0,0.0,0.0,0.0,3.0357,3.1662,3.2717,3.3043,3.4123,3.4731,3.4449,3.4856,3.5232,3.5332,3.6182,3.6759,3.686,3.7387,3.7739,3.7839,3.8391,3.8718,3.8718,3.9145,3.9371,3.9371,3.9471,3.9546,3.9546,0.0,0.0,3.9697,3.9697,3.9697,3.9697,3.9697,3.9697,3.9697,3.9697,3.9697,3.9672,3.9446,3.9371,3.9371,3.9371,3.9371,3.9371,1.6149,1.5668,1.5311,1.5311,1.5517,1.5793,1.607,1.6346,1.6801,1.7677,1.8279,1.9133,2.0489,2.1895,2.302,2.3873,2.4958,2.5711,2.6047,2.7067,2.7695,2.7695,2.8775,2.9352,2.9352,2.9654,2.9804,2.9804,2.9804,2.9804,2.9804,2.9804,2.9804,2.9804,2.9804,2.9804,2.9804,2.9804,2.9804,2.9804,2.9804,2.9628,2.9327,2.9051,2.8599,2.8097,2.8097,2.7745,2.7293,2.7293,2.6741,2.6063,2.6063,2.5285,2.4205,0.0,0.0,0.0,0.0,0.0,0.0,0.0,0.0,0.0,0.0,0.0,0.0,0.0,0.0,2.8624,0.0,0.0,3.0859,3.1712,3.2541,3.337,3.4198,3.5253,3.5755,3.5157,3.5809,3.6358,3.6358,3.7111,3.7588,3.7588,3.8115,3.8442,3.8442,3.8969,3.927,3.927,3.9546,3.9697,3.9697,3.9697,3.9697,3.9697,3.9697,3.9697,3.9697,3.9697,3.9697,3.9697,3.9697,3.9697,3.9697,3.9697,3.9697,3.9697,3.9697,3.9697,3.9697,3.9697,3.9697,3.9697,1.65,1.6149,1.5844,1.5844,1.5844,1.5994,1.6425,1.65,1.6722,1.7322,1.7777,1.848,1.9685,2.1016,2.2142,2.302,2.4556,2.5485,2.5586,2.7067,2.7996,2.8097,2.9176,2.9804,2.9804,2.9804,2.9804,2.9804,2.9804,2.9804,2.9804,2.9804,2.9804,2.9804,2.9804,2.9804,2.9804,2.9804,2.9804,2.9804,2.9804,2.9804,2.9804,2.9804,2.9503,2.9063,2.9063,2.8825,2.8423,2.8423,2.8072,2.7595,2.7595,2.6917,2.5963,2.5335,2.4833,0.0,0.0,0.0,0.0,0.0,0.0,0.0,0.0,2.6967,2.7806,2.7806,2.9026,3.0131,3.0256,3.106,3.2039,3.3068,3.342,3.4048,3.5504,3.6182,3.6383,3.6009,3.681,3.7337,3.7337,3.7839,3.8165,3.8165,3.8718,3.907,3.907,3.9446,3.9697,3.9697,3.9697,3.9697,3.9697,3.9697,3.9697,3.9697,3.9697,3.9697,3.9697,3.9697,3.9697,3.9697,3.9697,3.9697,3.9697,3.9697,3.9697,3.9697,3.9697,3.9697,3.9697,3.9697,3.9697,3.9697,1.65,1.645,1.64,1.64,1.64,1.6425,1.6475,1.65,1.6722,1.7322,1.7448,1.8102,1.9635,1.9962,2.0916,2.292,2.4199,2.5109,2.5561,2.6716,2.7595,2.8072,2.9176,2.9804,2.9804,2.9804,2.9804,2.9804,2.9804,2.9804,2.9804,2.9804,2.9804,2.9804,2.9804,2.9804,2.9804,2.9804,2.9804,2.9804,2.9804,2.9804,2.9804,2.9804,2.9754,2.9704,2.9704,2.9654,2.9603,2.9603,2.9227,2.8712,2.8712,2.8323,2.762,2.6625,2.6273,2.6097,2.5485,2.5686,2.6248,2.6766,2.6967,2.7143,0.0,0.0,2.9503,2.9503,3.0407,3.1361,3.1863,3.2466,3.3093,3.3696,3.4625,3.5504,3.6229,3.6782,3.7236,3.7688,3.7839,3.7914,3.7914,3.8442,3.8768,3.8768,3.9295,3.9597,3.9597,3.9672,3.9697,3.9697,3.9697,3.9697,3.9697,3.9697,3.9697,3.9697,3.9697,3.9697,3.9697,3.9697,3.9697,3.9697,3.9697,3.9697,3.9697,3.9697,3.9697,3.9697,3.9697,3.9697,3.9697,3.9697,3.9697,3.9697,1.65,1.65,1.65,1.65,1.65,1.65,1.65,1.65,1.6575,1.6848,1.7174,1.7674,1.8353,1.9233,2.0439,2.2046,2.317,2.4048,2.4632,2.6314,2.7519,2.8072,2.9176,2.9804,2.9804,2.9804,2.9804,2.9804,2.9804,2.9804,2.9804,2.9804,2.9804,2.9804,2.9804,2.9804,2.9804,2.9804,2.9804,2.9804,2.9804,2.9804,2.9804,2.9804,2.9804,2.9804,2.9804,2.9804,0.0,2.9804,2.9628,2.9428,2.9428,2.9051,2.8499,2.8021,2.767,2.7369,2.7118,2.7243,2.7469,2.7695,2.8247,2.88,2.9026,2.993,3.0809,3.1135,3.1813,3.2541,3.3093,3.3646,3.4223,0.0,3.5483,3.6232,3.6759,3.7613,3.8241,3.8492,3.8793,3.8868,3.8542,3.9019,3.9346,3.9346,3.9572,3.9697,3.9697,3.9697,3.9697,3.9697,3.9697,3.9697,3.9697,3.9697,3.9697,3.9697,3.9697,3.9697,3.9697,3.9697,3.9697,3.9697,3.9697,3.9697,3.9697,3.9697,3.9697,3.9697,3.9697,3.9697,3.9697,3.9697,3.9697,3.9697,1.65,1.65,1.65,1.65,1.65,1.65,1.65,1.65,1.65,1.65,1.6873,1.7222,1.7398,1.8706,1.9987,2.0941,2.1895,2.2899,2.3929,2.5636,2.7067,2.8072,2.9026,2.9628,2.9804,2.9804,2.9804,2.9804,2.9804,2.9804,2.9804,2.9804,2.9804,2.9804,2.9804,2.9804,2.9804,2.9804,2.9804,2.9804,2.9804,2.9804,2.9779,2.9603,2.9553,2.9578,2.9729,2.9804,2.9754,2.9603,2.9654,2.9754,2.9603,2.9377,2.9126,2.8938,2.8612,2.8323,2.8323,2.8574,2.88,2.88,2.9528,3.0231,3.0231,3.0959,3.1788,3.234,3.2893,3.352,3.4223,3.4675,3.5082,3.568,3.6257,3.681,3.7337,3.8241,3.8919,3.9069,3.9446,3.9546,3.9145,3.9471,3.9697,3.9697,3.9697,3.9697,3.9697,3.9697,3.9697,3.9697,3.9697,3.9697,3.9697,3.9697,3.9697,3.9697,3.9697,3.9697,3.9697,3.9697,3.9697,3.9697,3.9697,3.9697,3.9697,3.9697,3.9697,3.9697,3.9697,3.9697,3.9697,3.9697,3.9697,3.9697,1.65,1.65,1.65,1.65,1.65,1.65,1.65,1.65,1.65,1.65,1.6525,1.6748,1.7348,1.838,1.9233,1.9811,2.0415,2.1697,2.3853,2.4556,2.5828,2.8021,2.8612,2.9227,2.9779,2.9804,2.9804,2.9804,2.9804,2.9804,2.9804,2.9804,2.9804,2.9804,2.9804,2.9804,2.9804,2.9804,2.9804,2.9804,2.9804,2.9804,2.9729,2.9139,2.8913,2.8988,2.9603,2.9804,2.9704,2.9113,2.9327,2.9704,2.9088,2.9327,2.9654,2.9063,2.8888,2.8863,2.8863,2.9665,3.0532,3.0532,3.0934,3.1336,3.1336,3.1788,3.2365,3.2943,3.3495,3.4198,3.5257,3.5458,3.5658,3.6279,3.681,3.7362,3.7914,3.8492,3.9069,3.9597,3.9697,3.9697,0.0,3.9697,3.9697,3.9697,3.9697,3.9697,3.9697,3.9697,3.9697,3.9697,3.9697,3.9697,3.9697,3.9697,3.9697,3.9697,3.9697,3.9697,3.9697,3.9697,3.9697,3.9697,3.9697,3.9697,3.9697,3.9697,3.9697,3.9697,3.9697,3.9697,3.9697,3.9697,3.9697,3.9697,1.65,1.65,1.65,1.65,1.65,1.65,1.65,1.65,1.65,1.65,1.65,0.0,0.0,0.0,0.0,0.0,2.0163,2.1169,2.2272,2.423,2.5511,2.5879,2.7494,2.8298,2.8122,2.885,2.9189,2.9189,2.9603,2.9804,2.9804,2.9804,2.9804,2.9804,2.9804,2.9804,2.9754,2.9377,2.9189,2.9189,2.9189,2.9001,2.8699,2.8838,2.8662,2.8423,0.0,2.8674,2.8649,2.8448,2.875,2.9176,2.8938,2.9327,2.9754,2.9553,2.9503,2.9578,2.9916,3.0331,3.0708,3.1035,3.1537,3.1938,3.1938,3.2365,3.2943,3.352,3.4073,3.4675,3.5357,3.5855,3.6132,3.638,3.7136,3.7789,3.799,3.8818,3.9496,3.9672,3.9697,0.0,0.0,0.0,0.0,3.9697,3.9697,3.9697,3.9697,3.9697,3.9697,3.9697,3.9697,3.9697,3.9697,3.9697,3.9697,3.9697,3.9697,3.9697,3.9697,3.9697,3.9697,3.9697,3.9697,3.9697,3.9697,3.9697,3.9697,3.9697,3.9697,3.9697,3.9697,3.9697,3.9697,3.9697,0.0,1.65,1.65,1.65,1.65,0.0,0.0,0.0,0.0,0.0,0.0,0.0,0.0,0.0,0.0,0.0,0.0,2.0289,2.1446,2.315,2.4431,2.5084,2.6465,2.7243,2.7293,2.8172,2.8512,2.8348,2.8925,2.9076,2.89,2.9101,2.9202,2.9202,2.9202,2.9202,2.9176,2.88,2.8875,2.9202,2.8762,2.8674,2.8674,2.8222,2.7821,0.0,2.7268,2.7218,2.7268,2.767,2.8323,2.8863,2.8662,2.9176,2.9804,2.9804,2.993,3.0156,3.0507,3.0884,3.126,3.1612,3.2114,3.2516,3.2516,3.2817,3.3244,3.3796,3.4173,3.46,3.5107,3.5705,3.6081,3.6081,3.7161,3.8015,3.8015,3.8969,3.9697,3.9697,3.9697,3.9697,0.0,0.0,0.0,3.9697,3.9697,3.9697,3.9697,3.9697,3.9697,3.9697,3.9697,3.9697,3.9697,3.9697,3.9697,3.9697,3.9697,3.9697,3.9697,3.9697,3.9697,3.9697,3.9697,3.9697,3.9697,3.9697,3.9697,3.9697,3.9697,3.9697,3.9697,3.9697,3.9697,3.9697,0.0,0.0,1.65,0.0,0.0,0.0,0.0,0.0,0.0,0.0,0.0,0.0,0.0,0.0,0.0,0.0,0.0,0.0,2.1217,2.1443,2.2648,2.5234,2.5402,2.5929,2.7007,2.7573,2.7623,2.7122,2.7698,2.7759,2.7258,2.7773,2.806,2.8097,2.806,2.806,2.8097,2.8072,2.8674,2.9578,2.8473,2.8649,2.9352,2.7253,2.6424,2.6348,2.5762,2.5561,2.5762,2.6866,2.7971,2.8762,2.8348,2.8925,2.9804,2.9829,3.0206,3.0633,3.0683,3.1436,3.2215,3.224,3.2667,3.3111,3.3111,3.3086,3.3194,3.3696,3.3847,3.4022,0.0,0.0,3.5458,3.5483,3.691,3.7965,3.8015,3.8969,3.9697,0.0,0.0,0.0,0.0,0.0,0.0,3.9697,0.0,3.9697,3.9697,3.9697,3.9697,3.9697,3.9697,3.9697,3.9697,3.9697,3.9697,3.9697,3.9697,3.9697,3.9697,3.9697,3.9697,3.9697,3.9697,3.9697,3.9697,3.9722,3.9747,3.9747,3.9772,3.9772,3.9772,3.9772,3.9772,3.9772,0.0,0.0,0.0,0.0,0.0,0.0,0.0,0.0,0.0,0.0,0.0,0.0,0.0,0.0,0.0,0.0,0.0,0.0,1.9559,2.0815,2.1619,2.1948,2.2707,2.3252,2.3401,2.3958,2.4316,2.4542,2.6033,2.6699,2.6577,2.6993,2.7558,2.806,2.7459,2.7558,2.8072,2.767,2.7645,2.7871,2.7203,2.6791,2.6615,2.6038,2.5586,2.5209,2.5084,2.5259,2.5711,2.6449,2.7394,2.8448,2.9151,2.9553,2.988,3.0281,3.0507,3.0783,3.1587,3.2014,3.2315,3.2742,3.3011,3.3111,3.3111,3.2742,3.2466,3.2616,3.2993,3.3345,3.347,0.0,0.0,3.5433,3.6584,0.0,3.7939,3.8969,0.0,3.9697,3.9697,3.9697,3.9697,3.9697,0.0,0.0,3.9697,3.9697,3.9697,3.9697,3.9697,3.9697,3.9697,3.9697,3.9697,3.9697,3.9697,3.9697,3.9697,3.9697,3.9697,3.9697,3.9697,3.9697,3.9697,3.9697,3.9722,4.0149,4.03,4.035,4.0752,4.0874,4.0874,4.0874,4.0874,4.0874,0.0,0.0,0.0,0.0,0.0,0.0,0.0,0.0,0.0,0.0,0.0,0.0,0.0,0.0,0.0,0.0,0.0,0.0,0.0,1.9356,1.9896,2.0289,2.0668,2.1069,2.1429,2.1978,2.2259,2.2296,2.355,2.4028,2.3813,2.4493,2.5037,2.547,2.5206,2.5504,2.6198,2.5901,2.6223,0.0,0.0,2.546,2.5485,2.4531,2.3979,2.3722,2.3973,2.4732,2.5711,2.6575,2.7394,2.8298,2.9428,2.9955,3.0206,3.0532,3.0959,3.1512,3.2365,3.2591,3.2717,3.3294,3.3244,3.3061,3.2767,3.2441,3.2139,3.1913,3.2114,3.234,3.234,3.3244,3.4173,0.0,0.0,0.0,3.7889,3.8768,3.9421,0.0,3.9697,0.0,3.9697,3.9697,3.9697,0.0,3.9697,3.9697,3.9697,3.9697,3.9697,3.9697,3.9697,3.9697,3.9697,3.9697,3.9697,3.9697,3.9948,4.0049,4.0074,4.03,4.0425,4.0425,0.0,4.0425,4.045,4.0752,4.0824,4.0849,4.1175,4.1275,4.1275,4.1275,4.1275,4.1275,0.0,0.0,0.0,0.0,0.0,0.0,0.0,0.0,0.0,0.0,1.6801,1.6726,0.0,0.0,0.0,0.0,0.0,0.0,0.0,0.0,1.7916,1.9329,1.8936,1.9097,2.0042,2.0511,2.0519,2.0121,2.0818,2.0927,2.0504,2.1426,2.1897,2.2018,2.2326,2.2834,2.3463,2.3463,2.4417,2.582,2.4285,2.4267,2.4933,0.0,2.2196,2.2268,2.2869,2.4173,2.5762,2.6917,2.7645,2.8298,2.9428,3.0181,3.0633,3.0708,3.1436,3.2365,3.3018,3.3144,3.3219,3.3771,3.342,3.2817,3.2315,3.2114,3.1863,3.1386,3.1286,3.1286,3.1286,3.2139,3.3068,3.3696,3.5102,3.6606,3.7739,3.8467,3.9069,3.9622,3.9697,3.9697,3.9697,3.9697,3.9697,3.9697,3.9697,3.9697,3.9697,3.9697,3.9697,3.9697,3.9697,3.9697,3.9697,3.9772,3.9798,3.9798,4.035,4.0626,4.0651,4.1075,4.1275,4.1275,0.0,0.0,4.13,4.1376,4.1401,4.1401,4.1476,4.1501,4.1501,4.1501,4.1501,4.1501,0.0,0.0,0.0,0.0,0.0,0.0,0.0,0.0,0.0,0.0,1.8455,1.7903,0.0,0.0,0.0,0.0,0.0,0.0,0.0,0.0,0.0,1.7223,1.6735,1.6687,1.7186,1.7263,1.7387,1.7624,1.9153,1.987,1.9772,2.0296,2.0886,2.1484,2.0912,2.1086,2.1815,2.1815,2.2289,2.2976,2.2159,2.2258,2.2799,2.1945,0.0,0.0,2.2744,2.4173,2.5762,2.6917,2.7645,2.8298,2.9428,3.0181,3.0708,3.1135,3.1712,3.2441,3.347,3.342,3.3219,3.3771,3.3119,3.234,3.224,3.1537,3.0859,3.0758,3.0758,3.0758,3.0758,3.126,3.2014,3.3043,3.4223,3.5554,3.7111,3.8216,3.9069,0.0,3.9697,3.9697,3.9697,3.9697,0.0,0.0,0.0,3.9697,3.9697,3.9697,3.9697,3.9697,3.9697,3.9697,3.9697,4.0149,4.0375,4.0375,4.0874,4.115,4.115,4.125,4.1275,4.1275,4.1275,0.0,4.1326,4.1831,4.2062,4.2112,4.2509,4.2685,4.2685,4.2685,4.2685,4.2685,0.0,0.0,0.0,0.0,0.0,0.0,0.0,1.8982,1.9639,2.0245,1.9871,1.9405,1.9058,1.8561,1.7897,0.0,0.0,0.0,0.0,0.0,0.0,1.5798,1.5322,1.5254,1.5722,1.5681,0.0,0.0,0.0,1.7562,1.7584,0.0,0.0,1.9096,1.8963,1.9291,1.9983,1.9983,2.0533,2.1378,2.0817,2.0913,2.1393,0.0,0.0,0.0,2.2096,2.3527,2.536,2.6524,2.7419,2.8348,2.9779,3.0583,3.111,3.1662,3.2416,3.3269,3.4098,3.3922,3.3646,3.4198,3.3269,3.2139,3.1863,3.1185,3.0532,3.0256,3.0181,3.0181,3.0181,3.0633,3.1361,3.2441,3.3571,3.4876,3.6581,3.7713,3.8642,3.9195,3.9521,3.9697,3.9697,3.9697,3.9697,0.0,0.0,3.9697,3.9697,3.9697,3.9697,3.9697,3.9973,4.0124,4.0124,4.0676,4.0953,4.0899,4.1505,4.1756,4.1781,4.2057,4.2183,4.2183,4.2183,0.0,4.2208,4.2484,4.264,4.2665,4.2861,4.2986,4.2986,4.2986,4.2986,4.2986,0.0,0.0,0.0,0.0,0.0,0.0,0.0,1.9591,2.0385,2.095,2.0989,2.0779,2.0263,1.9435,1.8403,0.0,0.0,0.0,0.0,0.0,0.0,0.0,0.0,0.0,0.0,0.0,0.0,0.0,0.0,0.0,0.0,0.0,0.0,0.0,0.0,0.0,1.82,1.8327,1.9032,0.0,0.0,1.9981,0.0,0.0,0.0,0.0,0.0,2.3,2.5134,2.6147,2.7268,2.8549,3.0131,3.0959,3.1461,3.1913,3.2842,3.3847,3.4399,3.4148,3.3822,3.4248,3.3194,3.1888,3.1361,3.0809,3.0281,2.9729,2.9603,2.9603,2.9603,2.9955,3.0658,3.1838,3.2893,3.4148,3.5931,3.7136,3.809,3.8844,3.9346,0.0,3.9697,3.9697,0.0,0.0,0.0,0.0,3.9697,3.9798,3.9873,3.9873,4.04,4.0701,4.0701,4.1229,4.1505,4.153,4.2057,4.2389,4.2414,4.2841,4.2986,4.2986,4.2986,0.0,0.0,4.2986,4.2986,4.2986,4.2986,4.2986,4.2986,4.2986,4.2986,4.2986,0.0,0.0,0.0,0.0,0.0,0.0,0.0,2.0055,2.0819,2.1615,2.1621,2.1541,2.1606,1.9824,1.8572,0.0,0.0,0.0,0.0,0.0,0.0,0.0,0.0,0.0,0.0,0.0,0.0,0.0,0.0,0.0,0.0,0.0,0.0,0.0,0.0,0.0,0.0,1.7119,0.0,0.0,0.0,0.0,0.0,0.0,0.0,0.0,0.0,2.3226,2.5611,2.6273,2.7519,2.9013,3.0256,3.0959,3.1411,3.1461,3.2265,3.3269,3.3822,3.3571,3.3212,3.3219,3.234,3.1336,3.0809,3.0256,2.9704,2.9126,2.8963,2.8963,2.8963,2.9013,2.9603,3.121,3.1964,3.3119,3.5282,3.6558,3.7663,3.8793,0.0,0.0,3.9697,3.9697,0.0,0.0,0.0,0.0,3.9722,4.0174,4.045,4.045,4.0924,4.12,4.12,4.1806,4.2137,4.2137,4.269,4.2911,4.2911,4.2961,4.2986,4.2986,4.2986,0.0,0.0,4.2986,4.2986,4.2986,4.2986,4.2986,4.2986,4.2986,4.2986,4.2986,0.0,0.0,0.0,0.0,0.0,0.0,1.9178,2.0198,2.1125,2.1725,2.1502,2.1409,2.1768,2.0071,1.8689,1.8231,0.0,0.0,0.0,0.0,0.0,0.0,0.0,0.0,0.0,0.0,0.0,0.0,0.0,0.0,0.0,0.0,0.0,0.0,0.0,0.0,0.0,0.0,0.0,0.0,0.0,0.0,0.0,0.0,0.0,0.0,0.0,0.0,2.4757,2.5636,2.6841,2.8122,2.9252,3.0167,3.0984,3.1311,3.219,3.3162,3.3345,3.3244,3.3111,3.3111,3.1989,3.0859,3.0658,2.993,2.9202,2.8938,2.8637,2.8524,2.8838,2.8888,2.9339,3.0708,3.1662,3.2767,3.4324,3.6081,3.7487,3.8266,3.9145,3.9697,0.0,0.0,0.0,0.0,0.0,0.0,4.0676,4.0902,4.0949,4.0949,4.153,4.1831,4.1831,4.2384,4.2715,4.266,4.2861,4.2986,4.2986,4.2986,4.2986,4.2986,4.2986,0.0,0.0,4.2986,4.2986,4.2986,4.2986,4.2986,4.2986,4.2986,4.2986,4.2986,0.0,0.0,0.0,0.0,0.0,1.8725,1.9056,2.012,2.1073,2.1549,2.1073,2.0912,2.1473,2.0044,1.8834,1.8221,1.6791,0.0,0.0,0.0,0.0,0.0,0.0,0.0,0.0,0.0,1.5463,1.558,1.6187,0.0,0.0,0.0,0.0,0.0,0.0,0.0,0.0,0.0,0.0,0.0,0.0,0.0,0.0,0.0,0.0,0.0,0.0,0.0,0.0,0.0,0.0,2.7228,2.8147,2.9227,3.0256,3.0959,3.1838,3.2591,3.2591,3.2591,3.2541,3.239,3.1461,3.0532,3.0142,2.9465,2.8787,2.8499,2.8122,2.7971,2.8373,2.8574,2.9051,3.0181,3.126,3.2416,3.3721,3.5655,3.7211,3.7914,0.0,3.9697,0.0,3.9697,0.0,0.0,0.0,0.0,0.0,4.1731,4.1756,4.158,4.2108,4.2464,4.2464,4.2841,4.2986,4.2986,4.2986,4.2986,4.2986,4.2986,4.2986,4.2986,0.0,0.0,0.0,4.2986,4.2986,4.2986,4.2986,4.2986,4.2986,4.2986,4.2986,4.2986,0.0,0.0,0.0,0.0,0.0,0.0,1.9098,1.9851,2.056,2.1052,2.0327,2.0085,2.0737,1.9788,1.9031,1.8831,1.7317,0.0,0.0,0.0,0.0,0.0,0.0,0.0,0.0,0.0,1.6581,1.6986,1.7905,1.8621,1.9056,1.9077,0.0,0.0,0.0,0.0,0.0,0.0,0.0,0.0,0.0,0.0,0.0,0.0,0.0,0.0,0.0,0.0,0.0,0.0,0.0,0.0,0.0,2.8047,2.9139,3.0306,3.0984,3.1411,3.1411,3.1411,3.1286,3.0758,3.0633,3.0331,2.9164,2.8888,2.8624,2.7519,2.7293,2.7329,2.7329,2.7745,2.8473,2.9603,3.0708,3.1989,3.3671,3.5374,3.6784,0.0,3.8994,3.9697,3.9697,0.0,0.0,0.0,0.0,0.0,0.0,4.266,4.271,4.2213,4.274,4.2961,4.2961,4.2986,4.2986,4.2986,4.2986,4.2986,4.2986,4.2986,4.2986,0.0,0.0,0.0,0.0,4.2986,4.2986,4.2986,4.2986,4.2986,4.2986,4.2986,4.2986,4.2986,0.0,0.0,0.0,0.0,0.0,0.0,0.0,1.9913,2.0912,2.1093,2.0596,2.0416,2.0941,1.9858,1.894,1.8565,1.7451,0.0,0.0,0.0,0.0,0.0,0.0,0.0,0.0,0.0,1.7027,1.7482,1.7771,1.8009,1.8154,1.8154,1.8039,1.7926,0.0,0.0,0.0,0.0,0.0,0.0,0.0,0.0,0.0,0.0,0.0,0.0,0.0,0.0,0.0,0.0,0.0,0.0,0.0,0.0,0.0,2.88,2.9829,3.0859,3.0859,3.0859,3.0809,3.0658,3.0331,2.9854,2.9063,2.8612,2.8172,2.7444,2.7027,2.6876,2.7218,2.7745,2.8348,2.9076,3.0432,3.1838,3.3144,3.5102,3.6784,3.7889,3.8994,3.9697,0.0,0.0,0.0,0.0,0.0,0.0,0.0,4.2942,4.2886,4.2766,4.2886,4.2986,4.2986,4.2986,4.2986,4.2986,4.2986,4.2986,4.2986,4.2986,0.0,0.0,0.0,0.0,0.0,4.2986,4.2986,4.2986,4.2986,4.2986,4.2986,4.2986,4.2986,4.2986,0.0,0.0,0.0,0.0,0.0,0.0,0.0,1.9499,2.0472,2.0803,2.0452,2.0312,2.0694,1.992,1.9085,1.8347,1.7657,0.0,0.0,0.0,0.0,0.0,0.0,0.0,1.6622,1.7048,1.775,1.8721,1.8887,1.9238,1.9789,1.9789,1.9569,1.9217,1.8866,1.8574,0.0,0.0,0.0,0.0,0.0,0.0,1.7545,0.0,0.0,0.0,0.0,0.0,0.0,0.0,0.0,0.0,0.0,0.0,0.0,0.0,2.8674,2.9704,2.9891,3.0131,3.0306,3.0306,2.988,2.9327,2.8712,2.8197,2.7645,2.7128,2.6725,2.665,2.7193,2.7745,2.8348,2.9126,3.0457,3.1863,3.3194,3.5127,3.696,3.8467,0.0,0.0,0.0,0.0,0.0,0.0,0.0,0.0,0.0,4.2986,4.2986,4.2986,4.2986,4.2986,4.2986,4.2986,4.2986,4.2986,4.2986,4.2986,4.2986,4.2986,0.0,0.0,0.0,0.0,0.0,4.2986,4.2986,4.2986,4.2986,4.2986,4.2986,4.2986,4.2986,4.2986,0.0,0.0,0.0,0.0,0.0,0.0,0.0,1.8745,1.9347,2.0127,1.9913,1.9775,1.9961,1.9788,1.9217,1.8104,0.0,0.0,0.0,0.0,0.0,0.0,0.0,0.0,1.7089,1.7585,1.8701,2.0436,2.0912,2.1818,2.308,2.308,2.2625,2.1776,2.0829,1.9955,1.9015,0.0,0.0,0.0,1.7157,1.7518,0.0,0.0,0.0,0.0,0.0,0.0,0.0,0.0,0.0,0.0,0.0,0.0,0.0,0.0,0.0,0.0,0.0,2.9252,2.9754,2.9779,2.9377,2.8813,2.8298,2.777,0.0,2.6725,2.66,2.6776,2.7278,2.7795,2.8524,2.9603,3.0733,3.2039,3.3721,3.5454,3.7385,3.9446,3.9697,0.0,0.0,0.0,0.0,0.0,0.0,0.0,0.0,4.2986,4.2986,4.2986,4.2986,4.2986,4.2986,4.2986,4.2986,4.2986,4.2986,4.2986,4.2986,4.2986,0.0,0.0,0.0,0.0,0.0,4.2986,4.2986,4.2986,4.2986,4.2986,4.2986,4.2986,4.2986,4.2986,0.0,0.0,0.0,0.0,0.0,0.0,0.0,0.0,0.0,0.0,1.8808,1.8754,1.8792,1.8432,1.7957,0.0,0.0,0.0,0.0,0.0,0.0,0.0,0.0,0.0,1.805,1.8858,1.9831,2.0948,2.1424,2.1818,2.2128,2.2128,2.2004,2.1776,2.1217,2.0245,1.9015,1.7585,0.0,0.0,1.6728,1.6927,0.0,0.0,0.0,0.0,2.1115,2.203,0.0,0.0,0.0,0.0,0.0,0.0,0.0,0.0,2.6424,2.7002,2.7519,0.0,2.9227,2.9679,2.9679,2.9428,0.0,2.8587,2.8373,2.7821,2.772,2.777,2.7896,2.8373,2.8938,2.9679,3.1035,3.2616,3.4299,3.6684,3.8693,3.9572,3.9697,3.9697,0.0,0.0,0.0,0.0,0.0,0.0,0.0,4.2986,4.2986,4.2986,4.2986,4.2986,4.2986,4.2986,4.2986,4.2986,4.2986,4.2986,4.2986,4.2986,0.0,0.0,0.0,0.0,4.2986,4.2986,4.2986,4.2986,4.2986,4.2986,4.2986,4.2986,4.2986,4.2986,0.0,0.0,0.0,0.0,0.0,0.0,0.0,0.0,0.0,0.0,0.0,0.0,0.0,0.0,0.0,0.0,0.0,0.0,0.0,0.0,0.0,0.0,0.0,1.7988,1.8725,1.9603,2.0721,2.2066,2.2522,2.2977,2.337,2.337,2.3163,2.2708,2.1611,2.0348,1.9036,1.7812,1.7213,1.6995,1.6806,0.0,0.0,0.0,0.0,0.0,2.1464,2.231,0.0,2.3095,2.3321,2.3653,0.0,0.0,0.0,0.0,2.5812,2.6273,2.7102,2.8097,2.8963,2.9327,2.9402,2.9327,2.8963,2.8687,2.8473,2.8172,2.8097,2.8172,2.8423,2.895,2.9679,3.0733,3.2064,3.3746,3.5931,3.7739,3.9069,3.9622,3.9923,0.0,0.0,0.0,0.0,0.0,0.0,0.0,0.0,4.2986,4.2986,4.2986,4.2986,4.2986,4.2986,4.2986,4.2986,4.2986,4.2986,4.2986,4.2986,4.2986,4.2986,0.0,0.0,0.0,4.2986,4.2986,4.2986,4.2986,4.2986,4.2986,4.2986,4.2986,4.2986,4.2986,0.0,0.0,0.0,0.0,0.0,0.0,0.0,0.0,0.0,0.0,0.0,0.0,0.0,0.0,0.0,0.0,0.0,0.0,0.0,0.0,0.0,0.0,0.0,1.8828,1.9305,2.0369,2.1756,2.3391,2.3929,2.4571,2.5337,2.521,2.4716,2.3743,2.1983,2.0493,1.921,1.8237,1.7626,1.7381,1.7399,0.0,0.0,0.0,0.0,0.0,0.0,0.0,0.0,2.2944,2.3005,2.3165,2.3579,0.0,0.0,0.0,0.0,0.0,2.6866,2.7971,2.8787,2.8863,2.8888,2.8913,2.9013,2.8699,2.8373,2.8373,2.8373,2.8524,2.9038,2.9654,3.0557,3.2089,3.3495,3.5278,3.7789,3.8642,3.917,3.9647,4.0174,0.0,0.0,0.0,0.0,0.0,0.0,0.0,0.0,4.2986,4.2986,4.2986,4.2986,4.2986,4.2986,4.2986,4.2986,4.2986,4.2986,4.2986,4.2986,4.2986,4.2986,0.0,0.0,0.0,4.2986,4.2986,4.2986,4.2986,4.2986,4.2986,4.2986,4.2986,4.2986,4.2986,0.0,0.0,0.0,0.0,0.0,0.0,0.0,0.0,0.0,0.0,0.0,0.0,0.0,0.0,0.0,0.0,0.0,0.0,0.0,0.0,0.0,1.8733,1.9305,1.9803,2.0168,2.2273,2.366,2.428,2.5171,2.5647,2.5771,2.5399,2.4529,2.3246,2.217,2.1155,2.0141,1.8837,1.8586,1.8989,1.8611,0.0,0.0,0.0,0.0,0.0,0.0,0.0,0.0,2.2255,2.2616,2.303,2.253,0.0,0.0,0.0,0.0,0.0,2.6323,2.7394,2.8348,2.8787,2.8888,2.9013,2.9553,2.9603,2.9528,2.9528,2.9528,2.9704,3.0256,3.0783,3.1537,3.2742,3.5052,3.7161,0.0,0.0,3.9597,3.9697,0.0,0.0,0.0,0.0,0.0,0.0,0.0,0.0,0.0,4.2986,4.2986,4.2986,4.2986,4.2986,4.2986,4.2986,4.2986,4.2986,4.2986,4.2986,4.2986,4.2986,4.2986,0.0,0.0,4.2986,4.2986,4.2986,4.2986,4.2986,4.2986,4.2986,4.2986,4.2986,4.2986,4.2986,0.0,0.0,0.0,0.0,0.0,0.0,0.0,0.0,0.0,0.0,0.0,0.0,0.0,0.0,0.0,0.0,0.0,0.0,0.0,0.0,0.0,1.9077,1.9975,2.07,2.1155,2.2956,2.4219,2.4879,2.5813,2.6293,2.6273,2.5544,2.4633,2.3556,2.2335,2.13,2.0292,1.8961,1.8574,1.886,0.0,0.0,0.0,0.0,0.0,0.0,0.0,0.0,0.0,0.0,2.2586,2.2555,2.2616,0.0,0.0,0.0,0.0,0.0,2.6625,2.7268,2.7871,2.8687,2.9176,2.9478,2.9729,3.003,3.0231,3.0231,3.0457,3.0834,3.1386,3.1938,3.3011,3.4977,3.686,3.8366,3.9195,3.9546,3.9798,0.0,0.0,0.0,0.0,0.0,0.0,0.0,0.0,0.0,0.0,0.0,4.2986,4.2986,4.2986,4.2986,4.2986,4.2986,4.2986,4.2986,4.2986,4.2986,4.2986,4.2986,4.2986,4.2986,0.0,4.2986,4.2986,4.2986,4.2986,4.2986,4.2986,4.2986,4.2986,4.2986,4.2986,4.2986,0.0,0.0,0.0,0.0,0.0,0.0,0.0,0.0,0.0,0.0,0.0,0.0,0.0,0.0,0.0,0.0,0.0,0.0,0.0,0.0,1.8766,1.952,2.0452,2.1321,2.2108,2.3494,2.4633,2.5544,2.6455,2.6874,2.675,2.5813,2.484,2.3826,2.2542,2.1366,2.0277,1.9189,1.8727,1.8731,0.0,0.0,0.0,0.0,0.0,0.0,0.0,0.0,0.0,0.0,0.0,0.0,0.0,0.0,0.0,2.4593,2.5285,2.6013,2.7017,2.7469,2.7896,2.8875,2.9478,2.9829,2.9955,3.0407,3.0834,3.0959,3.1311,3.1838,3.2641,3.347,3.4871,3.7186,3.8316,3.912,3.9622,3.9798,0.0,0.0,0.0,0.0,0.0,0.0,0.0,0.0,0.0,0.0,0.0,0.0,4.2986,4.2986,4.2986,4.2986,4.2986,4.2986,4.2986,4.2986,4.2986,4.2986,4.2986,4.2986,4.2986,4.2986,4.2986,4.2986,4.2986,4.2986,4.2986,4.2986,4.2986,4.2986,4.2986,4.2986,4.2986,4.2986,0.0,0.0,0.0,0.0,0.0,0.0,0.0,0.0,0.0,0.0,0.0,0.0,0.0,0.0,0.0,0.0,0.0,0.0,0.0,0.0,1.9147,2.0886,2.0622,2.13,2.3039,2.4426,2.5564,2.6521,2.7386,2.7614,2.7247,2.6314,2.513,2.3867,2.2873,2.1638,2.0196,1.9858,1.97,1.9727,1.9911,0.0,0.0,0.0,0.0,0.0,0.0,0.0,0.0,0.0,0.0,0.0,0.0,0.0,2.3296,2.4464,2.5561,2.6549,2.7153,2.8021,2.8913,2.9578,2.9754,2.993,3.0432,3.0959,3.1486,3.1989,3.2139,3.2641,3.4248,3.583,3.7287,3.8542,3.8869,3.912,3.9622,0.0,0.0,0.0,0.0,0.0,0.0,0.0,0.0,0.0,0.0,0.0,0.0,0.0,0.0,4.2986,4.2986,4.2986,4.2986,4.2986,4.2986,4.2986,4.2986,4.2986,4.2986,4.2986,4.2986,4.2986,4.2986,4.2986,4.2986,4.2986,4.2986,4.2986,4.2986,4.2986,4.2986,4.2986,4.2986,4.2986,0.0,0.0,0.0,0.0,0.0,0.0,0.0,0.0,0.0,0.0,0.0,0.0,0.0,0.0,0.0,0.0,0.0,0.0,0.0,1.8953,1.9844,2.1052,2.0948,2.1821,2.3971,2.4487,2.5378,2.6625,2.72,2.7475,2.7289,2.6356,2.5461,2.4654,2.3163,2.2007,2.1106,2.0203,1.9802,1.9763,1.9568,1.9521,0.0,0.0,0.0,0.0,0.0,0.0,0.0,0.0,2.0773,2.0942,2.1542,2.2536,2.3668,2.4539,2.5837,2.7128,2.7645,2.8624,2.9679,3.0557,3.1311,3.1788,3.1637,3.2039,3.2692,3.3596,3.4003,3.463,3.6006,3.7337,3.8416,3.8844,3.917,3.9446,0.0,0.0,0.0,0.0,0.0,0.0,0.0,0.0,0.0,0.0,0.0,0.0,0.0,0.0,0.0,4.2986,4.2986,4.2986,4.2986,4.2986,4.2986,4.2986,4.2986,4.2986,4.2986,4.2986,4.2986,4.2986,4.2986,4.2986,4.2986,4.2986,4.2986,4.2986,4.2986,4.2986,4.2986,4.2986,4.2986,4.2986,0.0,0.0,0.0,0.0,0.0,0.0,0.0,0.0,0.0,0.0,0.0,0.0,0.0,0.0,0.0,0.0,0.0,0.0,1.8621,1.9367,2.0197,2.1073,2.1114,2.2152,2.4445,2.4507,2.5213,2.6625,2.7081,2.7372,2.7448,2.6346,2.5602,2.5106,2.3371,2.2259,2.1621,2.0659,2.0017,1.9658,1.9417,1.9243,0.0,0.0,0.0,0.0,0.0,0.0,0.0,0.0,2.0421,2.0421,2.1713,2.2719,2.3637,2.4747,2.6068,2.7356,2.8149,2.9176,3.0306,3.1386,3.2365,3.3144,3.3445,3.3696,3.4173,3.5278,3.6081,3.6835,3.7588,3.8492,3.912,0.0,3.9446,0.0,0.0,0.0,0.0,0.0,0.0,0.0,0.0,0.0,0.0,0.0,0.0,0.0,0.0,0.0,0.0,0.0,4.2986,4.2986,4.2986,4.2986,4.2986,4.2986,4.2986,4.2986,4.2986,4.2986,4.2986,4.2986,4.2986,4.2986,4.2986,4.2986,4.2986,4.2986,4.2986,4.2986,4.2986,4.2986,4.3087,4.3237,0.0,0.0,0.0,0.0,0.0,0.0,0.0,0.0,0.0,0.0,0.0,0.0,0.0,0.0,0.0,0.0,0.0,0.0,1.9098,1.9533,2.0197,2.1073,2.1077,2.2152,2.4445,2.4487,2.5213,2.6625,2.7081,2.7489,2.7834,2.6326,2.5464,2.5127,2.3535,2.2309,2.1492,2.1209,2.0488,1.9526,1.9734,1.9513,1.9098,0.0,0.0,0.0,0.0,0.0,0.0,0.0,1.9843,2.0611,2.1718,2.2342,2.3013,2.5012,2.6216,2.7184,2.855,2.9715,3.0844,3.1964,3.2667,3.3696,3.5927,3.5956,3.5809,3.6985,3.809,3.8919,3.8919,3.932,0.0,3.9697,0.0,0.0,0.0,0.0,0.0,0.0,0.0,0.0,0.0,0.0,0.0,0.0,0.0,0.0,0.0,0.0,0.0,0.0,4.2986,4.2986,4.2986,4.2986,4.2986,4.2986,4.2986,4.2986,4.2986,4.2986,4.2986,4.2986,4.2986,4.2986,4.2986,4.2986,4.2986,4.2986,4.2986,4.2986,4.2986,4.2986,4.3338,4.379,0.0,0.0,0.0,0.0,0.0,0.0,0.0,0.0,0.0,0.0,0.0,0.0,0.0,0.0,0.0,0.0,0.0,0.0,1.9098,1.9789,2.0493,2.1093,2.1424,2.2232,2.3557,2.4177,2.5378,2.7102,2.7247,2.7206,2.6951,2.6181,2.5602,2.5127,2.3722,2.2959,2.2628,2.1552,2.0746,2.0097,1.9893,1.9513,1.9098,0.0,0.0,0.0,0.0,0.0,0.0,0.0,0.0,0.0,2.1026,2.2041,2.3115,2.5045,2.6181,2.7244,2.9023,2.9618,3.0291,3.2748,3.3835,3.484,3.7041,3.6784,3.6533,3.8065,3.8944,3.9446,3.9446,3.9597,0.0,0.0,0.0,0.0,0.0,0.0,0.0,0.0,0.0,0.0,0.0,0.0,0.0,0.0,0.0,0.0,0.0,0.0,0.0,0.0,4.2986,4.2986,4.2986,4.2986,4.2986,4.2986,4.2986,4.2986,4.2986,4.2986,4.2986,4.2986,4.2986,4.2986,4.2986,4.2986,4.2986,4.2986,4.2986,4.2986,4.3037,4.3413,4.3664,4.3865,0.0,0.0,0.0,0.0,0.0,0.0,0.0,0.0,1.9098,1.9098,1.9098,1.9098,0.0,0.0,0.0,1.9098,1.9098,1.9098,1.9098,1.9748,2.0369,2.0788,2.128,2.2045,2.3163,2.3908,2.4902,2.6185,2.6584,2.6579,2.6172,2.5698,2.5393,2.5127,2.3701,2.3103,2.3101,2.1901,2.101,2.0374,2.0141,1.9679,1.9098,0.0,0.0,0.0,0.0,0.0,0.0,0.0,0.0,0.0,2.0765,2.1717,2.2754,2.5216,2.6175,2.6962,2.9419,2.998,3.044,3.2914,3.4188,3.5405,3.7842,3.8015,3.8014,3.8994,3.9471,3.9697,3.9697,3.9697,0.0,0.0,0.0,0.0,0.0,0.0,0.0,0.0,0.0,0.0,0.0,0.0,0.0,0.0,0.0,0.0,0.0,0.0,0.0,0.0,4.2986,4.2986,4.2986,4.2986,4.2986,4.2986,4.2986,4.2986,4.2986,4.2986,4.2986,4.2986,4.2986,4.2986,4.2986,4.2986,4.2986,4.2986,4.2986,4.3112,4.3338,4.3689,4.4091,4.4518,0.0,0.0,0.0,0.0,0.0,0.0,0.0,1.9098,1.9098,1.9098,1.9098,1.9098,0.0,0.0,0.0,1.9098,1.9098,1.9098,1.9098,1.9533,1.9969,2.0348,2.0845,2.1714,2.2977,2.3494,2.395,2.4279,2.5337,2.5723,2.5476,2.5108,2.4972,2.5003,2.3494,2.2961,2.306,2.219,2.1242,2.0395,2.0395,1.9872,1.9065,1.9098,0.0,0.0,0.0,0.0,0.0,0.0,0.0,0.0,2.067,2.1321,2.2087,2.5335,2.5973,2.6341,2.9548,3.0361,3.0738,3.2483,3.3983,3.5696,3.8366,3.932,3.9697,3.9697,3.9697,3.9697,3.9697,0.0,0.0,0.0,0.0,0.0,0.0,0.0,0.0,0.0,0.0,0.0,0.0,0.0,0.0,0.0,0.0,0.0,0.0,0.0,0.0,4.2986,4.2986,4.2986,4.2986,4.2986,4.2986,0.0,4.2986,4.2986,4.2986,4.2986,4.2986,4.2986,4.2986,4.2986,4.2986,4.2986,4.2986,4.2986,4.3037,4.3363,4.3815,4.3915,4.4593,4.5497,0.0,0.0,0.0,0.0,0.0,0.0,1.9098,1.9098,1.9098,1.9098,1.9098,1.9098,1.9098,1.9098,0.0,1.9098,1.9098,1.9098,1.9098,1.9533,1.9844,1.9927,2.0679,2.1259,2.1549,2.2377,2.2752,2.2594,2.4442,2.5148,2.4753,2.5021,2.4817,2.4136,2.3433,2.2937,2.2604,2.2045,2.1205,2.0237,2.0359,1.9768,1.8885,1.9031,1.8568,0.0,0.0,0.0,0.0,0.0,0.0,0.0,1.946,2.0387,2.1506,2.3908,2.4596,2.5289,2.83,2.8566,2.8733,3.1748,3.4589,3.71,3.9064,3.9622,3.9697,3.9697,3.9697,3.9697,0.0,0.0,0.0,0.0,0.0,0.0,0.0,0.0,0.0,0.0,0.0,0.0,0.0,0.0,0.0,0.0,0.0,0.0,0.0,0.0,0.0,4.2986,4.2986,4.2986,4.2986,4.2986,4.2986,0.0,4.2986,4.2986,4.2986,4.2986,4.2986,4.2986,4.2986,4.2986,4.2986,4.2986,4.2986,4.3011,4.3463,4.3689,4.3915,4.4794,4.5271,4.5547,0.0,0.0,0.0,0.0,0.0,0.0,0.0,0.0,1.9098,1.9098,1.9098,1.9098,1.9098,1.9098,0.0,0.0,1.9098,1.9098,1.9098,1.9326,1.9554,1.9782,2.041,2.0746,2.0746,2.1466,2.1762,2.1627,2.3144,2.3825,2.3679,2.4052,2.3991,2.3536,2.306,2.2729,2.2459,2.1889,2.1254,2.0617,2.037,1.9877,1.9274,1.9147,1.8651,1.8082,1.8385,0.0,0.0,0.0,0.0,0.0,0.0,0.0,2.0549,2.3082,2.3847,2.4566,2.755,2.8076,2.8657,3.2551,3.5137,3.722,3.9235,3.9258,3.8973,3.9594,3.9697,3.9697,0.0,0.0,0.0,0.0,0.0,0.0,0.0,0.0,0.0,0.0,0.0,0.0,0.0,0.0,0.0,0.0,0.0,0.0,0.0,4.2986,4.2986,4.2986,4.2986,4.2986,4.2986,4.2986,4.2986,4.2986,4.2986,4.2986,4.2986,4.2986,4.2986,4.2986,4.2986,4.2986,4.2986,4.3263,4.3363,4.3438,4.3991,4.4367,4.4669,4.5271,4.5648,4.5924,0.0,0.0,0.0,0.0,0.0,0.0,0.0,0.0,0.0,1.9098,1.9098,1.9098,1.9098,1.9098,1.9098,0.0,0.0,0.0,1.9098,1.9098,1.9264,1.9658,2.0079,2.0307,2.0307,2.0762,2.1031,2.1114,2.1963,2.2525,2.2737,2.3062,2.3143,2.306,2.2749,2.2522,2.2278,2.1873,2.1463,2.1086,2.0606,2.0211,1.9955,1.9561,1.9119,1.8642,1.8559,1.7968,1.7213,1.7068,0.0,0.0,0.0,0.0,1.9565,2.243,2.3305,2.3959,2.6783,2.7854,2.9117,3.3231,3.4971,3.631,3.8505,3.8267,3.795,3.9154,3.9362,0.0,0.0,0.0,0.0,0.0,0.0,0.0,0.0,0.0,0.0,0.0,0.0,0.0,0.0,0.0,0.0,0.0,0.0,0.0,4.2986,4.2986,4.2986,4.2986,4.2986,4.2986,4.2986,4.2986,4.2986,4.2986,4.2986,4.2986,4.2986,4.2986,4.2986,4.2986,4.2986,4.3037,4.3162,4.3614,4.3865,4.3991,4.4543,4.4869,4.5176,4.5538,4.5779,4.5999,0.0,0.0,0.0,0.0,0.0,0.0,0.0,0.0,0.0,0.0,1.9098,1.9098,1.9098,1.9098,1.9098,1.9098,1.9098,1.9098,1.9098,0.0,0.0,1.9202,1.9637,1.9886,1.9886,2.0286,2.0684,2.1114,2.1631,2.2128,2.2565,2.2998,2.2977,2.2604,2.2936,2.2567,2.1653,2.2136,2.1896,2.1217,2.1442,2.125,2.0765,2.0793,2.0307,1.9554,1.916,1.8683,1.8071,1.7275,1.7006,0.0,0.0,0.0,1.9013,2.1677,2.2547,2.3068,2.5162,2.6844,2.8613,3.1334,3.29,3.4219,3.5854,3.6348,3.6727,0.0,0.0,0.0,0.0,0.0,0.0,0.0,0.0,0.0,0.0,0.0,0.0,0.0,0.0,0.0,0.0,0.0,0.0,0.0,0.0,0.0,4.2986,4.2986,4.2986,4.2986,4.2986,4.2986,4.2986,4.2986,4.2986,4.2986,4.2986,4.2986,4.2986,4.2986,4.2986,4.2986,4.2986,4.3237,4.3689,4.3765,4.4091,4.4568,4.5146,4.466,4.3893,4.5579,4.5476,4.4706,0.0,0.0,0.0,0.0,0.0,0.0,0.0,0.0,0.0,0.0,0.0,1.9098,1.9098,1.9098,1.9098,1.9098,1.9098,1.9098,1.9098,1.9098,1.9098,1.9098,1.9305,1.9409,1.9409,1.9865,2.0265,2.0721,2.1197,2.1776,2.2501,2.2708,2.2752,2.2673,2.2792,2.2445,2.1841,2.1896,2.1791,2.151,2.1189,2.0965,2.0818,2.048,2.0134,1.9768,1.9565,1.9301,1.8965,1.8669,1.8457,1.8358,1.8571,0.0,0.0,0.0,2.1047,2.1996,2.4914,2.6999,2.888,3.1091,3.2603,3.3874,3.5097,3.5164,3.5553,3.7501,0.0,0.0,0.0,0.0,0.0,0.0,0.0,0.0,0.0,0.0,0.0,0.0,0.0,0.0,0.0,0.0,0.0,0.0,0.0,4.2986,4.2986,4.2986,4.2986,4.2986,4.2986,4.2986,4.2986,4.2986,4.2986,4.2986,4.2986,4.2986,4.2986,4.3288,4.3438,4.3438,4.3438,4.374,4.4292,4.4618,4.4895,4.5112,4.4897,4.4488,4.3938,4.3969,4.4127,4.4374,0.0,0.0,0.0,0.0,0.0,0.0,0.0,0.0,0.0,0.0,0.0,1.9098,1.9098,0.0,0.0,0.0,1.9098,1.9098,1.9098,1.8994,1.8932,1.8932,1.8828,1.8775,1.8932,1.9264,1.972,2.0265,2.1006,2.1716,2.2335,2.2824,2.3058,2.2961,2.2877,2.2589,2.2105,2.198,2.1894,2.1771,2.1278,2.1159,2.1194,2.0803,2.0604,2.0484,2.0346,2.0195,2.0063,1.9897,1.9648,1.9404,1.9339,1.9136,0.0,0.0,0.0,2.1665,2.4493,2.6382,2.7968,2.9894,3.1323,3.2528,3.357,0.0,3.4016,0.0,0.0,0.0,0.0,0.0,0.0,0.0,0.0,0.0,0.0,0.0,0.0,0.0,0.0,0.0,0.0,0.0,0.0,0.0,0.0,4.2986,4.2986,4.2986,4.2986,4.2986,4.2986,4.2986,4.2986,4.2986,4.2986,4.2986,4.3112,4.3187,4.3212,4.3765,4.3919,4.3672,4.3524,4.3796,4.4318,4.4417,4.4569,4.4595,4.3959,4.3544,4.3169,4.2454,4.2667,4.3294,0.0,0.0,0.0,0.0,0.0,0.0,0.0,0.0,0.0,0.0,0.0,1.9098,1.9098,1.9098,1.9098,1.9098,1.9098,1.9098,1.9098,1.8683,1.8455,1.8455,1.803,0.0,1.8434,1.8476,1.8932,1.9824,2.1467,2.2103,2.1859,2.3745,2.4177,2.3492,2.3722,2.3247,2.2246,2.2855,2.2633,2.1948,2.2453,2.2575,2.2473,2.2875,2.2754,2.2291,2.1869,2.1689,2.1527,2.0439,1.9777,1.9377,1.9168,1.8799,1.8741,0.0,0.0,0.0,2.3412,2.3964,2.4774,2.6506,2.7702,2.8753,2.9978,0.0,0.0,0.0,0.0,0.0,0.0,0.0,0.0,0.0,0.0,0.0,0.0,0.0,0.0,0.0,0.0,0.0,0.0,0.0,0.0,0.0,0.0,4.2986,4.2986,4.2986,4.2986,4.2986,4.2986,4.2986,4.2986,4.2986,4.2986,4.2986,4.3514,4.3765,4.379,4.4317,4.4141,4.3361,4.2856,4.2952,4.3372,4.2148,4.193,4.2368,4.2328,4.1524,4.0581,4.1779,4.146,4.0581,0.0,0.0,0.0,0.0,0.0,0.0,0.0,0.0,0.0,0.0,0.0,0.0,0.0,1.9554,1.943,1.9139,1.9098,1.9098,1.9098,1.8662,1.8414,1.8414,1.7968,1.7957,1.8517,1.8879,1.9543,2.0555,2.1103,2.1734,2.2521,2.2726,2.319,2.3757,2.3681,2.3535,2.3332,2.304,2.2974,2.3009,2.2574,2.2611,2.2934,2.28,2.2853,2.2932,2.2712,2.2559,2.2409,2.2104,2.1728,2.1271,0.0,0.0,0.0,1.9952,2.0585,2.1528,2.2741,2.3927,2.5091,2.6059,2.7426,2.8727,2.9445,3.0378,3.1789,0.0,0.0,0.0,0.0,0.0,0.0,0.0,0.0,0.0,0.0,0.0,0.0,0.0,0.0,0.0,0.0,0.0,0.0,0.0,0.0,0.0,4.2986,4.2986,4.2986,4.2986,4.2986,4.2986,4.2986,4.3338,4.3514,4.3514,4.4066,4.3855,4.3037,4.3573,4.3228,4.211,4.1377,4.1662,4.2576,4.2137,4.204,4.2074,4.1267,4.0646,4.0127,3.9757,3.9888,4.0257,0.0,0.0,0.0,0.0,0.0,0.0,0.0,0.0,2.0395,2.0395,0.0,0.0,0.0,0.0,1.9824,1.9367,1.9202,1.9098,1.9098,1.8506,1.8154,1.8154,1.7595,1.7507,1.8046,1.8407,1.9066,2.0016,2.0402,2.0992,2.1743,2.1813,2.2268,2.3103,2.3145,2.3309,2.3625,2.3288,2.316,2.3069,2.2818,2.3026,2.3531,2.3811,2.3945,0.0,0.0,0.0,0.0,0.0,0.0,0.0,0.0,0.0,0.0,1.9567,1.9909,2.0751,2.1786,2.3148,2.445,2.5083,2.6382,2.7711,2.8443,0.0,0.0,0.0,0.0,0.0,0.0,0.0,0.0,0.0,0.0,0.0,0.0,0.0,0.0,0.0,0.0,0.0,0.0,0.0,0.0,0.0,0.0,0.0,4.2986,4.2874,4.2793,4.2793,4.2793,4.295,4.3263,4.3191,4.3235,4.3433,4.3482,4.3048,4.2229,4.2749,4.2281,4.0986,4.0449,4.071,4.1524,4.1011,4.0839,4.0775,3.9888,3.9517,3.9451,3.8503,3.8747,3.9517,0.0,0.0,0.0,0.0,0.0,0.0,0.0,0.0,2.0436,2.0436,0.0,0.0,0.0,0.0,0.0,1.9824,1.9388,1.9119,1.9098,1.8237,1.7709,1.7709,1.687,1.6601,1.7015,1.7036,1.741,1.8136,1.9512,1.9973,1.9561,2.1119,2.1745,2.1512,2.221,2.2656,2.29,2.3598,2.3186,2.213,2.3358,2.3987,2.4351,2.6064,0.0,0.0,2.7017,2.6493,0.0,2.4388,0.0,0.0,0.0,0.0,0.0,0.0,1.9857,2.0541,0.0,0.0,0.0,2.3275,2.4264,2.5419,2.6699,0.0,0.0,0.0,0.0,0.0,0.0,0.0,0.0,0.0,0.0,0.0,0.0,0.0,0.0,0.0,0.0,0.0,0.0,0.0,0.0,0.0,0.0,4.2986,4.2986,4.2625,4.24,4.2344,4.2425,4.2786,4.3676,4.2409,4.2029,4.2532,4.1792,4.1427,4.1365,4.1931,4.1396,4.0127,4.0127,4.0127,4.0018,3.8747,3.8191,3.8191,3.8191,3.8191,3.8191,3.8191,3.8191,3.8191,0.0,0.0,0.0,0.0,0.0,2.1686,2.1462,2.1424,2.1424,0.0,0.0,0.0,2.0948,2.0581,2.0245,1.9824,1.9679,1.9471,1.9119,1.8526,1.8071,1.7709,1.7151,1.6921,1.7127,1.7557,1.8239,1.9185,1.9487,1.9844,2.0293,2.0858,2.1019,2.1011,2.253,2.2637,2.1745,2.3223,2.4051,2.4451,2.4516,2.5219,0.0,0.0,0.0,0.0,0.0,2.7614,2.6906,0.0,2.5543,2.4541,0.0,0.0,0.0,0.0,2.0995,2.069,2.0578,0.0,0.0,0.0,0.0,0.0,0.0,0.0,0.0,0.0,0.0,0.0,0.0,0.0,0.0,0.0,0.0,0.0,0.0,0.0,0.0,0.0,0.0,0.0,0.0,0.0,0.0,0.0,4.1753,4.2344,4.1696,4.1329,4.0592,3.9405,3.9975,4.0349,4.0608,4.1233,4.1614,4.1754,4.189,4.1488,4.0576,4.0708,4.0018,3.8747,3.8747,3.8747,3.8681,3.837,3.8191,3.8191,3.8191,3.8191,3.8191,3.8191,3.8191,3.8191,0.0,0.0,2.225,2.194,2.2099,2.2176,2.1835,2.1963,2.2087,0.0,0.0,0.0,2.2004,2.1383,2.0886,2.0638,2.0301,1.9969,1.9813,1.9117,1.8721,1.8819,1.788,1.7542,1.7913,1.8008,1.8442,1.9142,1.8903,1.9144,1.98,1.9716,1.9826,2.0133,2.1816,2.211,2.145,2.3072,2.4063,0.0,2.4927,0.0,0.0,2.7953,2.8489,0.0,0.0,0.0,2.8125,2.7695,2.6545,0.0,0.0,0.0,0.0,0.0,2.1244,2.0851,2.0359,2.0992,2.187,2.232,0.0,0.0,0.0,0.0,0.0,0.0,0.0,0.0,0.0,0.0,0.0,0.0,0.0,0.0,0.0,0.0,0.0,0.0,0.0,0.0,0.0,0.0,0.0,3.9039,4.0558,4.1215,4.0558,4.0442,3.9755,3.8357,3.8707,3.9309,4.0043,4.0235,4.049,4.0905,4.062,4.0149,3.9386,3.9386,3.8946,3.8191,3.8191,3.8191,3.8191,3.8191,3.8191,3.8191,3.8191,3.8191,3.8191,3.8191,3.8191,3.8191,0.0,0.0,2.3768,2.3113,2.3119,2.2992,2.2239,2.2625,2.2922,0.0,2.3119,2.3329,2.3329,2.2563,2.2004,2.1963,2.1114,2.0617,2.0809,1.9788,1.9511,2.0211,1.8732,1.8122,1.868,1.818,1.8041,1.8309,1.7962,1.8055,1.8627,1.8391,1.8601,1.9178,2.0846,2.1504,2.1491,2.3277,0.0,2.3473,2.4888,2.63,0.0,0.0,2.9836,2.9954,3.0918,3.0344,2.9121,2.8613,2.707,0.0,0.0,0.0,0.0,0.0,2.1174,2.1133,2.0352,2.0703,2.1406,2.1855,0.0,0.0,0.0,0.0,0.0,0.0,0.0,0.0,0.0,0.0,0.0,0.0,0.0,0.0,0.0,0.0,0.0,0.0,0.0,0.0,0.0,0.0,3.8289,3.8216,3.917,3.9604,3.9252,3.9592,3.9195,3.7946,3.8055,3.8825,4.0338,3.9237,3.911,3.9888,3.8747,3.8191,3.8191,3.8191,3.8191,3.8191,3.8191,3.8191,3.8191,3.8191,3.8191,3.8191,3.8191,3.8191,3.8191,3.8191,3.8191,3.8191,2.329,2.3246,2.3165,2.3038,2.3906,2.4565,2.4416,2.5186,2.5514,2.4777,2.4429,2.4239,2.4239,2.3784,2.3329,2.2956,2.2066,2.1379,2.1047,2.0184,1.9586,1.9368,1.8323,1.7621,1.7391,1.6955,1.6869,1.7134,1.7045,1.7369,1.8092,1.9092,1.9168,1.8648,2.2433,2.274,2.0657,2.4012,0.0,2.4485,2.5535,0.0,2.8516,2.9367,3.0285,3.1133,3.1368,3.125,3.084,2.9707,2.8413,2.7196,0.0,0.0,0.0,2.3925,0.0,2.1924,2.1584,2.1743,2.2062,0.0,0.0,0.0,0.0,0.0,0.0,0.0,0.0,0.0,0.0,0.0,0.0,0.0,0.0,0.0,0.0,0.0,0.0,0.0,0.0,0.0,0.0,0.0,3.5876,3.5181,3.6609,3.7205,3.6578,3.7231,3.6768,3.5003,3.5881,3.6542,3.6901,3.7468,3.7914,3.8129,3.8171,3.8191,3.8191,3.8191,3.8191,3.8191,3.8191,3.8191,3.8191,3.8191,3.8191,3.8191,3.8191,3.8191,3.8191,3.8191,3.8191,3.8191,2.4154,2.3534,2.3001,2.3001,2.3432,2.3826,2.4067,2.492,2.5454,2.5253,2.5183,2.5295,2.5523,2.4964,2.455,2.4529,2.3701,2.2993,2.267,2.1711,2.1129,2.1141,1.9673,1.888,1.8986,1.8297,1.7897,1.7788,1.7517,1.7558,1.803,1.8733,1.8897,1.8725,2.1724,2.2247,2.1034,2.3593,2.4735,2.5012,2.6114,0.0,2.8873,2.9607,3.0566,3.1523,3.1523,3.1523,3.1387,3.0527,2.9567,0.0,0.0,2.6585,2.5043,0.0,2.3754,2.2757,0.0,0.0,0.0,2.274,0.0,0.0,0.0,0.0,0.0,0.0,0.0,0.0,0.0,0.0,0.0,0.0,0.0,0.0,0.0,0.0,0.0,0.0,0.0,0.0,0.0,0.0,3.4238,3.4511,3.5426,3.5879,3.5643,3.6351,3.6036,3.444,3.5218,3.5803,3.6202,3.6958,3.7415,3.7616,3.7971,3.8191,3.8191,3.8191,3.8191,3.8191,3.8191,3.8191,3.8191,3.8191,3.8191,3.8191,3.8191,3.8191,3.8191,3.8191,3.8191,3.8191,2.5335,2.4299,2.3431,2.3371,2.3335,2.3463,2.3877,2.4703,2.5484,2.5981,2.6198,2.6475,2.7081,2.616,2.5743,2.6259,2.5286,2.4553,2.4442,2.3238,2.2772,2.3266,2.1383,2.0489,2.086,2.0106,1.9353,1.8595,1.8222,1.8085,1.8169,1.8275,1.8579,1.9143,2.0907,2.1668,2.1806,2.3448,0.0,2.5595,0.0,2.8008,2.9023,2.9961,3.0879,3.166,3.1738,3.1758,3.1699,3.1269,0.0,2.9629,2.8516,2.7519,0.0,0.0,0.0,0.0,0.0,0.0,0.0,0.0,0.0,2.2777,0.0,0.0,0.0,0.0,0.0,0.0,0.0,0.0,0.0,0.0,0.0,0.0,0.0,0.0,0.0,0.0,0.0,0.0,0.0,0.0,3.3015,3.4102,3.4569,3.4838,3.4923,3.579,3.5776,3.4753,3.5234,3.5799,3.6384,3.6809,3.7146,3.7482,3.7904,3.8125,3.8191,3.8191,3.8191,3.8191,3.8191,3.8191,3.8191,3.8191,3.8191,3.8191,3.8191,3.8191,3.8191,3.8191,3.8191,3.8191,2.5441,2.5158,2.4944,2.4654,2.555,2.6379,2.6558,2.7515,2.8386,2.8849,2.8184,2.8028,2.8897,2.7577,2.6982,2.786,2.6182,0.0,2.5317,2.3718,2.3052,2.3623,2.2221,2.1037,2.0291,2.0418,1.9576,1.781,1.8366,1.8525,1.8364,1.8616,1.909,1.9801,2.1996,2.2751,2.2565,2.5186,2.6526,0.0,2.8184,2.8789,0.0,3.0332,3.1348,3.2148,3.2519,3.2656,3.2578,0.0,3.1445,3.0644,0.0,2.9062,2.7891,2.6992,0.0,0.0,0.0,0.0,0.0,0.0,2.3403,0.0,0.0,0.0,0.0,2.3159,0.0,0.0,0.0,0.0,0.0,0.0,0.0,0.0,0.0,0.0,0.0,0.0,0.0,0.0,0.0,0.0,0.0,3.2316,3.3074,3.3411,3.3099,3.4561,3.5171,3.4687,3.5508,3.5976,3.6084,3.6403,3.6789,3.7146,3.7482,3.7837,3.8191,3.8191,3.8191,3.8191,3.8191,3.8191,3.8191,3.8191,3.8191,3.8191,3.8191,3.8191,3.8191,3.8191,3.8191,3.8191,2.606,2.5641,2.5361,2.5523,2.6165,2.6823,2.7502,2.87,2.9761,3.0224,2.9645,2.9423,3.0026,2.925,2.885,2.9297,0.0,2.6939,0.0,0.0,2.4378,2.4409,2.2931,2.1766,2.0982,2.066,1.9768,1.8343,1.8638,1.8533,1.8133,1.9165,1.9726,1.9938,2.2244,2.3207,2.3205,2.5265,2.6635,0.0,0.0,0.0,0.0,3.0957,3.1934,3.2949,3.3379,3.3379,3.3105,0.0,3.2129,0.0,0.0,0.0,0.0,0.0,0.0,0.0,0.0,0.0,0.0,0.0,0.0,0.0,2.3378,0.0,2.3101,0.0,0.0,0.0,0.0,0.0,0.0,0.0,0.0,0.0,0.0,0.0,0.0,0.0,0.0,0.0,0.0,0.0,0.0,0.0,0.0,3.2387,3.2773,3.3897,3.4583,3.4687,3.5566,3.6016,3.6016,3.6316,3.6722,3.7079,3.7415,3.7683,3.7837,3.8104,3.8037,3.7837,3.8104,3.8191,3.8191,3.8191,3.8191,3.8191,3.8191,3.8191,3.8191,3.8191,3.8191,3.8191,2.6499,2.6025,2.5765,2.6226,2.6562,2.7208,2.846,2.9646,3.0566,3.1036,3.0887,3.0801,3.1013,3.0372,0.0,0.0,2.9209,2.8399,0.0,0.0,2.5915,2.5492,2.4242,0.0,2.2366,2.1712,2.0892,1.9822,1.9556,1.9126,1.8644,1.967,2.024,2.0501,2.2206,2.3343,2.4058,2.5458,2.6836,2.8125,2.9414,3.0605,3.1621,3.1914,3.2695,3.3652,3.4082,3.4043,3.373,3.3418,3.2949,0.0,3.1777,0.0,0.0,0.0,0.0,0.0,2.7917,0.0,0.0,0.0,0.0,0.0,0.0,0.0,0.0,0.0,0.0,0.0,0.0,0.0,0.0,0.0,0.0,0.0,0.0,0.0,0.0,0.0,0.0,0.0,0.0,0.0,0.0,0.0,0.0,0.0,3.2578,3.3437,3.4141,3.4687,3.5449,3.5898,3.6016,3.6268,3.6539,3.6944,3.7213,3.7348,3.7482,3.777,3.777,3.7616,3.7904,3.8104,3.8191,3.8191,3.8191,3.8191,3.8191,3.8191,3.8191,3.8191,3.8191,3.8191,2.6499,2.6499,2.6547,2.6721,2.7196,2.8163,2.9978,3.0653,3.1102,0.0,0.0,0.0,0.0,0.0,0.0,0.0,0.0,2.8976,2.9248,0.0,2.7464,2.6861,2.6472,2.5703,0.0,2.4118,2.3438,2.2479,2.1443,2.0794,2.0482,1.9973,2.0442,2.1769,2.2109,2.3264,2.5145,2.6406,2.7715,2.9004,3.0312,3.1855,3.334,0.0,3.3652,3.4101,3.4531,0.0,0.0,3.4648,3.4082,0.0,0.0,0.0,0.0,0.0,0.0,0.0,0.0,0.0,0.0,2.6934,0.0,0.0,0.0,0.0,2.3769,0.0,0.0,0.0,0.0,0.0,0.0,0.0,0.0,0.0,0.0,0.0,0.0,0.0,0.0,0.0,0.0,0.0,0.0,0.0,0.0,0.0,3.2168,3.2988,3.3828,3.4668,3.5156,3.5605,3.6016,3.6016,3.62,3.6519,3.6519,3.6722,3.7146,3.7146,3.728,3.7616,3.7616,3.7837,3.8191,3.8191,3.8191,3.8191,3.8191,3.8191,3.8191,3.8191,3.8191,3.8191,2.6575,2.6801,2.7147,2.7581,2.8435,2.9747,3.1817,3.1972,0.0,0.0,0.0,0.0,0.0,3.1842,3.1672,0.0,0.0,3.0557,3.0613,2.9496,0.0,0.0,0.0,2.6413,0.0,0.0,0.0,2.3121,2.1925,2.1225,2.1069,2.0946,2.1226,2.1837,2.3096,2.4521,2.6059,0.0,0.0,0.0,0.0,3.291,3.3457,0.0,0.0,3.4961,3.5098,3.5156,0.0,3.4805,3.4512,3.418,3.3594,3.3125,3.2637,3.1953,3.1523,0.0,0.0,0.0,2.8926,2.8066,0.0,0.0,0.0,0.0,0.0,0.0,0.0,0.0,0.0,0.0,0.0,0.0,0.0,0.0,0.0,0.0,0.0,0.0,0.0,0.0,0.0,0.0,0.0,0.0,0.0,0.0,0.0,3.2539,3.3262,3.3828,3.4844,3.5469,3.5605,3.5879,3.6152,3.6519,3.6519,3.6586,3.6722,3.7011,3.7011,3.6924,3.7415,3.7683,3.7837,3.8104,3.8191,3.8191,3.7904,3.7971,3.8191,3.8191,3.8191,3.8191,2.7153,2.7344,2.7695,2.8047,2.9234,3.0793,3.2779,0.0,0.0,0.0,3.2864,0.0,3.2448,0.0,3.2495,0.0,3.1999,3.1624,3.1624,3.0596,0.0,2.9061,2.8229,0.0,0.0,0.0,0.0,0.0,0.0,2.1811,2.1722,2.1462,2.1589,2.2103,2.3682,2.5145,2.6467,2.7898,2.9434,0.0,0.0,3.3711,0.0,0.0,3.4902,3.541,0.0,3.5605,3.5566,3.5273,3.5078,3.4844,3.4297,3.3906,3.3555,3.3008,3.2637,3.2266,3.1719,3.1016,0.0,2.9434,2.8457,0.0,2.7344,0.0,0.0,0.0,0.0,0.0,0.0,0.0,0.0,0.0,0.0,0.0,0.0,2.119,0.0,0.0,0.0,0.0,0.0,0.0,0.0,0.0,0.0,0.0,0.0,0.0,3.2832,3.3398,3.4551,3.5234,3.5391,3.5801,3.6084,3.6336,3.6336,3.6336,3.6336,3.6606,3.6606,3.6519,3.7146,3.7482,3.7616,3.7904,3.8037,3.8125,3.7799,3.7928,3.8398,3.8099,3.814,3.844,2.8122,2.8172,2.8247,2.8273,2.9649,0.0,0.0,0.0,3.328,0.0,3.3699,3.3659,3.2591,3.2555,3.2652,3.2691,3.2468,3.2346,3.2326,3.1762,0.0,0.0,2.9376,2.8857,2.8139,0.0,0.0,0.0,0.0,2.2604,2.254,2.1611,2.1671,2.2613,2.3858,2.5185,2.6613,2.8223,2.9726,3.1133,3.2812,3.4258,3.543,3.5449,3.5469,3.5527,3.5918,3.6055,3.6055,3.6074,3.582,3.5488,3.5469,3.4863,3.416,3.4141,3.3535,3.2891,3.2871,3.1953,3.1016,3.0996,0.0,0.0,0.0,0.0,2.7637,0.0,0.0,0.0,0.0,0.0,0.0,0.0,0.0,0.0,0.0,0.0,0.0,0.0,0.0,0.0,0.0,0.0,0.0,0.0,0.0,0.0,0.0,0.0,3.2539,3.334,3.4219,3.4902,3.5351,3.5801,3.6016,3.6016,3.6016,3.6016,3.6016,3.6016,3.6132,3.6519,3.6876,3.7301,3.7589,3.7657,3.7878,3.8228,3.7874,3.8173,3.8697,3.7975,3.8165,3.8869,2.8197,2.9101,3.008,3.0482,2.9992,3.004,0.0,0.0,0.0,0.0,3.238,3.2694,3.3122,3.3152,3.3485,3.4113,3.4107,0.0,0.0,0.0,0.0,3.1992,3.0956,3.0297,2.9933,2.8329,0.0,2.7491,0.0,2.4012,2.3612,2.2592,2.2528,2.3265,2.4042,2.5711,2.7918,2.8638,3.0234,3.2422,3.3809,3.4961,0.0,0.0,3.6543,3.6777,3.6582,3.6504,3.6543,3.6875,3.6894,3.6758,3.6445,3.5957,3.5449,3.5137,3.4648,3.4141,3.3828,3.3262,3.2695,3.2383,3.1582,3.0762,0.0,0.0,0.0,0.0,0.0,0.0,0.0,0.0,0.0,0.0,0.0,0.0,0.0,0.0,0.0,0.0,0.0,0.0,0.0,0.0,0.0,0.0,0.0,0.0,0.0,0.0,0.0,3.248,3.3926,3.4766,3.4883,3.5644,3.6016,3.6016,3.6016,3.6016,3.6016,3.6016,3.6084,3.6132,3.6519,3.7057,3.7786,3.799,3.8398,3.8794,3.8393,3.8364,3.8572,3.8883,3.9131,3.9302,2.9302,3.0557,3.1889,3.2432,0.0,0.0,3.1689,3.1681,0.0,3.183,3.2336,0.0,3.334,3.375,3.418,3.4668,3.4707,0.0,3.4355,0.0,0.0,3.3359,3.2305,3.1485,3.1033,2.9786,0.0,2.7744,0.0,0.0,2.4052,2.3222,2.3125,2.3689,2.4585,2.6144,2.8212,2.9898,3.1562,3.3203,3.4687,0.0,0.0,3.6777,3.709,3.7285,3.7246,3.709,3.6973,3.7226,3.7305,3.7266,3.7012,3.6777,3.6523,3.6289,3.5918,3.5469,3.5039,3.4453,3.3867,3.3457,3.2851,3.2246,3.1816,3.1328,3.0762,0.0,0.0,0.0,0.0,0.0,0.0,0.0,0.0,0.0,0.0,0.0,0.0,0.0,0.0,0.0,0.0,0.0,0.0,0.0,0.0,0.0,0.0,0.0,0.0,3.2209,3.3633,3.4512,3.4707,3.5586,3.6016,3.6016,3.6016,3.6016,3.6016,3.6016,3.6133,3.6309,3.6631,3.7211,3.7837,3.7975,3.8324,3.8726,3.8698,3.8809,3.9041,3.9625,3.9803,3.9868,3.1094,3.2315,3.3563,0.0,0.0,0.0,0.0,3.2749,0.0,3.2336,0.0,3.3496,3.3652,3.4336,3.4805,3.4863,0.0,3.4863,3.4863,3.4473,3.4238,3.4238,3.3359,3.25,3.1699,3.1014,0.0,0.0,0.0,2.5605,2.4349,2.3639,2.3556,2.3981,2.5263,0.0,0.0,3.1465,3.3066,3.3652,3.5332,3.6309,3.6797,3.7226,3.7422,3.7519,3.7871,3.7734,3.7383,3.7441,3.7461,3.7461,3.7461,3.7422,3.7383,3.7383,3.709,3.666,3.6289,3.5586,3.4863,3.4434,3.4004,3.3555,3.3066,3.2969,3.2617,3.1387,3.082,3.0137,0.0,0.0,0.0,0.0,0.0,0.0,0.0,0.0,0.0,0.0,0.0,0.0,0.0,0.0,0.0,0.0,0.0,0.0,0.0,0.0,0.0,3.2148,3.3359,0.0,3.4687,0.0,3.5957,3.6016,3.6016,3.6055,3.6094,3.6094,3.6348,3.6827,3.7104,3.748,3.7876,3.7876,3.8127,3.8578,3.8939,3.9392,3.9714,4.0166,4.0299,4.0365,3.3171,3.4299,3.4959,3.4559,0.0,3.4521,3.3295,3.1958,3.1676,3.3347,3.347,3.3848,3.4922,3.5176,3.541,3.5762,3.5781,0.0,0.0,0.0,0.0,3.5156,3.3984,3.3086,3.2578,3.1446,3.0342,0.0,0.0,2.6398,2.5358,2.4258,2.4113,2.4734,2.6052,0.0,3.0754,3.2211,0.0,3.4082,3.5469,3.6484,3.7226,3.7656,3.8047,3.8359,3.8437,3.8184,3.7871,3.8223,3.834,3.834,3.834,3.8105,3.7812,3.7812,3.7519,3.7168,3.709,3.6699,3.623,3.5781,3.5371,3.4844,3.4023,3.3848,3.3594,3.2656,3.2402,3.1953,3.0664,0.0,0.0,0.0,0.0,0.0,0.0,0.0,0.0,0.0,0.0,0.0,0.0,0.0,0.0,0.0,0.0,0.0,0.0,0.0,0.0,0.0,0.0,0.0,0.0,0.0,3.5684,3.6016,3.6016,3.6211,3.6562,3.6562,3.6797,3.7187,3.7258,3.7724,3.8402,3.8402,3.862,3.9102,3.9181,3.9385,3.9714,4.0166,4.0484,4.0779,3.4203,3.5354,3.6059,3.5268,0.0,0.0,0.0,3.3113,0.0,3.347,3.4088,3.4766,3.5625,3.5918,3.623,3.6641,3.668,3.668,3.668,3.6484,3.6387,3.6387,3.5351,0.0,3.3789,3.2539,3.1231,2.996,0.0,2.7673,2.6757,2.6007,2.5764,2.5982,0.0,2.9013,0.0,0.0,0.0,3.4531,3.6074,3.707,3.7676,3.8105,3.8398,3.8574,3.8574,3.8437,3.8301,3.8496,3.8574,3.8574,3.8574,3.8437,3.8262,3.8262,3.8125,3.791,3.7676,3.748,3.7226,3.6797,3.6523,3.6211,3.5566,3.541,3.5117,3.4004,3.3613,3.293,3.1211,3.0371,0.0,0.0,0.0,0.0,0.0,0.0,0.0,0.0,0.0,0.0,0.0,0.0,0.0,0.0,0.0,0.0,0.0,0.0,0.0,0.0,0.0,0.0,0.0,0.0,0.0,3.6016,3.6016,3.625,3.668,3.668,3.7012,3.7617,3.7617,3.7943,3.857,3.857,3.8688,3.8885,3.9103,3.9373,3.9714,4.0166,4.0525,4.0882,3.4859,3.601,3.6687,0.0,3.5381,0.0,3.5459,3.4655,3.3984,3.3984,3.4883,3.5723,3.623,3.6601,3.6934,3.7266,3.7305,3.7305,3.7305,3.7305,3.7305,3.7305,3.6484,3.5644,3.4863,3.3594,3.2129,0.0,0.0,0.0,0.0,2.7467,2.7475,0.0,0.0,0.0,0.0,0.0,3.4101,3.5117,3.668,3.7539,3.7969,3.8418,3.8574,3.8574,3.8574,3.8574,3.8574,3.8574,3.8574,3.8574,3.8574,3.8574,3.8574,3.8574,3.8574,3.8496,3.8164,3.8066,3.7969,3.7539,3.7422,3.7324,3.6894,3.6797,3.6465,3.5234,3.4492,3.3535,3.1758,3.1348,0.0,0.0,0.0,0.0,0.0,0.0,0.0,0.0,0.0,0.0,0.0,0.0,0.0,0.0,0.0,0.0,0.0,0.0,0.0,0.0,0.0,3.3574,3.4199,0.0,3.5937,0.0,3.6113,3.6387,3.6816,3.6894,3.7344,3.8066,3.8066,3.8262,3.8574,3.8574,3.8574,3.8647,3.903,3.9373,3.9714,4.0166,4.0525,4.0882,3.5472,3.6238,0.0,0.0,0.0,0.0,3.5311,3.554,3.5781,3.5781,3.5879,3.6269,3.709,3.7226,3.7246,3.7285,3.7305,3.7305,3.7305,3.7305,3.7305,3.7305,3.6484,3.5801,3.5332,3.4043,3.2838,0.0,0.0,0.0,0.0,2.7525,2.8604,0.0,0.0,0.0,0.0,3.374,3.4746,3.5976,3.6914,3.7539,3.7969,3.8418,3.8574,3.8574,3.8574,3.8574,3.8574,3.8574,3.8574,3.8574,3.8574,3.8574,3.8574,3.8574,3.8574,3.8555,3.8535,3.8516,3.8418,3.7969,3.7871,3.7754,3.7344,3.7246,3.6992,3.6074,3.4922,3.3887,3.3301,3.2871,3.2305,0.0,0.0,0.0,0.0,0.0,0.0,0.0,0.0,0.0,0.0,0.0,0.0,0.0,0.0,0.0,0.0,0.0,0.0,3.2051,0.0,3.3437,3.4629,3.5176,0.0,3.6035,3.6426,3.6836,3.7246,3.7637,3.8066,3.8516,3.8516,3.8535,3.8574,3.8574,3.8574,3.8647,3.903,3.9373,3.9714,4.0166,4.0525,4.0882,0.0,0.0,0.0,0.0,0.0,0.0,0.0,3.626,3.6601,3.709,3.6953,3.7012,3.7617,3.7676,3.7773,3.8047,3.8066,3.8066,3.8066,3.8066,3.8066,3.8066,3.748,3.6855,3.6172,3.4863,3.3735,0.0,0.0,0.0,0.0,0.0,0.0,0.0,0.0,3.192,3.343,3.4459,3.5469,3.6484,3.7344,3.793,3.834,3.8516,3.8574,3.8574,3.8574,3.8574,3.8574,3.8574,3.8574,3.8574,3.8574,3.8574,3.8574,3.8574,3.8574,3.8574,3.8574,3.8574,3.8535,3.8359,3.832,3.8262,3.8105,3.8066,3.7891,3.7285,3.6133,3.4941,3.3984,3.3672,3.3359,0.0,0.0,0.0,0.0,0.0,0.0,0.0,0.0,0.0,0.0,0.0,0.0,0.0,0.0,0.0,0.0,0.0,0.0,3.1738,0.0,3.3535,3.4316,3.5293,3.5976,3.6406,3.6582,3.7031,3.7676,3.7851,3.8164,3.8574,3.8574,3.8574,3.8574,3.8574,3.8574,3.8647,3.9301,3.957,3.9786,4.0453,4.074,4.0882,3.5601,0.0,3.6667,0.0,3.6,3.6464,3.7003,3.7031,3.7305,3.8027,3.7851,3.7793,3.8086,3.8105,3.8242,3.8555,3.8574,3.8574,3.8574,3.8574,3.8574,3.8574,3.8164,0.0,3.7051,3.5762,3.4726,3.4004,3.2708,0.0,0.0,3.0286,0.0,0.0,3.186,3.2684,3.4062,3.5137,3.6152,3.709,3.7676,3.8184,3.8574,3.8574,3.8574,3.8574,3.8574,3.8574,3.8574,3.8574,3.8574,3.8574,3.8574,3.8574,3.8574,3.8574,3.8574,3.8574,3.8574,3.8574,3.8574,3.8574,3.8574,3.8574,3.8574,3.8574,3.8457,3.8008,3.7109,3.6035,3.4863,3.4648,3.4453,3.3887,0.0,0.0,0.0,0.0,0.0,0.0,3.0937,3.0176,2.916,0.0,0.0,0.0,0.0,0.0,0.0,0.0,0.0,0.0,0.0,0.0,0.0,3.5371,3.623,3.668,3.6797,3.7226,3.793,3.8047,3.8281,3.8574,3.8574,3.8574,3.8574,3.8574,3.8574,3.8647,3.9301,3.957,3.9786,4.0453,4.0811,4.0882,3.5295,3.6301,3.7124,3.671,3.6992,3.7422,3.7851,3.791,3.8066,3.8516,3.8555,3.8555,3.8574,3.8574,3.8574,3.8574,3.8574,3.8574,3.8574,3.8574,3.8574,0.0,0.0,3.791,3.791,3.666,3.5801,3.5371,0.0,0.0,2.9813,2.938,3.0484,3.2793,3.3203,3.4121,3.5391,3.584,3.6758,3.791,3.791,3.8184,3.8574,3.8574,3.8574,3.8574,3.8574,3.8574,3.8574,3.8574,3.8574,3.8574,3.8574,3.8574,3.8574,3.8574,3.8574,3.8574,3.8574,3.8574,3.8574,3.8574,3.8574,3.8574,3.8574,3.8574,3.8457,3.8008,3.7578,3.7012,3.6152,3.5996,3.5703,3.4824,0.0,0.0,0.0,0.0,0.0,0.0,3.2031,3.1328,3.0898,0.0,0.0,0.0,0.0,0.0,0.0,0.0,0.0,3.1504,3.3184,0.0,3.4082,3.5371,3.623,3.668,3.709,3.7519,3.793,3.8359,3.8574,3.8574,3.8574,3.8574,3.8574,3.8574,3.8574,3.8647,3.903,3.9373,3.9714,4.0166,4.0525,4.0882,3.6259,3.6759,3.7426,3.7943,3.8086,3.8418,3.916,3.9277,3.9316,3.9453,3.9473,3.9473,3.9473,3.8945,3.8574,0.0,3.8574,3.8574,0.0,3.8574,3.8574,3.8574,3.8437,3.8223,3.793,3.7246,3.668,3.6269,0.0,0.0,0.0,3.2131,3.2816,3.4101,3.457,3.5332,3.6309,3.7012,3.7559,3.7949,3.8242,3.8457,3.8574,3.8574,3.8574,3.8574,3.8574,3.8574,3.8574,3.8574,3.8574,3.8574,3.8574,3.8574,3.8574,3.8574,3.8574,3.8574,3.8574,3.8574,3.8574,3.8574,3.8574,3.8574,3.8574,3.8574,3.8457,3.8008,3.7812,3.7559,3.6992,3.6894,3.6797,3.6523,3.5879,0.0,0.0,0.0,0.0,0.0,3.3164,3.2656,0.0,3.168,0.0,0.0,0.0,0.0,0.0,0.0,0.0,0.0,3.3203,0.0,3.4961,3.5664,3.6387,3.709,3.7226,3.7676,3.8379,3.8516,3.8574,3.8574,3.8574,3.8574,3.8574,3.8574,3.8574,3.8647,3.903,3.9373,3.9714,4.0166,4.0525,4.0882,3.7617,3.7969,3.8437,3.8984,3.9062,3.9258,3.9805,3.9902,3.9902,3.9902,3.9902,3.9902,3.9902,3.9394,0.0,3.9062,3.9062,3.9062,3.9062,3.9062,3.9062,3.9062,3.9062,3.8867,3.8418,0.0,0.0,3.7148,3.5996,3.5078,3.4394,3.4394,3.4766,3.5449,3.5918,3.6582,3.7441,3.8105,3.8496,3.8691,3.8965,3.9062,3.9062,3.9062,3.8965,3.8809,3.8809,3.8711,3.8574,3.8574,3.8574,3.8574,3.8574,3.8574,3.8574,3.8574,3.8574,3.8574,3.8574,3.8574,3.8574,3.8574,3.8574,3.8574,3.8574,3.8574,3.8496,3.8223,3.8164,3.8047,3.7617,3.7539,3.748,3.7324,3.6855,3.6445,3.6289,0.0,0.0,0.0,0.0,0.0,0.0,3.2891,0.0,0.0,0.0,0.0,0.0,0.0,0.0,3.2519,3.3281,0.0,3.5391,3.5976,3.6699,3.7539,3.7695,3.8066,3.8574,3.8574,3.8574,3.8574,3.8574,3.8574,3.8574,3.8574,3.8574,3.8647,3.8885,3.9156,3.9518,3.9806,4.0238,4.0668,3.9258,3.9609,0.0,0.0,3.9941,0.0,3.998,3.998,3.998,3.998,3.998,3.998,3.998,3.998,3.998,3.998,0.0,0.0,0.0,3.9902,3.9902,3.9902,3.9902,3.9687,3.9258,3.8867,3.8457,3.8008,3.7226,3.6621,3.6191,3.6191,3.6426,3.6875,3.7246,3.7891,3.8691,3.9082,3.9492,3.9902,3.9902,3.9902,3.9902,3.9902,3.9629,3.9258,3.9258,3.9004,3.8672,3.8672,3.8652,3.8613,3.8613,3.8594,3.8574,3.8574,3.8574,3.8574,3.8574,3.8574,3.8574,3.8574,3.8574,3.8574,3.8574,3.8574,3.8574,3.8574,3.8574,3.8457,3.8047,3.7969,3.7832,3.7441,3.7363,3.7187,3.6777,0.0,0.0,0.0,0.0,0.0,0.0,3.3789,3.3516,0.0,0.0,0.0,0.0,0.0,3.1855,3.2324,3.3535,3.459,3.5469,3.6309,3.7129,3.793,3.8359,3.8574,3.8574,3.8574,3.8574,3.8574,3.8574,3.8574,3.8574,3.8574,3.8574,3.8574,3.8574,3.8885,3.9176,3.9248,3.9682,4.031,0.0,0.0,4.0,4.0312,4.0371,4.0488,4.082,4.0879,4.0879,4.0879,4.0879,4.0879,4.0879,4.0879,4.0879,4.0879,4.0273,3.9902,3.9902,3.9902,3.9902,3.9902,3.9902,3.9844,3.9726,3.9629,3.9355,3.8906,3.8691,3.8379,3.7969,3.7969,3.8203,3.8613,3.8711,3.9062,3.959,3.9687,3.9805,3.9902,3.9902,3.9902,3.9902,3.9902,3.9824,3.9726,3.9726,3.9668,3.959,3.959,3.9355,3.9062,3.9062,3.8828,3.8574,3.8574,3.8574,3.8574,3.8574,3.8574,3.8574,3.8574,3.8574,3.8574,3.8574,3.8574,3.8574,3.8574,3.8574,3.8555,3.8437,3.8418,3.8379,3.8281,3.7988,3.7637,3.7207,3.6875,0.0,0.0,3.5703,3.5312,3.5547,3.4844,3.4394,0.0,0.0,0.0,0.0,3.332,3.332,3.4082,3.4746,3.5488,3.6367,3.6894,3.7402,3.793,3.8359,3.8574,3.8574,3.8574,3.8574,3.8574,3.8574,3.8574,3.8574,3.8574,3.8574,3.8574,3.8574,3.8885,3.9248,3.9518,3.9878,4.031,4.0488,4.0488,4.0547,4.0781,4.082,4.0898,4.1133,4.1172,4.1172,4.1172,4.1172,4.1172,4.1172,4.1172,4.1172,4.1172,4.0742,4.0488,4.0488,4.0488,4.0488,4.0488,4.0488,4.0391,4.0195,4.0176,3.9961,3.9512,3.9512,3.9394,3.918,3.918,3.9297,3.9531,3.9726,3.9941,4.0195,4.0391,4.0488,4.0488,4.0488,4.0488,4.0488,4.0488,4.0351,4.0176,4.0176,4.0059,3.9902,3.9902,3.9726,3.9512,3.9512,3.9355,3.9141,3.8926,3.873,3.8574,3.8574,3.8574,3.8574,3.8574,3.8574,3.8574,3.8574,3.8574,3.8574,3.8574,3.8574,3.8574,3.8574,3.8574,3.8574,3.8574,3.8379,3.8066,3.7656,3.7383,0.0,3.6973,3.6543,3.6348,3.6582,3.6172,3.5879,3.5879,0.0,0.0,3.5547,3.5312,3.5137,3.5019,3.5254,3.5996,3.7226,3.7676,3.7988,3.8223,3.8457,3.8574,3.8574,3.8574,3.8574,3.8574,3.8574,3.8574,3.8574,3.8574,3.8574,3.8574,3.8574,3.872,3.8958,3.9373,3.9734,4.0094,4.1172,4.1172,4.1172,4.1172,4.1172,4.1172,4.1172,4.1172,4.1172,4.1172,4.1172,4.1172,4.1172,4.1172,4.1172,4.1172,4.1172,4.1172,4.1172,4.1172,4.1172,4.1172,4.1172,4.0996,4.0625,4.0625,4.0449,4.0098,4.0098,4.0098,4.0098,4.0098,4.0098,4.0098,4.0469,4.0625,4.0644,4.1016,4.1172,4.1172,4.1172,4.1172,4.1172,4.1172,4.0937,4.0625,4.0625,4.0391,4.0098,4.0098,4.0039,4.0,4.0,3.9941,3.9824,3.9414,3.9062,3.875,3.8613,3.8574,3.8574,3.8574,3.8574,3.8574,3.8574,3.8574,3.8574,3.8574,3.8574,3.8574,3.8574,3.8574,3.8574,3.8574,3.8574,3.8418,3.7988,0.0,3.7793,3.7441,3.7344,3.7324,3.7383,3.7344,3.7305,3.7305,3.7305,3.7305,0.0,3.7305,3.6836,3.5801,3.5781,3.6504,3.8008,3.8398,3.8574,3.8574,3.8574,3.8574,3.8574,3.8574,3.8574,3.8574,3.8574,3.8574,3.8574,3.8574,3.8574,3.8574,3.8574,3.8574,3.8647,3.903,3.9373,3.9786,4.1172,4.1172,4.1172,4.1172,4.1172,4.1172,4.1172,4.1172,4.1172,4.1172,4.1172,4.1172,4.1172,4.1172,4.1172,4.1172,4.1172,4.1172,4.1172,4.1172,4.1172,4.1172,4.1172,4.1152,4.1074,4.1074,4.1035,4.0976,4.0976,4.0976,4.0976,4.0976,4.0976,4.0976,4.1035,4.1074,4.1074,4.1152,4.1172,4.1172,4.1172,4.1172,4.1172,4.1172,4.1133,4.1074,4.1074,4.1035,4.0976,4.0976,4.0723,4.043,4.043,4.0176,3.9883,3.9805,3.9746,3.9531,3.8769,3.8574,3.8574,3.8574,3.8574,3.8574,3.8574,3.8574,3.8574,3.8574,3.8574,3.8574,3.8574,3.8574,3.8574,3.8574,3.8574,3.8418,3.7988,0.0,3.791,3.7832,3.7519,3.7441,3.7793,3.75,3.7305,3.7305,3.7305,3.7305,3.7305,3.7305,3.7363,3.7519,3.7539,3.7832,3.8476,3.8535,3.8574,3.8574,3.8574,3.8574,3.8574,3.8574,3.8574,3.8574,3.8574,3.8574,3.8574,3.8574,3.8574,3.8574,3.8574,3.8574,3.8647,3.903,3.9373,3.9786,4.1172,4.1172,4.1172,4.1172,4.1172,4.1172,4.1172,4.1172,4.1172,4.1172,4.1172,4.1172,4.1172,4.1172,4.1172,4.1172,4.1172,4.1172,4.1172,4.1172,4.1172,4.1172,4.1172,4.1172,4.1172,4.1172,4.1172,4.1172,4.1172,4.1172,4.1172,4.1172,4.1172,4.1172,4.1172,4.1172,4.1172,4.1172,4.1172,4.1172,4.1172,4.1172,4.1172,4.1172,4.1172,4.1172,4.1172,4.1172,4.1172,4.1172,4.1035,4.0879,4.0879,4.0742,4.0547,4.0312,3.9902,3.9434,3.9023,3.875,3.8574,3.8574,3.8574,3.8574,3.8574,3.8574,3.8574,3.8574,3.8574,3.8574,3.8574,3.8574,3.8574,3.8574,3.8574,0.0,3.8301,3.8281,3.8281,3.8281,3.8105,3.8066,3.8262,3.8105,3.7988,3.7988,3.7988,3.7988,3.7988,3.7988,3.8066,3.8262,3.8281,3.8379,3.8574,3.8574,3.8574,3.8574,3.8574,3.8574,3.8574,3.8574,3.8574,3.8574,3.8574,3.8574,3.8574,3.8574,3.8574,3.8574,3.8574,3.8574,3.8647,3.903,3.9373,3.9786,4.1172,4.1172,4.1172,4.1172,4.1172,4.1172,4.1172,4.1172,4.1172,4.1172,4.1172,4.1172,4.1172,4.1172,4.1172,4.1172,4.1172,4.1172,4.1172,4.1172,4.1172,4.1172,4.1172,4.1172,4.1172,4.1172,4.1172,4.1172,4.1172,4.1172,4.1172,4.1172,4.1172,4.1172,4.1172,4.1172,4.1172,4.1172,4.1172,4.1172,4.1172,4.1172,4.1172,4.1172,4.1172,4.1172,4.1172,4.1172,4.1172,4.1172,4.1172,4.1172,4.1172,4.1172,4.1113,4.0781,4.0117,3.9473,3.9258,3.8965,3.8691,3.8594,3.8574,3.8574,3.8574,3.8574,3.8574,3.8574,3.8574,3.8574,3.8574,3.8574,3.8574,3.8574,0.0,3.8574,3.8574,3.8574,3.8574,3.8574,3.8574,3.8574,3.8574,3.8574,3.8574,3.8574,3.8574,3.8574,3.8574,3.8574,3.8574,3.8574,3.8574,3.8574,3.8574,3.8574,3.8574,3.8574,3.8574,3.8574,3.8574,3.8574,3.8574,3.8574,3.8574,3.8574,3.8574,3.8574,3.8574,3.8574,3.8574,3.8574,3.8647,3.903,3.9373,3.9786,4.1172,4.1172,4.1172,4.1172,4.1172,4.1172,4.1172,4.1172,4.1172,4.1172,4.1172,4.1172,4.1172,4.1172,4.1172,4.1172,4.1172,4.1172,4.1172,4.1172,4.1172,4.1172,4.1172,4.1172,4.1172,4.1172,4.1172,4.1172,4.1172,4.1172,4.1172,4.1172,4.1172,4.1172,4.1172,4.1172,4.1172,4.1172,4.1172,4.1172,4.1172,4.1172,4.1172,4.1172,4.1172,4.1172,4.1172,4.1172,4.1172,4.1172,4.1172,4.1172,4.1172,4.1172,4.1172,4.1133,4.0801,4.0254,3.9434,3.918,3.9062,3.8672,3.8574,3.8574,3.8574,3.8574,3.8574,3.8574,3.8574,3.8574,3.8574,3.8574,3.8574,3.8574,0.0,0.0,3.8574,3.8574,3.8574,3.8574,3.8574,3.8574,3.8574,3.8574,3.8574,3.8574,3.8574,3.8574,3.8574,3.8574,3.8574,3.8574,3.8574,3.8574,3.8574,3.8574,3.8574,3.8574,3.8574,3.8574,3.8574,3.8574,3.8574,3.8574,3.8574,3.8574,3.8574,3.8574,3.8574,3.8574,3.8574,3.8574,3.8647,3.903,3.9373,3.9786,4.1172,4.1172,4.1172,4.1172,4.1172,4.1172,4.1172,4.1172,4.1172,4.1172,4.1172,4.1172,4.1172,4.1172,4.1172,4.1172,4.1172,4.1172,4.1172,4.1172,4.1172,4.1172,4.1172,4.1172,4.1172,4.1172,4.1172,4.1172,4.1172,4.1172,4.1172,4.1172,4.1172,4.1172,4.1172,4.1172,4.1172,4.1172,4.1172,4.1172,4.1172,4.1172,4.1172,4.1172,4.1172,4.1172,4.1172,4.1172,4.1172,4.1172,4.1172,4.1172,4.1172,4.1172,4.1172,4.1172,4.1055,4.0801,4.0195,3.9629,3.916,3.9004,3.8769,3.8574,3.8574,3.8574,3.8574,3.8574,3.8574,3.8574,3.8574,3.8574,3.8574,3.8574,0.0,3.8574,3.8574,3.8574,3.8574,3.8574,3.8574,3.8574,3.8574,3.8574,3.8574,3.8574,3.8574,3.8574,3.8574,3.8574,3.8574,3.8574,3.8574,3.8574,3.8574,3.8574,3.8574,3.8574,3.8574,3.8574,3.8574,3.8574,3.8574,3.8574,3.8574,3.8574,3.8574,3.8574,3.8574,3.8574,3.8574,3.8574,3.8647,3.903,3.9373,3.9786,4.1172,4.1172,4.1172,4.1172,4.1172,4.1172,4.1172,4.1172,4.1172,4.1172,4.1172,4.1172,4.1172,4.1172,4.1172,4.1172,4.1172,4.1172,4.1172,4.1172,4.1172,4.1172,4.1172,4.1172,4.1172,4.1172,4.1172,4.1172,4.1172,4.1172,4.1172,4.1172,4.1172,4.1172,4.1172,4.1172,4.1172,4.1172,4.1172,4.1172,4.1172,4.1172,4.1172,4.1172,4.1172,4.1172,4.1172,4.1172,4.1172,4.1172,4.1172,4.1172,4.1172,4.1172,4.1172,4.1172,4.1172,4.1113,4.0801,4.0176,3.9551,3.9277,3.8984,3.873,3.8613,3.8574,3.8574,3.8574,3.8574,3.8574,3.8574,3.8574,3.8574,3.8574,3.8574,3.8574,3.8574,3.8574,3.8574,3.8574,3.8574,3.8574,3.8574,3.8574,3.8574,3.8574,3.8574,3.8574,3.8574,3.8574,3.8574,3.8574,3.8574,3.8574,3.8574,3.8574,3.8574,3.8574,3.8574,3.8574,3.8574,3.8574,3.8574,3.8574,3.8574,3.8574,3.8574,3.8574,3.8574,3.8574,3.8574,3.8574,3.8647,3.903,3.9373,3.9662,4.1172,4.1172,4.1172,4.1172,4.1172,4.1172,4.1172,4.1172,4.1172,4.1172,4.1172,4.1172,4.1172,4.1172,4.1172,4.1172,4.1172,4.1172,4.1172,4.1172,4.1172,4.1172,4.1172,4.1172,4.1172,4.1172,4.1172,4.1172,4.1172,4.1172,4.1172,4.1172,4.1172,4.1172,4.1172,4.1172,4.1172,4.1172,4.1172,4.1172,4.1172,4.1172,4.1172,4.1172,4.1172,4.1172,4.1172,4.1172,4.1172,4.1172,4.1172,4.1172,4.1172,4.1172,4.1172,4.1172,4.1172,4.1172,4.1172,4.0859,4.0312,3.9434,3.9199,3.9101,3.8672,3.8574,3.8574,3.8574,3.8574,3.8574,3.8574,3.8574,3.8574,3.8574,3.8574,3.8574,3.8574,3.8574,3.8574,3.8574,3.8574,3.8574,3.8574,3.8574,3.8574,3.8574,3.8574,3.8574,3.8574,3.8574,3.8574,3.8574,3.8574,3.8574,3.8574,3.8574,3.8574,3.8574,3.8574,3.8574,3.8574,3.8574,3.8574,3.8574,3.8574,3.8574,3.8574,3.8574,3.8574,3.8574,3.8574,3.8574,3.8647,3.903,3.9176,3.9321,4.1172,4.1172,4.1172,4.1172,4.1172,4.1172,4.1172,4.1172,4.1172,4.1172,4.1172,4.1172,4.1172,4.1172,4.1172,4.1172,4.1172,4.1172,4.1172,4.1172,4.1172,4.1172,4.1172,4.1172,4.1172,4.1172,4.1172,4.1172,4.1172,4.1172,4.1172,4.1172,4.1172,4.1172,4.1172,4.1172,4.1172,4.1172,4.1172,4.1172,4.1172,4.1172,4.1172,4.1172,4.1172,4.1172,4.1172,4.1172,4.1172,4.1172,4.1172,4.1172,4.1172,4.1172,4.1172,4.1172,4.1172,4.1172,4.1172,4.1074,4.084,4.0273,3.9668,3.916,3.9043,3.8789,3.8574,3.8574,3.8574,3.8574,3.8574,3.8574,3.8574,3.8574,3.8574,3.8574,3.8574,3.8574,3.8574,3.8574,3.8574,3.8574,3.8574,3.8574,3.8574,3.8574,3.8574,3.8574,3.8574,3.8574,3.8574,3.8574,3.8574,3.8574,3.8574,3.8574,3.8574,3.8574,3.8574,3.8574,3.8574,3.8574,3.8574,3.8574,3.8574,3.8574,3.8574,3.8574,3.8574,3.8574,3.8574,3.8574,3.8647,3.903,3.9373,3.9662,4.1172,4.1172,4.1172,4.1172,4.1172,4.1172,4.1172,4.1172,4.1172,4.1172,4.1172,4.1172,4.1172,4.1172,4.1172,4.1172,4.1172,4.1172,4.1172,4.1172,4.1172,4.1172,4.1172,4.1172,4.1172,4.1172,4.1172,4.1172,4.1172,4.1172,4.1172,4.1172,4.1172,4.1172,4.1172,4.1172,4.1172,4.1172,4.1172,4.1172,4.1172,4.1172,4.1172,4.1172,4.1172,4.1172,4.1172,4.1172,4.1172,4.1172,4.1172,4.1172,4.1172,4.1172,4.1172,4.1172,4.1172,4.1172,4.1172,4.1172,4.1113,4.084,4.0254,3.9629,3.9277,3.9004,3.8769,3.8613,3.8574,3.8574,3.8574,3.8574,3.8574,3.8574,3.8574,3.8574,3.8574,3.8574,3.8574,3.8574,3.8574,3.8574,3.8574,3.8574,3.8574,3.8574,3.8574,3.8574,3.8574,3.8574,3.8574,3.8574,3.8574,3.8574,3.8574,3.8574,3.8574,3.8574,3.8574,3.8574,3.8574,3.8574,3.8574,3.8574,3.8574,3.8574,3.8574,3.8574,3.8574,3.8574,3.8574,3.8574,3.8647,3.8865,3.9083,3.9353,4.1172,4.1172,4.1172,4.1172,4.1172,4.1172,4.1172,4.1172,4.1172,4.1172,4.1172,4.1172,4.1172,4.1172,4.1172,4.1172,4.1172,4.1172,4.1172,4.1172,4.1172,4.1172,4.1172,4.1172,4.1172,4.1172,4.1172,4.1172,4.1172,4.1172,4.1172,4.1172,4.1172,4.1172,4.1172,4.1172,4.1172,4.1172,4.1172,4.1172,4.1172,4.1172,4.1172,4.1172,4.1172,4.1172,4.1172,4.1172,4.1172,4.1172,4.1172,4.1172,4.1172,4.1172,4.1172,4.1172,4.1172,4.1172,4.1172,4.1172,4.1172,4.1172,4.0879,4.0351,3.9512,3.9258,3.9101,3.8711,3.8613,3.8574,3.8574,3.8574,3.8574,3.8574,3.8574,3.8574,3.8574,3.8574,3.8574,3.8574,3.8574,3.8574,3.8574,3.8574,3.8574,3.8574,3.8574,3.8574,3.8574,3.8574,3.8574,3.8574,3.8574,3.8574,3.8574,3.8574,3.8574,3.8574,3.8574,3.8574,3.8574,3.8574,3.8574,3.8574,3.8574,3.8574,3.8574,3.8574,3.8574,3.8574,3.8574,3.8574,3.8574,3.8574,3.8647,3.872,4.1172,4.1172,4.1172,4.1172,4.1172,4.1172,4.1172,4.1172,4.1172,4.1172,4.1172,4.1172,4.1172,4.1172,4.1172,4.1172,4.1172,4.1172,4.1172,4.1172,4.1172,4.1172,4.1172,4.1172,4.1172,4.1172,4.1172,4.1172,4.1172,4.1172,4.1172,4.1172,4.1172,4.1172,4.1172,4.1172,4.1172,4.1172,4.1172,4.1172,4.1172,4.1172,4.1172,4.1172,4.1172,4.1172,4.1172,4.1172,4.1172,4.1172,4.1172,4.1172,4.1172,4.1172,4.1172,4.1172,4.1172,4.1172,4.1172,4.1172,4.1172,4.1172,4.1094,4.0898,4.0351,3.9707,3.918,3.9082,3.8809,3.8574,3.8574,3.8574,3.8574,3.8574,3.8574,3.8574,3.8574,3.8574,3.8574,3.8574,3.8574,3.8574,3.8574,3.8574,3.8574,3.8574,3.8574,3.8574,3.8574,3.8574,3.8574,3.8574,3.8574,3.8574,3.8574,3.8574,3.8574,3.8574,3.8574,3.8574,3.8574,3.8574,3.8574,3.8574,3.8574,3.8574,3.8574,3.8574,3.8574,3.8574,3.8574,3.8574,3.8574,3.8574,3.8793,3.9103,4.1172,4.1172,4.1172,4.1172,4.1172,4.1172,4.1172,4.1172,4.1172,4.1172,4.1172,4.1172,4.1172,4.1172,4.1172,4.1172,4.1172,4.1172,4.1172,4.1172,4.1172,4.1172,4.1172,4.1172,4.1172,4.1172,4.1172,4.1172,4.1172,4.1172,4.1172,4.1172,4.1172,4.1172,4.1172,4.1172,4.1172,4.1172,4.1172,4.1172,4.1172,4.1172,4.1172,4.1172,4.1172,4.1172,4.1172,4.1172,4.1172,4.1172,4.1172,4.1172,4.1172,4.1172,4.1172,4.1172,4.1172,4.1172,4.1172,4.1172,4.1172,4.1172,4.1172,4.1055,4.0625,4.0176,3.9785,3.957,3.918,3.8867,3.8867,3.8711,3.8574,3.8574,3.8574,3.8574,3.8574,3.8574,3.8574,3.8574,3.8574,3.8574,3.8574,3.8574,3.8574,3.8574,3.8574,3.8574,3.8574,3.8574,3.8574,3.8574,3.8574,3.8574,3.8574,3.8574,3.8574,3.8574,3.8574,3.8574,3.8574,3.8574,3.8574,3.8574,3.8574,3.8574,3.8574,3.8574,3.8574,3.8574,3.8574,3.8574,3.8574,3.8574,3.8865,3.9248,4.1172,4.1172,4.1172,4.1172,4.1172,4.1172,4.1172,4.1172,4.1172,4.1172,4.1172,4.1172,4.1172,4.1172,4.1172,4.1172,4.1172,4.1172,4.1172,4.1172,4.1172,4.1172,4.1172,4.1172,4.1172,4.1172,4.1172,4.1172,4.1172,4.1172,4.1172,4.1172,4.1172,4.1172,4.1172,4.1172,4.1172,4.1172,4.1172,4.1172,4.1172,4.1172,4.1172,4.1172,4.1172,4.1172,4.1172,4.1172,4.1172,4.1172,4.1172,4.1172,4.1172,4.1172,4.1172,4.1172,4.1172,4.1172,4.1172,4.1172,4.1172,4.1172,4.1172,4.1074,4.0723,4.0586,4.043,4.0078,3.9648,3.9316,3.9316,3.9043,3.8809,3.8809,3.8809,3.8809,3.8809,3.8809,3.8809,3.8809,3.8809,3.8769,3.8691,3.8691,3.8652,3.8574,3.8574,3.8574,3.8574,3.8574,3.8574,3.8574,3.8574,3.8574,3.8574,3.8574,3.8574,3.8574,3.8574,3.8574,3.8574,3.8574,3.8574,3.8574,3.8574,3.8574,3.8574,3.8574,3.8574,3.8574,3.8574,3.8574,3.8574,3.8574,3.8793,3.9103,4.1172,4.1172,4.1172,4.1172,4.1172,4.1172,4.1172,4.1172,4.1172,4.1172,4.1172,4.1172,4.1172,4.1172,4.1172,4.1172,4.1172,4.1172,4.1172,4.1172,4.1172,4.1172,4.1172,4.1172,4.1172,4.1172,4.1172,4.1172,4.1172,4.1172,4.1172,4.1172,4.1172,4.1172,4.1172,4.1172,4.1172,4.1172,4.1172,4.1172,4.1172,4.1172,4.1172,4.1172,4.1172,4.1172,4.1172,4.1172,4.1172,4.1172,4.1172,4.1172,4.1172,4.1172,4.1172,4.1172,4.1172,4.1172,4.1172,4.1172,4.1172,4.1172,4.1172,4.1152,4.1094,4.0801,4.0508,4.0449,4.0098,3.9805,3.9805,3.9766,3.9726,3.9726,3.9726,3.9726,3.9726,3.9726,3.9726,3.9726,3.9726,3.9551,3.916,3.9121,3.8965,3.8613,3.8574,3.8574,3.8574,3.8574,3.8574,3.8574,3.8574,3.8574,3.8574,3.8574,3.8574,3.8574,3.8574,3.8574,3.8574,3.8574,3.8574,3.8574,3.8574,3.8574,3.8574,3.8574,3.8574,3.8574,3.8574,3.8574,3.8574,3.8574,3.8647,3.8647,4.1172,4.1172,4.1172,4.1172,4.1172,4.1172,4.1172,4.1172,4.1172,4.1172,4.1172,4.1172,4.1172,4.1172,4.1172,4.1172,4.1172,4.1172,4.1172,4.1172,4.1172,4.1172,4.1172,4.1172,4.1172,4.1172,4.1172,4.1172,4.1172,4.1172,4.1172,4.1172,4.1172,4.1172,4.1172,4.1172,4.1172,4.1172,4.1172,4.1172,4.1172,4.1172,4.1172,4.1172,4.1172,4.1172,4.1172,4.1172,4.1172,4.1172,4.1172,4.1172,4.1172,4.1172,4.1172,4.1172,4.1172,4.1172,4.1172,4.1172,4.1172,4.1172,4.1172,4.1172,4.1172,4.1035,4.0879,4.0879,4.0547,4.0254,4.0254,4.0059,3.9902,3.9902,3.9902,3.9902,3.9902,3.9902,3.9902,3.9902,3.9902,3.9824,3.9609,3.959,3.9512,3.9336,3.9062,3.8926,3.8926,3.8691,3.8574,3.8574,3.8574,3.8574,3.8574,3.8574,3.8574,3.8574,3.8574,3.8574,3.8574,3.8574,3.8574,3.8574,3.8574,3.8574,3.8574,3.8574,3.8574,3.8574,3.8574,3.8574,3.8574,3.8574,3.8574,3.8574]}]]